<?xml version="1.0" encoding="UTF-8" standalone="no" ?>
<gpx xmlns="http://www.topografix.com/GPX/1/1" xmlns:xsi="http://www.w3.org/2001/XMLSchema-instance" xsi:schemaLocation="http://www.topografix.com/GPX/1/1 http://www.topografix.com/GPX/1/1/gpx.xsd" version="1.1" creator="VisuGPX - https://www.visugpx.com">
  <metadata>
    <name>Randonnée Perriers sur Andelle</name>
    <desc><![CDATA[Circuit au départ de Perriers sur Andelle essentiellement en forêt]]></desc>
  </metadata>
  <trk>
    <name><![CDATA[Randonnée Perriers sur Andelle_1]]></name>
    <trkseg>
      <trkpt lat="49.40651" lon="1.37926">
        <ele>46</ele>
        <time>2017-06-13T13:59:25Z</time>
      </trkpt>
      <trkpt lat="49.40651" lon="1.37926">
        <ele>46</ele>
        <time>2017-06-13T13:59:25Z</time>
      </trkpt>
      <trkpt lat="49.40651" lon="1.37926">
        <ele>46</ele>
        <time>2017-06-13T13:59:25Z</time>
      </trkpt>
      <trkpt lat="49.40651" lon="1.37926">
        <ele>46</ele>
        <time>2017-06-13T13:59:25Z</time>
      </trkpt>
      <trkpt lat="49.40651" lon="1.37926">
        <ele>46</ele>
        <time>2017-06-13T13:59:25Z</time>
      </trkpt>
      <trkpt lat="49.40644" lon="1.3794">
        <ele>46</ele>
        <time>2017-06-13T14:03:57Z</time>
      </trkpt>
      <trkpt lat="49.40648" lon="1.37946">
        <ele>46</ele>
        <time>2017-06-13T14:03:57Z</time>
      </trkpt>
      <trkpt lat="49.4065" lon="1.37947">
        <ele>46</ele>
        <time>2017-06-13T14:03:57Z</time>
      </trkpt>
      <trkpt lat="49.40643" lon="1.3795">
        <ele>46</ele>
        <time>2017-06-13T14:03:57Z</time>
      </trkpt>
      <trkpt lat="49.40639" lon="1.37951">
        <ele>46</ele>
        <time>2017-06-13T14:03:57Z</time>
      </trkpt>
      <trkpt lat="49.40636" lon="1.37958">
        <ele>46</ele>
        <time>2017-06-13T14:04:12Z</time>
      </trkpt>
      <trkpt lat="49.40633" lon="1.37962">
        <ele>61</ele>
        <time>2017-06-13T14:04:13Z</time>
      </trkpt>
      <trkpt lat="49.4063" lon="1.37966">
        <ele>61</ele>
        <time>2017-06-13T14:04:13Z</time>
      </trkpt>
      <trkpt lat="49.40625" lon="1.37968">
        <ele>61</ele>
        <time>2017-06-13T14:04:13Z</time>
      </trkpt>
      <trkpt lat="49.40618" lon="1.37969">
        <ele>59</ele>
        <time>2017-06-13T14:04:28Z</time>
      </trkpt>
      <trkpt lat="49.40614" lon="1.3797">
        <ele>59</ele>
        <time>2017-06-13T14:04:28Z</time>
      </trkpt>
      <trkpt lat="49.40611" lon="1.37971">
        <ele>59</ele>
        <time>2017-06-13T14:04:28Z</time>
      </trkpt>
      <trkpt lat="49.40607" lon="1.37971">
        <ele>59</ele>
        <time>2017-06-13T14:04:28Z</time>
      </trkpt>
      <trkpt lat="49.40603" lon="1.37971">
        <ele>59</ele>
        <time>2017-06-13T14:04:44Z</time>
      </trkpt>
      <trkpt lat="49.40597" lon="1.37971">
        <ele>59</ele>
        <time>2017-06-13T14:04:44Z</time>
      </trkpt>
      <trkpt lat="49.40594" lon="1.37972">
        <ele>59</ele>
        <time>2017-06-13T14:04:44Z</time>
      </trkpt>
      <trkpt lat="49.4059" lon="1.37973">
        <ele>59</ele>
        <time>2017-06-13T14:04:44Z</time>
      </trkpt>
      <trkpt lat="49.40586" lon="1.37976">
        <ele>59</ele>
        <time>2017-06-13T14:05:00Z</time>
      </trkpt>
      <trkpt lat="49.40582" lon="1.37978">
        <ele>59</ele>
        <time>2017-06-13T14:05:00Z</time>
      </trkpt>
      <trkpt lat="49.4058" lon="1.37981">
        <ele>59</ele>
        <time>2017-06-13T14:05:00Z</time>
      </trkpt>
      <trkpt lat="49.40577" lon="1.37985">
        <ele>59</ele>
        <time>2017-06-13T14:05:00Z</time>
      </trkpt>
      <trkpt lat="49.40574" lon="1.37989">
        <ele>59</ele>
        <time>2017-06-13T14:05:17Z</time>
      </trkpt>
      <trkpt lat="49.40571" lon="1.37994">
        <ele>59</ele>
        <time>2017-06-13T14:05:17Z</time>
      </trkpt>
      <trkpt lat="49.40569" lon="1.38">
        <ele>59</ele>
        <time>2017-06-13T14:05:17Z</time>
      </trkpt>
      <trkpt lat="49.40567" lon="1.38004">
        <ele>59</ele>
        <time>2017-06-13T14:05:17Z</time>
      </trkpt>
      <trkpt lat="49.40566" lon="1.38009">
        <ele>59</ele>
        <time>2017-06-13T14:05:32Z</time>
      </trkpt>
      <trkpt lat="49.40565" lon="1.38021">
        <ele>59</ele>
        <time>2017-06-13T14:05:32Z</time>
      </trkpt>
      <trkpt lat="49.40564" lon="1.38031">
        <ele>59</ele>
        <time>2017-06-13T14:05:32Z</time>
      </trkpt>
      <trkpt lat="49.40562" lon="1.38043">
        <ele>70</ele>
        <time>2017-06-13T14:05:32Z</time>
      </trkpt>
      <trkpt lat="49.40559" lon="1.38052">
        <ele>70</ele>
        <time>2017-06-13T14:05:49Z</time>
      </trkpt>
      <trkpt lat="49.40556" lon="1.38054">
        <ele>70</ele>
        <time>2017-06-13T14:05:49Z</time>
      </trkpt>
      <trkpt lat="49.40553" lon="1.38059">
        <ele>70</ele>
        <time>2017-06-13T14:05:49Z</time>
      </trkpt>
      <trkpt lat="49.40551" lon="1.38065">
        <ele>70</ele>
        <time>2017-06-13T14:05:49Z</time>
      </trkpt>
      <trkpt lat="49.4055" lon="1.38073">
        <ele>70</ele>
        <time>2017-06-13T14:06:04Z</time>
      </trkpt>
      <trkpt lat="49.40548" lon="1.38079">
        <ele>70</ele>
        <time>2017-06-13T14:06:04Z</time>
      </trkpt>
      <trkpt lat="49.40546" lon="1.38083">
        <ele>70</ele>
        <time>2017-06-13T14:06:04Z</time>
      </trkpt>
      <trkpt lat="49.40543" lon="1.38088">
        <ele>70</ele>
        <time>2017-06-13T14:06:04Z</time>
      </trkpt>
      <trkpt lat="49.4054" lon="1.38092">
        <ele>72</ele>
        <time>2017-06-13T14:06:21Z</time>
      </trkpt>
      <trkpt lat="49.40537" lon="1.38096">
        <ele>72</ele>
        <time>2017-06-13T14:06:21Z</time>
      </trkpt>
      <trkpt lat="49.40535" lon="1.38101">
        <ele>72</ele>
        <time>2017-06-13T14:06:21Z</time>
      </trkpt>
      <trkpt lat="49.40532" lon="1.38106">
        <ele>72</ele>
        <time>2017-06-13T14:06:21Z</time>
      </trkpt>
      <trkpt lat="49.40529" lon="1.38111">
        <ele>72</ele>
        <time>2017-06-13T14:06:37Z</time>
      </trkpt>
      <trkpt lat="49.40526" lon="1.38118">
        <ele>72</ele>
        <time>2017-06-13T14:06:37Z</time>
      </trkpt>
      <trkpt lat="49.40524" lon="1.38122">
        <ele>72</ele>
        <time>2017-06-13T14:06:37Z</time>
      </trkpt>
      <trkpt lat="49.40521" lon="1.38127">
        <ele>77</ele>
        <time>2017-06-13T14:06:37Z</time>
      </trkpt>
      <trkpt lat="49.40519" lon="1.38133">
        <ele>77</ele>
        <time>2017-06-13T14:06:53Z</time>
      </trkpt>
      <trkpt lat="49.40517" lon="1.38137">
        <ele>77</ele>
        <time>2017-06-13T14:06:53Z</time>
      </trkpt>
      <trkpt lat="49.40515" lon="1.38143">
        <ele>77</ele>
        <time>2017-06-13T14:06:53Z</time>
      </trkpt>
      <trkpt lat="49.40512" lon="1.38149">
        <ele>77</ele>
        <time>2017-06-13T14:06:53Z</time>
      </trkpt>
      <trkpt lat="49.4051" lon="1.38154">
        <ele>77</ele>
        <time>2017-06-13T14:07:09Z</time>
      </trkpt>
      <trkpt lat="49.40507" lon="1.38159">
        <ele>77</ele>
        <time>2017-06-13T14:07:09Z</time>
      </trkpt>
      <trkpt lat="49.40505" lon="1.38165">
        <ele>77</ele>
        <time>2017-06-13T14:07:09Z</time>
      </trkpt>
      <trkpt lat="49.40502" lon="1.38171">
        <ele>77</ele>
        <time>2017-06-13T14:07:09Z</time>
      </trkpt>
      <trkpt lat="49.40501" lon="1.38173">
        <ele>77</ele>
        <time>2017-06-13T14:07:25Z</time>
      </trkpt>
      <trkpt lat="49.40497" lon="1.38181">
        <ele>77</ele>
        <time>2017-06-13T14:07:25Z</time>
      </trkpt>
      <trkpt lat="49.40494" lon="1.38186">
        <ele>77</ele>
        <time>2017-06-13T14:07:25Z</time>
      </trkpt>
      <trkpt lat="49.40492" lon="1.38192">
        <ele>77</ele>
        <time>2017-06-13T14:07:25Z</time>
      </trkpt>
      <trkpt lat="49.40489" lon="1.38198">
        <ele>77</ele>
        <time>2017-06-13T14:07:41Z</time>
      </trkpt>
      <trkpt lat="49.40487" lon="1.38203">
        <ele>77</ele>
        <time>2017-06-13T14:07:41Z</time>
      </trkpt>
      <trkpt lat="49.40484" lon="1.38208">
        <ele>77</ele>
        <time>2017-06-13T14:07:41Z</time>
      </trkpt>
      <trkpt lat="49.40482" lon="1.38213">
        <ele>83</ele>
        <time>2017-06-13T14:07:41Z</time>
      </trkpt>
      <trkpt lat="49.40479" lon="1.38219">
        <ele>83</ele>
        <time>2017-06-13T14:07:56Z</time>
      </trkpt>
      <trkpt lat="49.40473" lon="1.38229">
        <ele>83</ele>
        <time>2017-06-13T14:07:56Z</time>
      </trkpt>
      <trkpt lat="49.4047" lon="1.38233">
        <ele>83</ele>
        <time>2017-06-13T14:07:56Z</time>
      </trkpt>
      <trkpt lat="49.40468" lon="1.38237">
        <ele>83</ele>
        <time>2017-06-13T14:07:56Z</time>
      </trkpt>
      <trkpt lat="49.40464" lon="1.38243">
        <ele>83</ele>
        <time>2017-06-13T14:08:13Z</time>
      </trkpt>
      <trkpt lat="49.40462" lon="1.38247">
        <ele>83</ele>
        <time>2017-06-13T14:08:13Z</time>
      </trkpt>
      <trkpt lat="49.40459" lon="1.38252">
        <ele>83</ele>
        <time>2017-06-13T14:08:13Z</time>
      </trkpt>
      <trkpt lat="49.40457" lon="1.38257">
        <ele>80</ele>
        <time>2017-06-13T14:08:13Z</time>
      </trkpt>
      <trkpt lat="49.40454" lon="1.38262">
        <ele>80</ele>
        <time>2017-06-13T14:08:28Z</time>
      </trkpt>
      <trkpt lat="49.40452" lon="1.38267">
        <ele>80</ele>
        <time>2017-06-13T14:08:28Z</time>
      </trkpt>
      <trkpt lat="49.40449" lon="1.38272">
        <ele>80</ele>
        <time>2017-06-13T14:08:28Z</time>
      </trkpt>
      <trkpt lat="49.40448" lon="1.38278">
        <ele>80</ele>
        <time>2017-06-13T14:08:28Z</time>
      </trkpt>
      <trkpt lat="49.40446" lon="1.38283">
        <ele>80</ele>
        <time>2017-06-13T14:08:45Z</time>
      </trkpt>
      <trkpt lat="49.40444" lon="1.38289">
        <ele>80</ele>
        <time>2017-06-13T14:08:45Z</time>
      </trkpt>
      <trkpt lat="49.40441" lon="1.38295">
        <ele>86</ele>
        <time>2017-06-13T14:08:45Z</time>
      </trkpt>
      <trkpt lat="49.40439" lon="1.38301">
        <ele>86</ele>
        <time>2017-06-13T14:08:45Z</time>
      </trkpt>
      <trkpt lat="49.40437" lon="1.38305">
        <ele>86</ele>
        <time>2017-06-13T14:09:00Z</time>
      </trkpt>
      <trkpt lat="49.40434" lon="1.3831">
        <ele>86</ele>
        <time>2017-06-13T14:09:00Z</time>
      </trkpt>
      <trkpt lat="49.40431" lon="1.38317">
        <ele>86</ele>
        <time>2017-06-13T14:09:00Z</time>
      </trkpt>
      <trkpt lat="49.40429" lon="1.38322">
        <ele>86</ele>
        <time>2017-06-13T14:09:00Z</time>
      </trkpt>
      <trkpt lat="49.40427" lon="1.38328">
        <ele>86</ele>
        <time>2017-06-13T14:09:17Z</time>
      </trkpt>
      <trkpt lat="49.40424" lon="1.38333">
        <ele>86</ele>
        <time>2017-06-13T14:09:17Z</time>
      </trkpt>
      <trkpt lat="49.40423" lon="1.38337">
        <ele>86</ele>
        <time>2017-06-13T14:09:17Z</time>
      </trkpt>
      <trkpt lat="49.4042" lon="1.38344">
        <ele>86</ele>
        <time>2017-06-13T14:09:17Z</time>
      </trkpt>
      <trkpt lat="49.40418" lon="1.3835">
        <ele>86</ele>
        <time>2017-06-13T14:09:37Z</time>
      </trkpt>
      <trkpt lat="49.40416" lon="1.38356">
        <ele>86</ele>
        <time>2017-06-13T14:09:37Z</time>
      </trkpt>
      <trkpt lat="49.40413" lon="1.38362">
        <ele>86</ele>
        <time>2017-06-13T14:09:37Z</time>
      </trkpt>
      <trkpt lat="49.40408" lon="1.38373">
        <ele>86</ele>
        <time>2017-06-13T14:09:37Z</time>
      </trkpt>
      <trkpt lat="49.40406" lon="1.38379">
        <ele>90</ele>
        <time>2017-06-13T14:09:52Z</time>
      </trkpt>
      <trkpt lat="49.40404" lon="1.38384">
        <ele>90</ele>
        <time>2017-06-13T14:09:52Z</time>
      </trkpt>
      <trkpt lat="49.40401" lon="1.3839">
        <ele>90</ele>
        <time>2017-06-13T14:09:52Z</time>
      </trkpt>
      <trkpt lat="49.40398" lon="1.38395">
        <ele>90</ele>
        <time>2017-06-13T14:09:52Z</time>
      </trkpt>
      <trkpt lat="49.40396" lon="1.38401">
        <ele>90</ele>
        <time>2017-06-13T14:10:08Z</time>
      </trkpt>
      <trkpt lat="49.40393" lon="1.38407">
        <ele>90</ele>
        <time>2017-06-13T14:10:08Z</time>
      </trkpt>
      <trkpt lat="49.40391" lon="1.38413">
        <ele>90</ele>
        <time>2017-06-13T14:10:08Z</time>
      </trkpt>
      <trkpt lat="49.40388" lon="1.3842">
        <ele>90</ele>
        <time>2017-06-13T14:10:08Z</time>
      </trkpt>
      <trkpt lat="49.40386" lon="1.38425">
        <ele>90</ele>
        <time>2017-06-13T14:10:24Z</time>
      </trkpt>
      <trkpt lat="49.40383" lon="1.38432">
        <ele>90</ele>
        <time>2017-06-13T14:10:24Z</time>
      </trkpt>
      <trkpt lat="49.4038" lon="1.38437">
        <ele>90</ele>
        <time>2017-06-13T14:10:24Z</time>
      </trkpt>
      <trkpt lat="49.40378" lon="1.38443">
        <ele>90</ele>
        <time>2017-06-13T14:10:24Z</time>
      </trkpt>
      <trkpt lat="49.40376" lon="1.38449">
        <ele>90</ele>
        <time>2017-06-13T14:10:41Z</time>
      </trkpt>
      <trkpt lat="49.40375" lon="1.38467">
        <ele>97</ele>
        <time>2017-06-13T14:10:41Z</time>
      </trkpt>
      <trkpt lat="49.40382" lon="1.3848">
        <ele>97</ele>
        <time>2017-06-13T14:10:41Z</time>
      </trkpt>
      <trkpt lat="49.40389" lon="1.38485">
        <ele>97</ele>
        <time>2017-06-13T14:10:41Z</time>
      </trkpt>
      <trkpt lat="49.40388" lon="1.38491">
        <ele>97</ele>
        <time>2017-06-13T14:10:58Z</time>
      </trkpt>
      <trkpt lat="49.40386" lon="1.38497">
        <ele>97</ele>
        <time>2017-06-13T14:10:58Z</time>
      </trkpt>
      <trkpt lat="49.40384" lon="1.38501">
        <ele>97</ele>
        <time>2017-06-13T14:10:58Z</time>
      </trkpt>
      <trkpt lat="49.40381" lon="1.38508">
        <ele>97</ele>
        <time>2017-06-13T14:10:58Z</time>
      </trkpt>
      <trkpt lat="49.40379" lon="1.38512">
        <ele>97</ele>
        <time>2017-06-13T14:11:13Z</time>
      </trkpt>
      <trkpt lat="49.40377" lon="1.38517">
        <ele>97</ele>
        <time>2017-06-13T14:11:13Z</time>
      </trkpt>
      <trkpt lat="49.40375" lon="1.38523">
        <ele>97</ele>
        <time>2017-06-13T14:11:13Z</time>
      </trkpt>
      <trkpt lat="49.40373" lon="1.38529">
        <ele>97</ele>
        <time>2017-06-13T14:11:13Z</time>
      </trkpt>
      <trkpt lat="49.40375" lon="1.38537">
        <ele>97</ele>
        <time>2017-06-13T14:11:28Z</time>
      </trkpt>
      <trkpt lat="49.40378" lon="1.38542">
        <ele>97</ele>
        <time>2017-06-13T14:11:28Z</time>
      </trkpt>
      <trkpt lat="49.40378" lon="1.38547">
        <ele>106</ele>
        <time>2017-06-13T14:11:28Z</time>
      </trkpt>
      <trkpt lat="49.40376" lon="1.38552">
        <ele>106</ele>
        <time>2017-06-13T14:11:28Z</time>
      </trkpt>
      <trkpt lat="49.40373" lon="1.38557">
        <ele>106</ele>
        <time>2017-06-13T14:11:45Z</time>
      </trkpt>
      <trkpt lat="49.40371" lon="1.38562">
        <ele>106</ele>
        <time>2017-06-13T14:11:45Z</time>
      </trkpt>
      <trkpt lat="49.40368" lon="1.38568">
        <ele>106</ele>
        <time>2017-06-13T14:11:45Z</time>
      </trkpt>
      <trkpt lat="49.40366" lon="1.38572">
        <ele>106</ele>
        <time>2017-06-13T14:11:45Z</time>
      </trkpt>
      <trkpt lat="49.40362" lon="1.38578">
        <ele>106</ele>
        <time>2017-06-13T14:12:01Z</time>
      </trkpt>
      <trkpt lat="49.4036" lon="1.38581">
        <ele>106</ele>
        <time>2017-06-13T14:12:01Z</time>
      </trkpt>
      <trkpt lat="49.40357" lon="1.38586">
        <ele>106</ele>
        <time>2017-06-13T14:12:01Z</time>
      </trkpt>
      <trkpt lat="49.40355" lon="1.38591">
        <ele>106</ele>
        <time>2017-06-13T14:12:01Z</time>
      </trkpt>
      <trkpt lat="49.40351" lon="1.38596">
        <ele>106</ele>
        <time>2017-06-13T14:12:16Z</time>
      </trkpt>
      <trkpt lat="49.4035" lon="1.38598">
        <ele>106</ele>
        <time>2017-06-13T14:12:16Z</time>
      </trkpt>
      <trkpt lat="49.40346" lon="1.38604">
        <ele>106</ele>
        <time>2017-06-13T14:12:16Z</time>
      </trkpt>
      <trkpt lat="49.40344" lon="1.38608">
        <ele>106</ele>
        <time>2017-06-13T14:12:16Z</time>
      </trkpt>
      <trkpt lat="49.40341" lon="1.38612">
        <ele>106</ele>
        <time>2017-06-13T14:12:33Z</time>
      </trkpt>
      <trkpt lat="49.40338" lon="1.38616">
        <ele>106</ele>
        <time>2017-06-13T14:12:33Z</time>
      </trkpt>
      <trkpt lat="49.40335" lon="1.3862">
        <ele>106</ele>
        <time>2017-06-13T14:12:33Z</time>
      </trkpt>
      <trkpt lat="49.40331" lon="1.38626">
        <ele>111</ele>
        <time>2017-06-13T14:12:33Z</time>
      </trkpt>
      <trkpt lat="49.40329" lon="1.38629">
        <ele>111</ele>
        <time>2017-06-13T14:12:49Z</time>
      </trkpt>
      <trkpt lat="49.40325" lon="1.38634">
        <ele>111</ele>
        <time>2017-06-13T14:12:49Z</time>
      </trkpt>
      <trkpt lat="49.40323" lon="1.38638">
        <ele>111</ele>
        <time>2017-06-13T14:12:49Z</time>
      </trkpt>
      <trkpt lat="49.40319" lon="1.38642">
        <ele>111</ele>
        <time>2017-06-13T14:12:49Z</time>
      </trkpt>
      <trkpt lat="49.40317" lon="1.38647">
        <ele>111</ele>
        <time>2017-06-13T14:13:05Z</time>
      </trkpt>
      <trkpt lat="49.40314" lon="1.38651">
        <ele>111</ele>
        <time>2017-06-13T14:13:05Z</time>
      </trkpt>
      <trkpt lat="49.40312" lon="1.38656">
        <ele>111</ele>
        <time>2017-06-13T14:13:05Z</time>
      </trkpt>
      <trkpt lat="49.40308" lon="1.3866">
        <ele>111</ele>
        <time>2017-06-13T14:13:05Z</time>
      </trkpt>
      <trkpt lat="49.40305" lon="1.38664">
        <ele>111</ele>
        <time>2017-06-13T14:13:21Z</time>
      </trkpt>
      <trkpt lat="49.40302" lon="1.38668">
        <ele>111</ele>
        <time>2017-06-13T14:13:21Z</time>
      </trkpt>
      <trkpt lat="49.40299" lon="1.38672">
        <ele>111</ele>
        <time>2017-06-13T14:13:21Z</time>
      </trkpt>
      <trkpt lat="49.40295" lon="1.38676">
        <ele>111</ele>
        <time>2017-06-13T14:13:21Z</time>
      </trkpt>
      <trkpt lat="49.40291" lon="1.38679">
        <ele>110</ele>
        <time>2017-06-13T14:13:40Z</time>
      </trkpt>
      <trkpt lat="49.40288" lon="1.38683">
        <ele>110</ele>
        <time>2017-06-13T14:13:40Z</time>
      </trkpt>
      <trkpt lat="49.40284" lon="1.38689">
        <ele>110</ele>
        <time>2017-06-13T14:13:40Z</time>
      </trkpt>
      <trkpt lat="49.40284" lon="1.38692">
        <ele>110</ele>
        <time>2017-06-13T14:13:40Z</time>
      </trkpt>
      <trkpt lat="49.40281" lon="1.38696">
        <ele>110</ele>
        <time>2017-06-13T14:13:57Z</time>
      </trkpt>
      <trkpt lat="49.40278" lon="1.387">
        <ele>110</ele>
        <time>2017-06-13T14:13:57Z</time>
      </trkpt>
      <trkpt lat="49.40275" lon="1.38704">
        <ele>110</ele>
        <time>2017-06-13T14:13:58Z</time>
      </trkpt>
      <trkpt lat="49.40272" lon="1.38709">
        <ele>116</ele>
        <time>2017-06-13T14:13:58Z</time>
      </trkpt>
      <trkpt lat="49.4027" lon="1.38712">
        <ele>116</ele>
        <time>2017-06-13T14:14:14Z</time>
      </trkpt>
      <trkpt lat="49.40266" lon="1.38716">
        <ele>116</ele>
        <time>2017-06-13T14:14:14Z</time>
      </trkpt>
      <trkpt lat="49.40263" lon="1.38719">
        <ele>116</ele>
        <time>2017-06-13T14:14:14Z</time>
      </trkpt>
      <trkpt lat="49.40258" lon="1.38725">
        <ele>116</ele>
        <time>2017-06-13T14:14:14Z</time>
      </trkpt>
      <trkpt lat="49.40256" lon="1.38728">
        <ele>116</ele>
        <time>2017-06-13T14:14:29Z</time>
      </trkpt>
      <trkpt lat="49.40252" lon="1.38732">
        <ele>116</ele>
        <time>2017-06-13T14:14:29Z</time>
      </trkpt>
      <trkpt lat="49.40249" lon="1.38735">
        <ele>116</ele>
        <time>2017-06-13T14:14:29Z</time>
      </trkpt>
      <trkpt lat="49.40247" lon="1.38739">
        <ele>116</ele>
        <time>2017-06-13T14:14:29Z</time>
      </trkpt>
      <trkpt lat="49.40239" lon="1.38745">
        <ele>116</ele>
        <time>2017-06-13T14:14:50Z</time>
      </trkpt>
      <trkpt lat="49.40235" lon="1.38748">
        <ele>116</ele>
        <time>2017-06-13T14:14:50Z</time>
      </trkpt>
      <trkpt lat="49.40231" lon="1.38752">
        <ele>116</ele>
        <time>2017-06-13T14:14:50Z</time>
      </trkpt>
      <trkpt lat="49.40229" lon="1.38757">
        <ele>116</ele>
        <time>2017-06-13T14:14:50Z</time>
      </trkpt>
      <trkpt lat="49.40227" lon="1.38759">
        <ele>116</ele>
        <time>2017-06-13T14:15:05Z</time>
      </trkpt>
      <trkpt lat="49.40225" lon="1.38763">
        <ele>116</ele>
        <time>2017-06-13T14:15:05Z</time>
      </trkpt>
      <trkpt lat="49.40223" lon="1.38768">
        <ele>116</ele>
        <time>2017-06-13T14:15:05Z</time>
      </trkpt>
      <trkpt lat="49.4022" lon="1.38771">
        <ele>116</ele>
        <time>2017-06-13T14:15:05Z</time>
      </trkpt>
      <trkpt lat="49.40217" lon="1.38775">
        <ele>116</ele>
        <time>2017-06-13T14:15:20Z</time>
      </trkpt>
      <trkpt lat="49.40213" lon="1.3878">
        <ele>116</ele>
        <time>2017-06-13T14:15:20Z</time>
      </trkpt>
      <trkpt lat="49.40212" lon="1.38783">
        <ele>116</ele>
        <time>2017-06-13T14:15:21Z</time>
      </trkpt>
      <trkpt lat="49.40209" lon="1.38787">
        <ele>116</ele>
        <time>2017-06-13T14:15:21Z</time>
      </trkpt>
      <trkpt lat="49.40205" lon="1.3879">
        <ele>114</ele>
        <time>2017-06-13T14:15:37Z</time>
      </trkpt>
      <trkpt lat="49.40201" lon="1.38792">
        <ele>122</ele>
        <time>2017-06-13T14:15:37Z</time>
      </trkpt>
      <trkpt lat="49.40197" lon="1.38797">
        <ele>122</ele>
        <time>2017-06-13T14:15:37Z</time>
      </trkpt>
      <trkpt lat="49.40192" lon="1.38802">
        <ele>122</ele>
        <time>2017-06-13T14:15:37Z</time>
      </trkpt>
      <trkpt lat="49.4019" lon="1.38806">
        <ele>122</ele>
        <time>2017-06-13T14:15:52Z</time>
      </trkpt>
      <trkpt lat="49.40186" lon="1.38811">
        <ele>122</ele>
        <time>2017-06-13T14:15:52Z</time>
      </trkpt>
      <trkpt lat="49.40184" lon="1.38815">
        <ele>122</ele>
        <time>2017-06-13T14:15:52Z</time>
      </trkpt>
      <trkpt lat="49.4018" lon="1.38818">
        <ele>122</ele>
        <time>2017-06-13T14:15:52Z</time>
      </trkpt>
      <trkpt lat="49.40177" lon="1.38822">
        <ele>122</ele>
        <time>2017-06-13T14:16:09Z</time>
      </trkpt>
      <trkpt lat="49.40173" lon="1.38826">
        <ele>122</ele>
        <time>2017-06-13T14:16:09Z</time>
      </trkpt>
      <trkpt lat="49.4017" lon="1.38829">
        <ele>122</ele>
        <time>2017-06-13T14:16:09Z</time>
      </trkpt>
      <trkpt lat="49.40167" lon="1.38832">
        <ele>122</ele>
        <time>2017-06-13T14:16:09Z</time>
      </trkpt>
      <trkpt lat="49.40163" lon="1.38837">
        <ele>122</ele>
        <time>2017-06-13T14:16:29Z</time>
      </trkpt>
      <trkpt lat="49.40161" lon="1.38843">
        <ele>122</ele>
        <time>2017-06-13T14:16:29Z</time>
      </trkpt>
      <trkpt lat="49.40158" lon="1.38847">
        <ele>122</ele>
        <time>2017-06-13T14:16:29Z</time>
      </trkpt>
      <trkpt lat="49.40153" lon="1.38855">
        <ele>122</ele>
        <time>2017-06-13T14:16:29Z</time>
      </trkpt>
      <trkpt lat="49.40152" lon="1.38858">
        <ele>122</ele>
        <time>2017-06-13T14:16:44Z</time>
      </trkpt>
      <trkpt lat="49.40149" lon="1.38864">
        <ele>122</ele>
        <time>2017-06-13T14:16:44Z</time>
      </trkpt>
      <trkpt lat="49.40146" lon="1.38868">
        <ele>122</ele>
        <time>2017-06-13T14:16:44Z</time>
      </trkpt>
      <trkpt lat="49.40142" lon="1.38872">
        <ele>122</ele>
        <time>2017-06-13T14:16:44Z</time>
      </trkpt>
      <trkpt lat="49.40139" lon="1.38876">
        <ele>128</ele>
        <time>2017-06-13T14:17:01Z</time>
      </trkpt>
      <trkpt lat="49.40137" lon="1.38881">
        <ele>128</ele>
        <time>2017-06-13T14:17:01Z</time>
      </trkpt>
      <trkpt lat="49.40134" lon="1.38886">
        <ele>128</ele>
        <time>2017-06-13T14:17:01Z</time>
      </trkpt>
      <trkpt lat="49.4013" lon="1.38891">
        <ele>128</ele>
        <time>2017-06-13T14:17:01Z</time>
      </trkpt>
      <trkpt lat="49.40128" lon="1.38896">
        <ele>128</ele>
        <time>2017-06-13T14:17:17Z</time>
      </trkpt>
      <trkpt lat="49.40125" lon="1.38901">
        <ele>124</ele>
        <time>2017-06-13T14:17:17Z</time>
      </trkpt>
      <trkpt lat="49.4012" lon="1.38907">
        <ele>124</ele>
        <time>2017-06-13T14:17:17Z</time>
      </trkpt>
      <trkpt lat="49.40118" lon="1.38911">
        <ele>124</ele>
        <time>2017-06-13T14:17:17Z</time>
      </trkpt>
      <trkpt lat="49.40114" lon="1.38917">
        <ele>124</ele>
        <time>2017-06-13T14:17:32Z</time>
      </trkpt>
      <trkpt lat="49.40113" lon="1.3892">
        <ele>124</ele>
        <time>2017-06-13T14:17:32Z</time>
      </trkpt>
      <trkpt lat="49.4011" lon="1.38924">
        <ele>124</ele>
        <time>2017-06-13T14:17:32Z</time>
      </trkpt>
      <trkpt lat="49.40108" lon="1.38928">
        <ele>124</ele>
        <time>2017-06-13T14:17:32Z</time>
      </trkpt>
      <trkpt lat="49.40105" lon="1.38933">
        <ele>124</ele>
        <time>2017-06-13T14:17:53Z</time>
      </trkpt>
      <trkpt lat="49.40102" lon="1.38938">
        <ele>124</ele>
        <time>2017-06-13T14:17:53Z</time>
      </trkpt>
      <trkpt lat="49.40099" lon="1.38942">
        <ele>124</ele>
        <time>2017-06-13T14:17:53Z</time>
      </trkpt>
      <trkpt lat="49.40091" lon="1.3895">
        <ele>124</ele>
        <time>2017-06-13T14:17:53Z</time>
      </trkpt>
      <trkpt lat="49.40088" lon="1.38954">
        <ele>124</ele>
        <time>2017-06-13T14:18:09Z</time>
      </trkpt>
      <trkpt lat="49.40084" lon="1.38958">
        <ele>130</ele>
        <time>2017-06-13T14:18:09Z</time>
      </trkpt>
      <trkpt lat="49.4008" lon="1.38963">
        <ele>130</ele>
        <time>2017-06-13T14:18:09Z</time>
      </trkpt>
      <trkpt lat="49.40076" lon="1.38968">
        <ele>130</ele>
        <time>2017-06-13T14:18:09Z</time>
      </trkpt>
      <trkpt lat="49.40072" lon="1.38971">
        <ele>130</ele>
        <time>2017-06-13T14:18:26Z</time>
      </trkpt>
      <trkpt lat="49.40068" lon="1.38976">
        <ele>130</ele>
        <time>2017-06-13T14:18:26Z</time>
      </trkpt>
      <trkpt lat="49.40063" lon="1.38981">
        <ele>130</ele>
        <time>2017-06-13T14:18:26Z</time>
      </trkpt>
      <trkpt lat="49.40059" lon="1.38985">
        <ele>130</ele>
        <time>2017-06-13T14:18:26Z</time>
      </trkpt>
      <trkpt lat="49.40056" lon="1.38988">
        <ele>130</ele>
        <time>2017-06-13T14:18:41Z</time>
      </trkpt>
      <trkpt lat="49.40052" lon="1.38993">
        <ele>130</ele>
        <time>2017-06-13T14:18:41Z</time>
      </trkpt>
      <trkpt lat="49.40049" lon="1.38998">
        <ele>130</ele>
        <time>2017-06-13T14:18:41Z</time>
      </trkpt>
      <trkpt lat="49.40045" lon="1.39003">
        <ele>130</ele>
        <time>2017-06-13T14:18:41Z</time>
      </trkpt>
      <trkpt lat="49.40042" lon="1.39007">
        <ele>130</ele>
        <time>2017-06-13T14:19:20Z</time>
      </trkpt>
      <trkpt lat="49.40038" lon="1.3901">
        <ele>131</ele>
        <time>2017-06-13T14:19:20Z</time>
      </trkpt>
      <trkpt lat="49.40035" lon="1.39015">
        <ele>131</ele>
        <time>2017-06-13T14:19:20Z</time>
      </trkpt>
      <trkpt lat="49.40012" lon="1.39047">
        <ele>134</ele>
        <time>2017-06-13T14:19:20Z</time>
      </trkpt>
      <trkpt lat="49.40007" lon="1.39053">
        <ele>134</ele>
        <time>2017-06-13T14:19:41Z</time>
      </trkpt>
      <trkpt lat="49.40005" lon="1.39057">
        <ele>134</ele>
        <time>2017-06-13T14:19:41Z</time>
      </trkpt>
      <trkpt lat="49.39998" lon="1.39068">
        <ele>134</ele>
        <time>2017-06-13T14:19:41Z</time>
      </trkpt>
      <trkpt lat="49.39995" lon="1.39075">
        <ele>134</ele>
        <time>2017-06-13T14:19:41Z</time>
      </trkpt>
      <trkpt lat="49.39993" lon="1.39078">
        <ele>134</ele>
        <time>2017-06-13T14:20:16Z</time>
      </trkpt>
      <trkpt lat="49.39971" lon="1.39109">
        <ele>134</ele>
        <time>2017-06-13T14:20:16Z</time>
      </trkpt>
      <trkpt lat="49.39968" lon="1.39114">
        <ele>134</ele>
        <time>2017-06-13T14:20:16Z</time>
      </trkpt>
      <trkpt lat="49.39965" lon="1.39118">
        <ele>134</ele>
        <time>2017-06-13T14:20:16Z</time>
      </trkpt>
      <trkpt lat="49.39961" lon="1.39125">
        <ele>135</ele>
        <time>2017-06-13T14:20:32Z</time>
      </trkpt>
      <trkpt lat="49.39958" lon="1.3913">
        <ele>138</ele>
        <time>2017-06-13T14:20:32Z</time>
      </trkpt>
      <trkpt lat="49.39955" lon="1.39133">
        <ele>138</ele>
        <time>2017-06-13T14:20:32Z</time>
      </trkpt>
      <trkpt lat="49.39953" lon="1.39136">
        <ele>138</ele>
        <time>2017-06-13T14:20:32Z</time>
      </trkpt>
      <trkpt lat="49.39952" lon="1.39143">
        <ele>138</ele>
        <time>2017-06-13T14:20:49Z</time>
      </trkpt>
      <trkpt lat="49.39954" lon="1.39151">
        <ele>138</ele>
        <time>2017-06-13T14:20:49Z</time>
      </trkpt>
      <trkpt lat="49.39952" lon="1.39157">
        <ele>138</ele>
        <time>2017-06-13T14:20:49Z</time>
      </trkpt>
      <trkpt lat="49.3995" lon="1.39167">
        <ele>138</ele>
        <time>2017-06-13T14:20:49Z</time>
      </trkpt>
      <trkpt lat="49.3995" lon="1.39173">
        <ele>138</ele>
        <time>2017-06-13T14:21:05Z</time>
      </trkpt>
      <trkpt lat="49.39952" lon="1.39188">
        <ele>138</ele>
        <time>2017-06-13T14:21:05Z</time>
      </trkpt>
      <trkpt lat="49.39961" lon="1.39204">
        <ele>135</ele>
        <time>2017-06-13T14:21:05Z</time>
      </trkpt>
      <trkpt lat="49.39979" lon="1.39218">
        <ele>134</ele>
        <time>2017-06-13T14:21:05Z</time>
      </trkpt>
      <trkpt lat="49.39991" lon="1.39225">
        <ele>134</ele>
        <time>2017-06-13T14:21:22Z</time>
      </trkpt>
      <trkpt lat="49.39998" lon="1.39234">
        <ele>134</ele>
        <time>2017-06-13T14:21:22Z</time>
      </trkpt>
      <trkpt lat="49.40005" lon="1.39243">
        <ele>134</ele>
        <time>2017-06-13T14:21:22Z</time>
      </trkpt>
      <trkpt lat="49.40008" lon="1.39251">
        <ele>134</ele>
        <time>2017-06-13T14:21:22Z</time>
      </trkpt>
      <trkpt lat="49.40012" lon="1.39255">
        <ele>134</ele>
        <time>2017-06-13T14:21:36Z</time>
      </trkpt>
      <trkpt lat="49.40017" lon="1.39263">
        <ele>134</ele>
        <time>2017-06-13T14:21:36Z</time>
      </trkpt>
      <trkpt lat="49.40019" lon="1.39267">
        <ele>134</ele>
        <time>2017-06-13T14:21:36Z</time>
      </trkpt>
      <trkpt lat="49.40025" lon="1.39274">
        <ele>134</ele>
        <time>2017-06-13T14:21:36Z</time>
      </trkpt>
      <trkpt lat="49.4003" lon="1.39283">
        <ele>134</ele>
        <time>2017-06-13T14:21:52Z</time>
      </trkpt>
      <trkpt lat="49.40034" lon="1.39292">
        <ele>130</ele>
        <time>2017-06-13T14:21:52Z</time>
      </trkpt>
      <trkpt lat="49.40037" lon="1.39299">
        <ele>130</ele>
        <time>2017-06-13T14:21:52Z</time>
      </trkpt>
      <trkpt lat="49.4004" lon="1.39305">
        <ele>130</ele>
        <time>2017-06-13T14:21:52Z</time>
      </trkpt>
      <trkpt lat="49.40048" lon="1.39309">
        <ele>141</ele>
        <time>2017-06-13T14:22:12Z</time>
      </trkpt>
      <trkpt lat="49.40052" lon="1.39314">
        <ele>141</ele>
        <time>2017-06-13T14:22:12Z</time>
      </trkpt>
      <trkpt lat="49.40059" lon="1.39322">
        <ele>141</ele>
        <time>2017-06-13T14:22:12Z</time>
      </trkpt>
      <trkpt lat="49.40062" lon="1.39327">
        <ele>141</ele>
        <time>2017-06-13T14:22:12Z</time>
      </trkpt>
      <trkpt lat="49.40066" lon="1.39332">
        <ele>141</ele>
        <time>2017-06-13T14:22:29Z</time>
      </trkpt>
      <trkpt lat="49.40069" lon="1.39335">
        <ele>141</ele>
        <time>2017-06-13T14:22:29Z</time>
      </trkpt>
      <trkpt lat="49.40072" lon="1.39339">
        <ele>141</ele>
        <time>2017-06-13T14:22:29Z</time>
      </trkpt>
      <trkpt lat="49.40076" lon="1.39342">
        <ele>141</ele>
        <time>2017-06-13T14:22:29Z</time>
      </trkpt>
      <trkpt lat="49.40079" lon="1.39346">
        <ele>141</ele>
        <time>2017-06-13T14:22:45Z</time>
      </trkpt>
      <trkpt lat="49.40083" lon="1.3935">
        <ele>141</ele>
        <time>2017-06-13T14:22:45Z</time>
      </trkpt>
      <trkpt lat="49.40087" lon="1.39354">
        <ele>141</ele>
        <time>2017-06-13T14:22:45Z</time>
      </trkpt>
      <trkpt lat="49.4009" lon="1.3936">
        <ele>141</ele>
        <time>2017-06-13T14:22:45Z</time>
      </trkpt>
      <trkpt lat="49.40093" lon="1.39365">
        <ele>141</ele>
        <time>2017-06-13T14:23:01Z</time>
      </trkpt>
      <trkpt lat="49.40096" lon="1.39369">
        <ele>141</ele>
        <time>2017-06-13T14:23:01Z</time>
      </trkpt>
      <trkpt lat="49.40099" lon="1.39373">
        <ele>141</ele>
        <time>2017-06-13T14:23:01Z</time>
      </trkpt>
      <trkpt lat="49.40104" lon="1.39377">
        <ele>137</ele>
        <time>2017-06-13T14:23:01Z</time>
      </trkpt>
      <trkpt lat="49.40106" lon="1.3938">
        <ele>137</ele>
        <time>2017-06-13T14:23:17Z</time>
      </trkpt>
      <trkpt lat="49.4011" lon="1.39383">
        <ele>137</ele>
        <time>2017-06-13T14:23:18Z</time>
      </trkpt>
      <trkpt lat="49.40114" lon="1.39387">
        <ele>137</ele>
        <time>2017-06-13T14:23:18Z</time>
      </trkpt>
      <trkpt lat="49.40118" lon="1.39391">
        <ele>137</ele>
        <time>2017-06-13T14:23:18Z</time>
      </trkpt>
      <trkpt lat="49.40121" lon="1.39393">
        <ele>137</ele>
        <time>2017-06-13T14:23:32Z</time>
      </trkpt>
      <trkpt lat="49.40125" lon="1.39395">
        <ele>147</ele>
        <time>2017-06-13T14:23:32Z</time>
      </trkpt>
      <trkpt lat="49.4013" lon="1.39396">
        <ele>147</ele>
        <time>2017-06-13T14:23:32Z</time>
      </trkpt>
      <trkpt lat="49.40133" lon="1.39398">
        <ele>147</ele>
        <time>2017-06-13T14:23:32Z</time>
      </trkpt>
      <trkpt lat="49.40138" lon="1.39401">
        <ele>147</ele>
        <time>2017-06-13T14:23:49Z</time>
      </trkpt>
      <trkpt lat="49.40139" lon="1.39406">
        <ele>147</ele>
        <time>2017-06-13T14:23:49Z</time>
      </trkpt>
      <trkpt lat="49.40145" lon="1.39426">
        <ele>147</ele>
        <time>2017-06-13T14:23:49Z</time>
      </trkpt>
      <trkpt lat="49.40149" lon="1.39429">
        <ele>147</ele>
        <time>2017-06-13T14:23:49Z</time>
      </trkpt>
      <trkpt lat="49.40154" lon="1.39429">
        <ele>147</ele>
        <time>2017-06-13T14:24:05Z</time>
      </trkpt>
      <trkpt lat="49.40161" lon="1.3943">
        <ele>147</ele>
        <time>2017-06-13T14:24:05Z</time>
      </trkpt>
      <trkpt lat="49.40166" lon="1.39434">
        <ele>147</ele>
        <time>2017-06-13T14:24:05Z</time>
      </trkpt>
      <trkpt lat="49.40171" lon="1.3944">
        <ele>147</ele>
        <time>2017-06-13T14:24:05Z</time>
      </trkpt>
      <trkpt lat="49.40175" lon="1.39443">
        <ele>147</ele>
        <time>2017-06-13T14:24:21Z</time>
      </trkpt>
      <trkpt lat="49.40179" lon="1.39446">
        <ele>147</ele>
        <time>2017-06-13T14:24:21Z</time>
      </trkpt>
      <trkpt lat="49.40182" lon="1.39451">
        <ele>147</ele>
        <time>2017-06-13T14:24:21Z</time>
      </trkpt>
      <trkpt lat="49.40184" lon="1.39456">
        <ele>147</ele>
        <time>2017-06-13T14:24:21Z</time>
      </trkpt>
      <trkpt lat="49.40184" lon="1.39462">
        <ele>142</ele>
        <time>2017-06-13T14:24:37Z</time>
      </trkpt>
      <trkpt lat="49.40185" lon="1.39469">
        <ele>142</ele>
        <time>2017-06-13T14:24:37Z</time>
      </trkpt>
      <trkpt lat="49.40185" lon="1.39476">
        <ele>142</ele>
        <time>2017-06-13T14:24:37Z</time>
      </trkpt>
      <trkpt lat="49.40184" lon="1.39485">
        <ele>142</ele>
        <time>2017-06-13T14:24:37Z</time>
      </trkpt>
      <trkpt lat="49.40183" lon="1.39491">
        <ele>142</ele>
        <time>2017-06-13T14:24:52Z</time>
      </trkpt>
      <trkpt lat="49.40183" lon="1.39498">
        <ele>142</ele>
        <time>2017-06-13T14:24:52Z</time>
      </trkpt>
      <trkpt lat="49.40182" lon="1.39504">
        <ele>142</ele>
        <time>2017-06-13T14:24:52Z</time>
      </trkpt>
      <trkpt lat="49.40181" lon="1.39511">
        <ele>142</ele>
        <time>2017-06-13T14:24:52Z</time>
      </trkpt>
      <trkpt lat="49.40179" lon="1.39517">
        <ele>142</ele>
        <time>2017-06-13T14:25:08Z</time>
      </trkpt>
      <trkpt lat="49.40177" lon="1.39524">
        <ele>142</ele>
        <time>2017-06-13T14:25:08Z</time>
      </trkpt>
      <trkpt lat="49.40174" lon="1.39532">
        <ele>142</ele>
        <time>2017-06-13T14:25:08Z</time>
      </trkpt>
      <trkpt lat="49.40173" lon="1.39537">
        <ele>142</ele>
        <time>2017-06-13T14:25:08Z</time>
      </trkpt>
      <trkpt lat="49.40172" lon="1.39545">
        <ele>140</ele>
        <time>2017-06-13T14:25:25Z</time>
      </trkpt>
      <trkpt lat="49.40169" lon="1.39553">
        <ele>140</ele>
        <time>2017-06-13T14:25:25Z</time>
      </trkpt>
      <trkpt lat="49.40167" lon="1.39558">
        <ele>140</ele>
        <time>2017-06-13T14:25:25Z</time>
      </trkpt>
      <trkpt lat="49.40165" lon="1.39564">
        <ele>140</ele>
        <time>2017-06-13T14:25:25Z</time>
      </trkpt>
      <trkpt lat="49.40162" lon="1.3957">
        <ele>140</ele>
        <time>2017-06-13T14:25:41Z</time>
      </trkpt>
      <trkpt lat="49.4016" lon="1.39576">
        <ele>140</ele>
        <time>2017-06-13T14:25:41Z</time>
      </trkpt>
      <trkpt lat="49.40158" lon="1.3958">
        <ele>140</ele>
        <time>2017-06-13T14:25:41Z</time>
      </trkpt>
      <trkpt lat="49.40155" lon="1.39587">
        <ele>140</ele>
        <time>2017-06-13T14:25:41Z</time>
      </trkpt>
      <trkpt lat="49.40153" lon="1.39593">
        <ele>140</ele>
        <time>2017-06-13T14:25:57Z</time>
      </trkpt>
      <trkpt lat="49.40151" lon="1.39601">
        <ele>140</ele>
        <time>2017-06-13T14:25:57Z</time>
      </trkpt>
      <trkpt lat="49.40151" lon="1.39606">
        <ele>140</ele>
        <time>2017-06-13T14:25:57Z</time>
      </trkpt>
      <trkpt lat="49.4015" lon="1.39614">
        <ele>140</ele>
        <time>2017-06-13T14:25:57Z</time>
      </trkpt>
      <trkpt lat="49.4015" lon="1.39623">
        <ele>140</ele>
        <time>2017-06-13T14:26:13Z</time>
      </trkpt>
      <trkpt lat="49.4015" lon="1.39628">
        <ele>142</ele>
        <time>2017-06-13T14:26:13Z</time>
      </trkpt>
      <trkpt lat="49.40151" lon="1.39635">
        <ele>142</ele>
        <time>2017-06-13T14:26:13Z</time>
      </trkpt>
      <trkpt lat="49.40151" lon="1.39645">
        <ele>142</ele>
        <time>2017-06-13T14:26:13Z</time>
      </trkpt>
      <trkpt lat="49.40152" lon="1.39651">
        <ele>142</ele>
        <time>2017-06-13T14:26:29Z</time>
      </trkpt>
      <trkpt lat="49.40153" lon="1.39658">
        <ele>142</ele>
        <time>2017-06-13T14:26:29Z</time>
      </trkpt>
      <trkpt lat="49.40154" lon="1.39665">
        <ele>142</ele>
        <time>2017-06-13T14:26:29Z</time>
      </trkpt>
      <trkpt lat="49.40155" lon="1.39674">
        <ele>142</ele>
        <time>2017-06-13T14:26:29Z</time>
      </trkpt>
      <trkpt lat="49.40156" lon="1.3968">
        <ele>142</ele>
        <time>2017-06-13T14:26:44Z</time>
      </trkpt>
      <trkpt lat="49.40156" lon="1.39689">
        <ele>142</ele>
        <time>2017-06-13T14:26:44Z</time>
      </trkpt>
      <trkpt lat="49.40155" lon="1.39696">
        <ele>142</ele>
        <time>2017-06-13T14:26:44Z</time>
      </trkpt>
      <trkpt lat="49.40154" lon="1.39702">
        <ele>142</ele>
        <time>2017-06-13T14:26:44Z</time>
      </trkpt>
      <trkpt lat="49.40153" lon="1.39708">
        <ele>142</ele>
        <time>2017-06-13T14:27:01Z</time>
      </trkpt>
      <trkpt lat="49.40151" lon="1.39716">
        <ele>145</ele>
        <time>2017-06-13T14:27:01Z</time>
      </trkpt>
      <trkpt lat="49.40149" lon="1.39724">
        <ele>145</ele>
        <time>2017-06-13T14:27:01Z</time>
      </trkpt>
      <trkpt lat="49.40148" lon="1.39732">
        <ele>145</ele>
        <time>2017-06-13T14:27:01Z</time>
      </trkpt>
      <trkpt lat="49.40145" lon="1.3974">
        <ele>145</ele>
        <time>2017-06-13T14:27:17Z</time>
      </trkpt>
      <trkpt lat="49.40144" lon="1.39748">
        <ele>145</ele>
        <time>2017-06-13T14:27:17Z</time>
      </trkpt>
      <trkpt lat="49.40142" lon="1.39755">
        <ele>145</ele>
        <time>2017-06-13T14:27:17Z</time>
      </trkpt>
      <trkpt lat="49.40139" lon="1.39764">
        <ele>145</ele>
        <time>2017-06-13T14:27:17Z</time>
      </trkpt>
      <trkpt lat="49.40137" lon="1.39769">
        <ele>145</ele>
        <time>2017-06-13T14:27:32Z</time>
      </trkpt>
      <trkpt lat="49.40133" lon="1.39776">
        <ele>145</ele>
        <time>2017-06-13T14:27:32Z</time>
      </trkpt>
      <trkpt lat="49.40132" lon="1.39779">
        <ele>145</ele>
        <time>2017-06-13T14:27:32Z</time>
      </trkpt>
      <trkpt lat="49.40127" lon="1.39785">
        <ele>145</ele>
        <time>2017-06-13T14:27:32Z</time>
      </trkpt>
      <trkpt lat="49.40124" lon="1.39789">
        <ele>132</ele>
        <time>2017-06-13T14:27:48Z</time>
      </trkpt>
      <trkpt lat="49.4012" lon="1.39792">
        <ele>132</ele>
        <time>2017-06-13T14:27:48Z</time>
      </trkpt>
      <trkpt lat="49.40115" lon="1.39796">
        <ele>132</ele>
        <time>2017-06-13T14:27:48Z</time>
      </trkpt>
      <trkpt lat="49.40111" lon="1.39799">
        <ele>132</ele>
        <time>2017-06-13T14:27:48Z</time>
      </trkpt>
      <trkpt lat="49.40107" lon="1.39804">
        <ele>132</ele>
        <time>2017-06-13T14:28:05Z</time>
      </trkpt>
      <trkpt lat="49.40105" lon="1.39809">
        <ele>132</ele>
        <time>2017-06-13T14:28:05Z</time>
      </trkpt>
      <trkpt lat="49.40102" lon="1.39815">
        <ele>132</ele>
        <time>2017-06-13T14:28:05Z</time>
      </trkpt>
      <trkpt lat="49.40098" lon="1.39822">
        <ele>132</ele>
        <time>2017-06-13T14:28:05Z</time>
      </trkpt>
      <trkpt lat="49.40097" lon="1.39828">
        <ele>132</ele>
        <time>2017-06-13T14:28:21Z</time>
      </trkpt>
      <trkpt lat="49.40093" lon="1.39855">
        <ele>132</ele>
        <time>2017-06-13T14:28:21Z</time>
      </trkpt>
      <trkpt lat="49.40095" lon="1.3987">
        <ele>132</ele>
        <time>2017-06-13T14:28:21Z</time>
      </trkpt>
      <trkpt lat="49.40095" lon="1.39881">
        <ele>130</ele>
        <time>2017-06-13T14:28:21Z</time>
      </trkpt>
      <trkpt lat="49.40095" lon="1.3989">
        <ele>130</ele>
        <time>2017-06-13T14:28:37Z</time>
      </trkpt>
      <trkpt lat="49.40097" lon="1.39898">
        <ele>130</ele>
        <time>2017-06-13T14:28:37Z</time>
      </trkpt>
      <trkpt lat="49.40098" lon="1.39908">
        <ele>130</ele>
        <time>2017-06-13T14:28:37Z</time>
      </trkpt>
      <trkpt lat="49.40099" lon="1.39916">
        <ele>130</ele>
        <time>2017-06-13T14:28:37Z</time>
      </trkpt>
      <trkpt lat="49.40104" lon="1.39923">
        <ele>130</ele>
        <time>2017-06-13T14:28:53Z</time>
      </trkpt>
      <trkpt lat="49.40107" lon="1.39932">
        <ele>130</ele>
        <time>2017-06-13T14:28:53Z</time>
      </trkpt>
      <trkpt lat="49.40108" lon="1.39939">
        <ele>130</ele>
        <time>2017-06-13T14:28:53Z</time>
      </trkpt>
      <trkpt lat="49.40109" lon="1.39946">
        <ele>130</ele>
        <time>2017-06-13T14:28:53Z</time>
      </trkpt>
      <trkpt lat="49.40111" lon="1.39953">
        <ele>130</ele>
        <time>2017-06-13T14:29:08Z</time>
      </trkpt>
      <trkpt lat="49.40111" lon="1.3996">
        <ele>125</ele>
        <time>2017-06-13T14:29:08Z</time>
      </trkpt>
      <trkpt lat="49.40113" lon="1.3997">
        <ele>125</ele>
        <time>2017-06-13T14:29:08Z</time>
      </trkpt>
      <trkpt lat="49.40114" lon="1.39973">
        <ele>125</ele>
        <time>2017-06-13T14:29:08Z</time>
      </trkpt>
      <trkpt lat="49.40119" lon="1.39979">
        <ele>125</ele>
        <time>2017-06-13T14:29:25Z</time>
      </trkpt>
      <trkpt lat="49.40121" lon="1.39985">
        <ele>125</ele>
        <time>2017-06-13T14:29:25Z</time>
      </trkpt>
      <trkpt lat="49.40122" lon="1.39992">
        <ele>125</ele>
        <time>2017-06-13T14:29:25Z</time>
      </trkpt>
      <trkpt lat="49.40124" lon="1.39999">
        <ele>125</ele>
        <time>2017-06-13T14:29:25Z</time>
      </trkpt>
      <trkpt lat="49.40126" lon="1.40007">
        <ele>137</ele>
        <time>2017-06-13T14:29:41Z</time>
      </trkpt>
      <trkpt lat="49.40125" lon="1.4001">
        <ele>137</ele>
        <time>2017-06-13T14:29:41Z</time>
      </trkpt>
      <trkpt lat="49.40126" lon="1.40019">
        <ele>137</ele>
        <time>2017-06-13T14:29:41Z</time>
      </trkpt>
      <trkpt lat="49.40131" lon="1.4003">
        <ele>137</ele>
        <time>2017-06-13T14:29:41Z</time>
      </trkpt>
      <trkpt lat="49.40134" lon="1.4004">
        <ele>137</ele>
        <time>2017-06-13T14:29:58Z</time>
      </trkpt>
      <trkpt lat="49.40135" lon="1.40048">
        <ele>135</ele>
        <time>2017-06-13T14:29:58Z</time>
      </trkpt>
      <trkpt lat="49.40136" lon="1.40054">
        <ele>135</ele>
        <time>2017-06-13T14:29:58Z</time>
      </trkpt>
      <trkpt lat="49.40137" lon="1.40062">
        <ele>135</ele>
        <time>2017-06-13T14:29:58Z</time>
      </trkpt>
      <trkpt lat="49.40137" lon="1.40067">
        <ele>135</ele>
        <time>2017-06-13T14:30:12Z</time>
      </trkpt>
      <trkpt lat="49.40138" lon="1.40076">
        <ele>135</ele>
        <time>2017-06-13T14:30:12Z</time>
      </trkpt>
      <trkpt lat="49.40139" lon="1.40081">
        <ele>135</ele>
        <time>2017-06-13T14:30:12Z</time>
      </trkpt>
      <trkpt lat="49.40139" lon="1.40088">
        <ele>135</ele>
        <time>2017-06-13T14:30:12Z</time>
      </trkpt>
      <trkpt lat="49.40139" lon="1.40095">
        <ele>135</ele>
        <time>2017-06-13T14:30:29Z</time>
      </trkpt>
      <trkpt lat="49.4014" lon="1.40103">
        <ele>135</ele>
        <time>2017-06-13T14:30:29Z</time>
      </trkpt>
      <trkpt lat="49.40141" lon="1.40109">
        <ele>135</ele>
        <time>2017-06-13T14:30:29Z</time>
      </trkpt>
      <trkpt lat="49.40142" lon="1.40115">
        <ele>135</ele>
        <time>2017-06-13T14:30:29Z</time>
      </trkpt>
      <trkpt lat="49.40142" lon="1.40123">
        <ele>135</ele>
        <time>2017-06-13T14:30:44Z</time>
      </trkpt>
      <trkpt lat="49.40143" lon="1.4013">
        <ele>132</ele>
        <time>2017-06-13T14:30:44Z</time>
      </trkpt>
      <trkpt lat="49.40144" lon="1.40137">
        <ele>132</ele>
        <time>2017-06-13T14:30:44Z</time>
      </trkpt>
      <trkpt lat="49.40145" lon="1.40144">
        <ele>132</ele>
        <time>2017-06-13T14:30:44Z</time>
      </trkpt>
      <trkpt lat="49.40145" lon="1.40151">
        <ele>132</ele>
        <time>2017-06-13T14:31:01Z</time>
      </trkpt>
      <trkpt lat="49.40148" lon="1.40163">
        <ele>132</ele>
        <time>2017-06-13T14:31:01Z</time>
      </trkpt>
      <trkpt lat="49.40148" lon="1.4017">
        <ele>132</ele>
        <time>2017-06-13T14:31:01Z</time>
      </trkpt>
      <trkpt lat="49.40148" lon="1.40178">
        <ele>132</ele>
        <time>2017-06-13T14:31:01Z</time>
      </trkpt>
      <trkpt lat="49.40149" lon="1.40183">
        <ele>132</ele>
        <time>2017-06-13T14:31:17Z</time>
      </trkpt>
      <trkpt lat="49.4015" lon="1.40192">
        <ele>132</ele>
        <time>2017-06-13T14:31:17Z</time>
      </trkpt>
      <trkpt lat="49.40151" lon="1.40197">
        <ele>132</ele>
        <time>2017-06-13T14:31:17Z</time>
      </trkpt>
      <trkpt lat="49.40152" lon="1.40205">
        <ele>132</ele>
        <time>2017-06-13T14:31:17Z</time>
      </trkpt>
      <trkpt lat="49.40153" lon="1.40211">
        <ele>127</ele>
        <time>2017-06-13T14:31:32Z</time>
      </trkpt>
      <trkpt lat="49.40153" lon="1.40218">
        <ele>127</ele>
        <time>2017-06-13T14:31:32Z</time>
      </trkpt>
      <trkpt lat="49.40154" lon="1.40225">
        <ele>127</ele>
        <time>2017-06-13T14:31:32Z</time>
      </trkpt>
      <trkpt lat="49.40155" lon="1.40232">
        <ele>127</ele>
        <time>2017-06-13T14:31:32Z</time>
      </trkpt>
      <trkpt lat="49.40155" lon="1.40241">
        <ele>127</ele>
        <time>2017-06-13T14:31:49Z</time>
      </trkpt>
      <trkpt lat="49.40156" lon="1.40247">
        <ele>127</ele>
        <time>2017-06-13T14:31:49Z</time>
      </trkpt>
      <trkpt lat="49.40157" lon="1.40254">
        <ele>127</ele>
        <time>2017-06-13T14:31:49Z</time>
      </trkpt>
      <trkpt lat="49.40158" lon="1.4026">
        <ele>127</ele>
        <time>2017-06-13T14:31:49Z</time>
      </trkpt>
      <trkpt lat="49.4016" lon="1.40267">
        <ele>127</ele>
        <time>2017-06-13T14:32:05Z</time>
      </trkpt>
      <trkpt lat="49.40161" lon="1.40278">
        <ele>127</ele>
        <time>2017-06-13T14:32:05Z</time>
      </trkpt>
      <trkpt lat="49.40164" lon="1.40285">
        <ele>127</ele>
        <time>2017-06-13T14:32:05Z</time>
      </trkpt>
      <trkpt lat="49.40164" lon="1.40295">
        <ele>123</ele>
        <time>2017-06-13T14:32:05Z</time>
      </trkpt>
      <trkpt lat="49.40165" lon="1.40303">
        <ele>123</ele>
        <time>2017-06-13T14:32:20Z</time>
      </trkpt>
      <trkpt lat="49.40166" lon="1.4031">
        <ele>123</ele>
        <time>2017-06-13T14:32:20Z</time>
      </trkpt>
      <trkpt lat="49.40167" lon="1.40319">
        <ele>123</ele>
        <time>2017-06-13T14:32:20Z</time>
      </trkpt>
      <trkpt lat="49.40168" lon="1.40324">
        <ele>123</ele>
        <time>2017-06-13T14:32:20Z</time>
      </trkpt>
      <trkpt lat="49.40169" lon="1.40331">
        <ele>123</ele>
        <time>2017-06-13T14:32:37Z</time>
      </trkpt>
      <trkpt lat="49.40169" lon="1.40337">
        <ele>123</ele>
        <time>2017-06-13T14:32:37Z</time>
      </trkpt>
      <trkpt lat="49.40171" lon="1.40347">
        <ele>123</ele>
        <time>2017-06-13T14:32:37Z</time>
      </trkpt>
      <trkpt lat="49.40171" lon="1.40353">
        <ele>123</ele>
        <time>2017-06-13T14:32:37Z</time>
      </trkpt>
      <trkpt lat="49.40173" lon="1.40361">
        <ele>123</ele>
        <time>2017-06-13T14:32:52Z</time>
      </trkpt>
      <trkpt lat="49.40172" lon="1.40366">
        <ele>123</ele>
        <time>2017-06-13T14:32:52Z</time>
      </trkpt>
      <trkpt lat="49.40172" lon="1.40374">
        <ele>123</ele>
        <time>2017-06-13T14:32:52Z</time>
      </trkpt>
      <trkpt lat="49.40176" lon="1.40381">
        <ele>118</ele>
        <time>2017-06-13T14:32:52Z</time>
      </trkpt>
      <trkpt lat="49.40178" lon="1.40387">
        <ele>118</ele>
        <time>2017-06-13T14:33:09Z</time>
      </trkpt>
      <trkpt lat="49.4018" lon="1.40394">
        <ele>118</ele>
        <time>2017-06-13T14:33:09Z</time>
      </trkpt>
      <trkpt lat="49.40182" lon="1.40403">
        <ele>118</ele>
        <time>2017-06-13T14:33:09Z</time>
      </trkpt>
      <trkpt lat="49.40183" lon="1.40408">
        <ele>118</ele>
        <time>2017-06-13T14:33:09Z</time>
      </trkpt>
      <trkpt lat="49.40185" lon="1.40415">
        <ele>118</ele>
        <time>2017-06-13T14:33:26Z</time>
      </trkpt>
      <trkpt lat="49.40187" lon="1.40423">
        <ele>118</ele>
        <time>2017-06-13T14:33:26Z</time>
      </trkpt>
      <trkpt lat="49.40188" lon="1.40427">
        <ele>118</ele>
        <time>2017-06-13T14:33:26Z</time>
      </trkpt>
      <trkpt lat="49.40189" lon="1.40438">
        <ele>118</ele>
        <time>2017-06-13T14:33:26Z</time>
      </trkpt>
      <trkpt lat="49.4019" lon="1.40443">
        <ele>118</ele>
        <time>2017-06-13T14:33:40Z</time>
      </trkpt>
      <trkpt lat="49.40192" lon="1.4045">
        <ele>118</ele>
        <time>2017-06-13T14:33:40Z</time>
      </trkpt>
      <trkpt lat="49.40194" lon="1.40457">
        <ele>118</ele>
        <time>2017-06-13T14:33:40Z</time>
      </trkpt>
      <trkpt lat="49.40195" lon="1.40463">
        <ele>111</ele>
        <time>2017-06-13T14:33:40Z</time>
      </trkpt>
      <trkpt lat="49.40196" lon="1.40471">
        <ele>111</ele>
        <time>2017-06-13T14:33:57Z</time>
      </trkpt>
      <trkpt lat="49.40199" lon="1.40479">
        <ele>111</ele>
        <time>2017-06-13T14:33:57Z</time>
      </trkpt>
      <trkpt lat="49.402" lon="1.40484">
        <ele>111</ele>
        <time>2017-06-13T14:33:57Z</time>
      </trkpt>
      <trkpt lat="49.40203" lon="1.4049">
        <ele>111</ele>
        <time>2017-06-13T14:33:57Z</time>
      </trkpt>
      <trkpt lat="49.40205" lon="1.40496">
        <ele>111</ele>
        <time>2017-06-13T14:34:13Z</time>
      </trkpt>
      <trkpt lat="49.40208" lon="1.40502">
        <ele>111</ele>
        <time>2017-06-13T14:34:13Z</time>
      </trkpt>
      <trkpt lat="49.40211" lon="1.40508">
        <ele>125</ele>
        <time>2017-06-13T14:34:13Z</time>
      </trkpt>
      <trkpt lat="49.40214" lon="1.40515">
        <ele>125</ele>
        <time>2017-06-13T14:34:13Z</time>
      </trkpt>
      <trkpt lat="49.40217" lon="1.40521">
        <ele>125</ele>
        <time>2017-06-13T14:34:28Z</time>
      </trkpt>
      <trkpt lat="49.4022" lon="1.40527">
        <ele>125</ele>
        <time>2017-06-13T14:34:28Z</time>
      </trkpt>
      <trkpt lat="49.40223" lon="1.40534">
        <ele>125</ele>
        <time>2017-06-13T14:34:28Z</time>
      </trkpt>
      <trkpt lat="49.40225" lon="1.40541">
        <ele>125</ele>
        <time>2017-06-13T14:34:28Z</time>
      </trkpt>
      <trkpt lat="49.40227" lon="1.40549">
        <ele>114</ele>
        <time>2017-06-13T14:34:44Z</time>
      </trkpt>
      <trkpt lat="49.40229" lon="1.40556">
        <ele>114</ele>
        <time>2017-06-13T14:34:44Z</time>
      </trkpt>
      <trkpt lat="49.40231" lon="1.40565">
        <ele>114</ele>
        <time>2017-06-13T14:34:44Z</time>
      </trkpt>
      <trkpt lat="49.40232" lon="1.40569">
        <ele>114</ele>
        <time>2017-06-13T14:34:44Z</time>
      </trkpt>
      <trkpt lat="49.40234" lon="1.40576">
        <ele>114</ele>
        <time>2017-06-13T14:35:01Z</time>
      </trkpt>
      <trkpt lat="49.40235" lon="1.40583">
        <ele>114</ele>
        <time>2017-06-13T14:35:01Z</time>
      </trkpt>
      <trkpt lat="49.40237" lon="1.4059">
        <ele>114</ele>
        <time>2017-06-13T14:35:01Z</time>
      </trkpt>
      <trkpt lat="49.40238" lon="1.40599">
        <ele>114</ele>
        <time>2017-06-13T14:35:01Z</time>
      </trkpt>
      <trkpt lat="49.4024" lon="1.40606">
        <ele>114</ele>
        <time>2017-06-13T14:35:25Z</time>
      </trkpt>
      <trkpt lat="49.40245" lon="1.40625">
        <ele>114</ele>
        <time>2017-06-13T14:35:25Z</time>
      </trkpt>
      <trkpt lat="49.40246" lon="1.40634">
        <ele>107</ele>
        <time>2017-06-13T14:35:25Z</time>
      </trkpt>
      <trkpt lat="49.40246" lon="1.4064">
        <ele>107</ele>
        <time>2017-06-13T14:35:25Z</time>
      </trkpt>
      <trkpt lat="49.40248" lon="1.40649">
        <ele>107</ele>
        <time>2017-06-13T14:36:33Z</time>
      </trkpt>
      <trkpt lat="49.40249" lon="1.40654">
        <ele>107</ele>
        <time>2017-06-13T14:36:33Z</time>
      </trkpt>
      <trkpt lat="49.40279" lon="1.4076">
        <ele>111</ele>
        <time>2017-06-13T14:36:33Z</time>
      </trkpt>
      <trkpt lat="49.40285" lon="1.40765">
        <ele>111</ele>
        <time>2017-06-13T14:36:33Z</time>
      </trkpt>
      <trkpt lat="49.4029" lon="1.40764">
        <ele>111</ele>
        <time>2017-06-13T14:36:48Z</time>
      </trkpt>
      <trkpt lat="49.40295" lon="1.40763">
        <ele>112</ele>
        <time>2017-06-13T14:36:48Z</time>
      </trkpt>
      <trkpt lat="49.40298" lon="1.40763">
        <ele>112</ele>
        <time>2017-06-13T14:36:48Z</time>
      </trkpt>
      <trkpt lat="49.40302" lon="1.40764">
        <ele>112</ele>
        <time>2017-06-13T14:36:48Z</time>
      </trkpt>
      <trkpt lat="49.40311" lon="1.40762">
        <ele>112</ele>
        <time>2017-06-13T14:37:05Z</time>
      </trkpt>
      <trkpt lat="49.40316" lon="1.4076">
        <ele>112</ele>
        <time>2017-06-13T14:37:05Z</time>
      </trkpt>
      <trkpt lat="49.40321" lon="1.40758">
        <ele>112</ele>
        <time>2017-06-13T14:37:05Z</time>
      </trkpt>
      <trkpt lat="49.40326" lon="1.40756">
        <ele>112</ele>
        <time>2017-06-13T14:37:05Z</time>
      </trkpt>
      <trkpt lat="49.40331" lon="1.40772">
        <ele>112</ele>
        <time>2017-06-13T14:44:08Z</time>
      </trkpt>
      <trkpt lat="49.40333" lon="1.40771">
        <ele>112</ele>
        <time>2017-06-13T14:44:08Z</time>
      </trkpt>
      <trkpt lat="49.40338" lon="1.40769">
        <ele>112</ele>
        <time>2017-06-13T14:44:08Z</time>
      </trkpt>
      <trkpt lat="49.40342" lon="1.40767">
        <ele>112</ele>
        <time>2017-06-13T14:44:08Z</time>
      </trkpt>
      <trkpt lat="49.40347" lon="1.40765">
        <ele>112</ele>
        <time>2017-06-13T14:44:08Z</time>
      </trkpt>
      <trkpt lat="49.40353" lon="1.40764">
        <ele>112</ele>
        <time>2017-06-13T14:44:25Z</time>
      </trkpt>
      <trkpt lat="49.40356" lon="1.40762">
        <ele>112</ele>
        <time>2017-06-13T14:44:25Z</time>
      </trkpt>
      <trkpt lat="49.40361" lon="1.4076">
        <ele>112</ele>
        <time>2017-06-13T14:44:25Z</time>
      </trkpt>
      <trkpt lat="49.40366" lon="1.40757">
        <ele>112</ele>
        <time>2017-06-13T14:44:25Z</time>
      </trkpt>
      <trkpt lat="49.4037" lon="1.40754">
        <ele>112</ele>
        <time>2017-06-13T14:44:41Z</time>
      </trkpt>
      <trkpt lat="49.40375" lon="1.40751">
        <ele>112</ele>
        <time>2017-06-13T14:44:41Z</time>
      </trkpt>
      <trkpt lat="49.40379" lon="1.40748">
        <ele>116</ele>
        <time>2017-06-13T14:44:41Z</time>
      </trkpt>
      <trkpt lat="49.40385" lon="1.40745">
        <ele>116</ele>
        <time>2017-06-13T14:44:41Z</time>
      </trkpt>
      <trkpt lat="49.40388" lon="1.40743">
        <ele>116</ele>
        <time>2017-06-13T14:44:56Z</time>
      </trkpt>
      <trkpt lat="49.40393" lon="1.40741">
        <ele>116</ele>
        <time>2017-06-13T14:44:56Z</time>
      </trkpt>
      <trkpt lat="49.40398" lon="1.40738">
        <ele>116</ele>
        <time>2017-06-13T14:44:56Z</time>
      </trkpt>
      <trkpt lat="49.40403" lon="1.40736">
        <ele>116</ele>
        <time>2017-06-13T14:44:56Z</time>
      </trkpt>
      <trkpt lat="49.40407" lon="1.40734">
        <ele>116</ele>
        <time>2017-06-13T14:45:12Z</time>
      </trkpt>
      <trkpt lat="49.40412" lon="1.40732">
        <ele>116</ele>
        <time>2017-06-13T14:45:12Z</time>
      </trkpt>
      <trkpt lat="49.40418" lon="1.40729">
        <ele>116</ele>
        <time>2017-06-13T14:45:12Z</time>
      </trkpt>
      <trkpt lat="49.40421" lon="1.40727">
        <ele>116</ele>
        <time>2017-06-13T14:45:12Z</time>
      </trkpt>
      <trkpt lat="49.40425" lon="1.40725">
        <ele>116</ele>
        <time>2017-06-13T14:45:29Z</time>
      </trkpt>
      <trkpt lat="49.4043" lon="1.40722">
        <ele>116</ele>
        <time>2017-06-13T14:45:29Z</time>
      </trkpt>
      <trkpt lat="49.40436" lon="1.40718">
        <ele>116</ele>
        <time>2017-06-13T14:45:29Z</time>
      </trkpt>
      <trkpt lat="49.40441" lon="1.40715">
        <ele>116</ele>
        <time>2017-06-13T14:45:29Z</time>
      </trkpt>
      <trkpt lat="49.40445" lon="1.40713">
        <ele>116</ele>
        <time>2017-06-13T14:45:48Z</time>
      </trkpt>
      <trkpt lat="49.40449" lon="1.40711">
        <ele>116</ele>
        <time>2017-06-13T14:45:48Z</time>
      </trkpt>
      <trkpt lat="49.40453" lon="1.40708">
        <ele>120</ele>
        <time>2017-06-13T14:45:48Z</time>
      </trkpt>
      <trkpt lat="49.40462" lon="1.40707">
        <ele>122</ele>
        <time>2017-06-13T14:45:48Z</time>
      </trkpt>
      <trkpt lat="49.4047" lon="1.40711">
        <ele>123</ele>
        <time>2017-06-13T14:46:05Z</time>
      </trkpt>
      <trkpt lat="49.40476" lon="1.4071">
        <ele>123</ele>
        <time>2017-06-13T14:46:05Z</time>
      </trkpt>
      <trkpt lat="49.40481" lon="1.40707">
        <ele>122</ele>
        <time>2017-06-13T14:46:05Z</time>
      </trkpt>
      <trkpt lat="49.40486" lon="1.40704">
        <ele>122</ele>
        <time>2017-06-13T14:46:05Z</time>
      </trkpt>
      <trkpt lat="49.4049" lon="1.40703">
        <ele>122</ele>
        <time>2017-06-13T14:46:21Z</time>
      </trkpt>
      <trkpt lat="49.40495" lon="1.40701">
        <ele>122</ele>
        <time>2017-06-13T14:46:21Z</time>
      </trkpt>
      <trkpt lat="49.40499" lon="1.40699">
        <ele>122</ele>
        <time>2017-06-13T14:46:21Z</time>
      </trkpt>
      <trkpt lat="49.40504" lon="1.40697">
        <ele>122</ele>
        <time>2017-06-13T14:46:21Z</time>
      </trkpt>
      <trkpt lat="49.40509" lon="1.40695">
        <ele>122</ele>
        <time>2017-06-13T14:46:36Z</time>
      </trkpt>
      <trkpt lat="49.40515" lon="1.40694">
        <ele>122</ele>
        <time>2017-06-13T14:46:36Z</time>
      </trkpt>
      <trkpt lat="49.40518" lon="1.40693">
        <ele>122</ele>
        <time>2017-06-13T14:46:36Z</time>
      </trkpt>
      <trkpt lat="49.40523" lon="1.40692">
        <ele>122</ele>
        <time>2017-06-13T14:46:36Z</time>
      </trkpt>
      <trkpt lat="49.40528" lon="1.4069">
        <ele>122</ele>
        <time>2017-06-13T14:46:53Z</time>
      </trkpt>
      <trkpt lat="49.40533" lon="1.40689">
        <ele>122</ele>
        <time>2017-06-13T14:46:53Z</time>
      </trkpt>
      <trkpt lat="49.40536" lon="1.40687">
        <ele>122</ele>
        <time>2017-06-13T14:46:53Z</time>
      </trkpt>
      <trkpt lat="49.40543" lon="1.40685">
        <ele>122</ele>
        <time>2017-06-13T14:46:53Z</time>
      </trkpt>
      <trkpt lat="49.40547" lon="1.40683">
        <ele>122</ele>
        <time>2017-06-13T14:47:08Z</time>
      </trkpt>
      <trkpt lat="49.40553" lon="1.40679">
        <ele>122</ele>
        <time>2017-06-13T14:47:08Z</time>
      </trkpt>
      <trkpt lat="49.40556" lon="1.4068">
        <ele>122</ele>
        <time>2017-06-13T14:47:08Z</time>
      </trkpt>
      <trkpt lat="49.40561" lon="1.40682">
        <ele>122</ele>
        <time>2017-06-13T14:47:08Z</time>
      </trkpt>
      <trkpt lat="49.40567" lon="1.40682">
        <ele>122</ele>
        <time>2017-06-13T14:47:24Z</time>
      </trkpt>
      <trkpt lat="49.40571" lon="1.40682">
        <ele>122</ele>
        <time>2017-06-13T14:47:24Z</time>
      </trkpt>
      <trkpt lat="49.40576" lon="1.40681">
        <ele>122</ele>
        <time>2017-06-13T14:47:24Z</time>
      </trkpt>
      <trkpt lat="49.40582" lon="1.4068">
        <ele>122</ele>
        <time>2017-06-13T14:47:24Z</time>
      </trkpt>
      <trkpt lat="49.40587" lon="1.40679">
        <ele>122</ele>
        <time>2017-06-13T14:47:41Z</time>
      </trkpt>
      <trkpt lat="49.40591" lon="1.40678">
        <ele>122</ele>
        <time>2017-06-13T14:47:41Z</time>
      </trkpt>
      <trkpt lat="49.40597" lon="1.40677">
        <ele>122</ele>
        <time>2017-06-13T14:47:41Z</time>
      </trkpt>
      <trkpt lat="49.40601" lon="1.40676">
        <ele>122</ele>
        <time>2017-06-13T14:47:41Z</time>
      </trkpt>
      <trkpt lat="49.40607" lon="1.40675">
        <ele>122</ele>
        <time>2017-06-13T14:47:57Z</time>
      </trkpt>
      <trkpt lat="49.40611" lon="1.40675">
        <ele>122</ele>
        <time>2017-06-13T14:47:57Z</time>
      </trkpt>
      <trkpt lat="49.40615" lon="1.40673">
        <ele>122</ele>
        <time>2017-06-13T14:47:57Z</time>
      </trkpt>
      <trkpt lat="49.40632" lon="1.40686">
        <ele>125</ele>
        <time>2017-06-13T14:47:57Z</time>
      </trkpt>
      <trkpt lat="49.40638" lon="1.40693">
        <ele>125</ele>
        <time>2017-06-13T14:48:13Z</time>
      </trkpt>
      <trkpt lat="49.4064" lon="1.407">
        <ele>125</ele>
        <time>2017-06-13T14:48:13Z</time>
      </trkpt>
      <trkpt lat="49.40643" lon="1.40709">
        <ele>125</ele>
        <time>2017-06-13T14:48:13Z</time>
      </trkpt>
      <trkpt lat="49.40645" lon="1.40714">
        <ele>125</ele>
        <time>2017-06-13T14:48:13Z</time>
      </trkpt>
      <trkpt lat="49.40647" lon="1.40721">
        <ele>125</ele>
        <time>2017-06-13T14:48:29Z</time>
      </trkpt>
      <trkpt lat="49.40649" lon="1.40728">
        <ele>125</ele>
        <time>2017-06-13T14:48:29Z</time>
      </trkpt>
      <trkpt lat="49.4065" lon="1.40735">
        <ele>125</ele>
        <time>2017-06-13T14:48:29Z</time>
      </trkpt>
      <trkpt lat="49.40648" lon="1.40746">
        <ele>125</ele>
        <time>2017-06-13T14:48:29Z</time>
      </trkpt>
      <trkpt lat="49.40651" lon="1.40752">
        <ele>125</ele>
        <time>2017-06-13T14:48:44Z</time>
      </trkpt>
      <trkpt lat="49.40652" lon="1.40759">
        <ele>125</ele>
        <time>2017-06-13T14:48:44Z</time>
      </trkpt>
      <trkpt lat="49.40652" lon="1.40766">
        <ele>125</ele>
        <time>2017-06-13T14:48:44Z</time>
      </trkpt>
      <trkpt lat="49.4065" lon="1.40773">
        <ele>125</ele>
        <time>2017-06-13T14:48:44Z</time>
      </trkpt>
      <trkpt lat="49.40648" lon="1.40779">
        <ele>125</ele>
        <time>2017-06-13T14:49:01Z</time>
      </trkpt>
      <trkpt lat="49.40645" lon="1.40786">
        <ele>125</ele>
        <time>2017-06-13T14:49:01Z</time>
      </trkpt>
      <trkpt lat="49.40643" lon="1.40792">
        <ele>131</ele>
        <time>2017-06-13T14:49:01Z</time>
      </trkpt>
      <trkpt lat="49.4064" lon="1.40799">
        <ele>131</ele>
        <time>2017-06-13T14:49:01Z</time>
      </trkpt>
      <trkpt lat="49.40638" lon="1.40805">
        <ele>131</ele>
        <time>2017-06-13T14:49:17Z</time>
      </trkpt>
      <trkpt lat="49.40636" lon="1.40811">
        <ele>131</ele>
        <time>2017-06-13T14:49:18Z</time>
      </trkpt>
      <trkpt lat="49.40633" lon="1.40817">
        <ele>131</ele>
        <time>2017-06-13T14:49:18Z</time>
      </trkpt>
      <trkpt lat="49.40629" lon="1.40824">
        <ele>131</ele>
        <time>2017-06-13T14:49:18Z</time>
      </trkpt>
      <trkpt lat="49.40626" lon="1.40828">
        <ele>131</ele>
        <time>2017-06-13T14:49:33Z</time>
      </trkpt>
      <trkpt lat="49.40623" lon="1.40833">
        <ele>131</ele>
        <time>2017-06-13T14:49:33Z</time>
      </trkpt>
      <trkpt lat="49.40619" lon="1.40838">
        <ele>131</ele>
        <time>2017-06-13T14:49:33Z</time>
      </trkpt>
      <trkpt lat="49.40617" lon="1.40844">
        <ele>131</ele>
        <time>2017-06-13T14:49:33Z</time>
      </trkpt>
      <trkpt lat="49.40614" lon="1.40849">
        <ele>131</ele>
        <time>2017-06-13T14:49:49Z</time>
      </trkpt>
      <trkpt lat="49.40611" lon="1.40855">
        <ele>131</ele>
        <time>2017-06-13T14:49:49Z</time>
      </trkpt>
      <trkpt lat="49.40608" lon="1.4086">
        <ele>131</ele>
        <time>2017-06-13T14:49:49Z</time>
      </trkpt>
      <trkpt lat="49.40604" lon="1.40865">
        <ele>131</ele>
        <time>2017-06-13T14:49:49Z</time>
      </trkpt>
      <trkpt lat="49.40601" lon="1.4087">
        <ele>131</ele>
        <time>2017-06-13T14:50:05Z</time>
      </trkpt>
      <trkpt lat="49.40597" lon="1.40874">
        <ele>131</ele>
        <time>2017-06-13T14:50:05Z</time>
      </trkpt>
      <trkpt lat="49.40593" lon="1.40878">
        <ele>134</ele>
        <time>2017-06-13T14:50:05Z</time>
      </trkpt>
      <trkpt lat="49.4059" lon="1.40883">
        <ele>134</ele>
        <time>2017-06-13T14:50:05Z</time>
      </trkpt>
      <trkpt lat="49.40586" lon="1.40888">
        <ele>134</ele>
        <time>2017-06-13T14:50:21Z</time>
      </trkpt>
      <trkpt lat="49.40583" lon="1.40893">
        <ele>134</ele>
        <time>2017-06-13T14:50:21Z</time>
      </trkpt>
      <trkpt lat="49.40579" lon="1.40897">
        <ele>134</ele>
        <time>2017-06-13T14:50:21Z</time>
      </trkpt>
      <trkpt lat="49.40576" lon="1.40901">
        <ele>134</ele>
        <time>2017-06-13T14:50:21Z</time>
      </trkpt>
      <trkpt lat="49.40571" lon="1.40904">
        <ele>134</ele>
        <time>2017-06-13T14:50:37Z</time>
      </trkpt>
      <trkpt lat="49.40566" lon="1.40906">
        <ele>134</ele>
        <time>2017-06-13T14:50:37Z</time>
      </trkpt>
      <trkpt lat="49.40562" lon="1.40907">
        <ele>134</ele>
        <time>2017-06-13T14:50:37Z</time>
      </trkpt>
      <trkpt lat="49.40558" lon="1.40909">
        <ele>134</ele>
        <time>2017-06-13T14:50:37Z</time>
      </trkpt>
      <trkpt lat="49.40553" lon="1.40912">
        <ele>134</ele>
        <time>2017-06-13T14:50:52Z</time>
      </trkpt>
      <trkpt lat="49.40549" lon="1.40914">
        <ele>134</ele>
        <time>2017-06-13T14:50:52Z</time>
      </trkpt>
      <trkpt lat="49.40544" lon="1.40915">
        <ele>134</ele>
        <time>2017-06-13T14:50:52Z</time>
      </trkpt>
      <trkpt lat="49.4054" lon="1.40919">
        <ele>135</ele>
        <time>2017-06-13T14:50:52Z</time>
      </trkpt>
      <trkpt lat="49.40537" lon="1.40924">
        <ele>135</ele>
        <time>2017-06-13T14:51:08Z</time>
      </trkpt>
      <trkpt lat="49.40535" lon="1.40928">
        <ele>135</ele>
        <time>2017-06-13T14:51:08Z</time>
      </trkpt>
      <trkpt lat="49.40532" lon="1.40936">
        <ele>135</ele>
        <time>2017-06-13T14:51:08Z</time>
      </trkpt>
      <trkpt lat="49.4053" lon="1.4094">
        <ele>135</ele>
        <time>2017-06-13T14:51:08Z</time>
      </trkpt>
      <trkpt lat="49.40527" lon="1.40945">
        <ele>135</ele>
        <time>2017-06-13T14:51:25Z</time>
      </trkpt>
      <trkpt lat="49.40524" lon="1.4095">
        <ele>135</ele>
        <time>2017-06-13T14:51:25Z</time>
      </trkpt>
      <trkpt lat="49.4052" lon="1.40955">
        <ele>135</ele>
        <time>2017-06-13T14:51:25Z</time>
      </trkpt>
      <trkpt lat="49.40517" lon="1.4096">
        <ele>137</ele>
        <time>2017-06-13T14:51:25Z</time>
      </trkpt>
      <trkpt lat="49.40514" lon="1.40964">
        <ele>137</ele>
        <time>2017-06-13T14:51:41Z</time>
      </trkpt>
      <trkpt lat="49.4051" lon="1.4097">
        <ele>137</ele>
        <time>2017-06-13T14:51:41Z</time>
      </trkpt>
      <trkpt lat="49.40507" lon="1.40973">
        <ele>137</ele>
        <time>2017-06-13T14:51:41Z</time>
      </trkpt>
      <trkpt lat="49.40505" lon="1.40978">
        <ele>137</ele>
        <time>2017-06-13T14:51:41Z</time>
      </trkpt>
      <trkpt lat="49.40502" lon="1.40986">
        <ele>137</ele>
        <time>2017-06-13T14:51:57Z</time>
      </trkpt>
      <trkpt lat="49.40501" lon="1.4099">
        <ele>137</ele>
        <time>2017-06-13T14:51:57Z</time>
      </trkpt>
      <trkpt lat="49.40499" lon="1.40996">
        <ele>137</ele>
        <time>2017-06-13T14:51:57Z</time>
      </trkpt>
      <trkpt lat="49.40498" lon="1.41003">
        <ele>137</ele>
        <time>2017-06-13T14:51:57Z</time>
      </trkpt>
      <trkpt lat="49.40496" lon="1.41008">
        <ele>137</ele>
        <time>2017-06-13T14:52:13Z</time>
      </trkpt>
      <trkpt lat="49.40493" lon="1.41014">
        <ele>137</ele>
        <time>2017-06-13T14:52:13Z</time>
      </trkpt>
      <trkpt lat="49.40491" lon="1.4102">
        <ele>137</ele>
        <time>2017-06-13T14:52:13Z</time>
      </trkpt>
      <trkpt lat="49.40488" lon="1.41025">
        <ele>137</ele>
        <time>2017-06-13T14:52:13Z</time>
      </trkpt>
      <trkpt lat="49.40484" lon="1.41029">
        <ele>137</ele>
        <time>2017-06-13T14:52:29Z</time>
      </trkpt>
      <trkpt lat="49.40481" lon="1.41034">
        <ele>137</ele>
        <time>2017-06-13T14:52:29Z</time>
      </trkpt>
      <trkpt lat="49.40477" lon="1.4104">
        <ele>137</ele>
        <time>2017-06-13T14:52:29Z</time>
      </trkpt>
      <trkpt lat="49.40474" lon="1.41044">
        <ele>139</ele>
        <time>2017-06-13T14:52:29Z</time>
      </trkpt>
      <trkpt lat="49.40471" lon="1.41048">
        <ele>139</ele>
        <time>2017-06-13T14:52:44Z</time>
      </trkpt>
      <trkpt lat="49.40467" lon="1.41053">
        <ele>139</ele>
        <time>2017-06-13T14:52:44Z</time>
      </trkpt>
      <trkpt lat="49.40463" lon="1.41059">
        <ele>139</ele>
        <time>2017-06-13T14:52:44Z</time>
      </trkpt>
      <trkpt lat="49.4046" lon="1.41062">
        <ele>139</ele>
        <time>2017-06-13T14:52:44Z</time>
      </trkpt>
      <trkpt lat="49.40455" lon="1.41066">
        <ele>136</ele>
        <time>2017-06-13T14:53:00Z</time>
      </trkpt>
      <trkpt lat="49.40452" lon="1.4107">
        <ele>136</ele>
        <time>2017-06-13T14:53:00Z</time>
      </trkpt>
      <trkpt lat="49.40449" lon="1.41074">
        <ele>136</ele>
        <time>2017-06-13T14:53:00Z</time>
      </trkpt>
      <trkpt lat="49.40445" lon="1.41079">
        <ele>136</ele>
        <time>2017-06-13T14:53:00Z</time>
      </trkpt>
      <trkpt lat="49.40442" lon="1.41086">
        <ele>136</ele>
        <time>2017-06-13T14:53:17Z</time>
      </trkpt>
      <trkpt lat="49.4044" lon="1.4109">
        <ele>136</ele>
        <time>2017-06-13T14:53:17Z</time>
      </trkpt>
      <trkpt lat="49.40436" lon="1.41097">
        <ele>136</ele>
        <time>2017-06-13T14:53:17Z</time>
      </trkpt>
      <trkpt lat="49.40434" lon="1.41102">
        <ele>136</ele>
        <time>2017-06-13T14:53:17Z</time>
      </trkpt>
      <trkpt lat="49.40431" lon="1.41107">
        <ele>136</ele>
        <time>2017-06-13T14:53:34Z</time>
      </trkpt>
      <trkpt lat="49.40427" lon="1.41112">
        <ele>136</ele>
        <time>2017-06-13T14:53:34Z</time>
      </trkpt>
      <trkpt lat="49.40424" lon="1.41115">
        <ele>136</ele>
        <time>2017-06-13T14:53:34Z</time>
      </trkpt>
      <trkpt lat="49.40421" lon="1.41122">
        <ele>136</ele>
        <time>2017-06-13T14:53:34Z</time>
      </trkpt>
      <trkpt lat="49.40418" lon="1.41126">
        <ele>140</ele>
        <time>2017-06-13T14:53:48Z</time>
      </trkpt>
      <trkpt lat="49.40415" lon="1.41131">
        <ele>140</ele>
        <time>2017-06-13T14:53:48Z</time>
      </trkpt>
      <trkpt lat="49.40411" lon="1.41137">
        <ele>140</ele>
        <time>2017-06-13T14:53:48Z</time>
      </trkpt>
      <trkpt lat="49.40407" lon="1.41138">
        <ele>140</ele>
        <time>2017-06-13T14:53:48Z</time>
      </trkpt>
      <trkpt lat="49.40404" lon="1.41143">
        <ele>140</ele>
        <time>2017-06-13T14:54:04Z</time>
      </trkpt>
      <trkpt lat="49.40401" lon="1.41149">
        <ele>140</ele>
        <time>2017-06-13T14:54:04Z</time>
      </trkpt>
      <trkpt lat="49.40398" lon="1.41152">
        <ele>140</ele>
        <time>2017-06-13T14:54:04Z</time>
      </trkpt>
      <trkpt lat="49.40396" lon="1.41157">
        <ele>140</ele>
        <time>2017-06-13T14:54:04Z</time>
      </trkpt>
      <trkpt lat="49.40394" lon="1.41164">
        <ele>140</ele>
        <time>2017-06-13T14:54:20Z</time>
      </trkpt>
      <trkpt lat="49.40394" lon="1.41168">
        <ele>140</ele>
        <time>2017-06-13T14:54:20Z</time>
      </trkpt>
      <trkpt lat="49.40394" lon="1.41176">
        <ele>140</ele>
        <time>2017-06-13T14:54:20Z</time>
      </trkpt>
      <trkpt lat="49.40394" lon="1.41179">
        <ele>140</ele>
        <time>2017-06-13T14:54:20Z</time>
      </trkpt>
      <trkpt lat="49.40393" lon="1.41184">
        <ele>140</ele>
        <time>2017-06-13T14:54:36Z</time>
      </trkpt>
      <trkpt lat="49.40393" lon="1.41191">
        <ele>140</ele>
        <time>2017-06-13T14:54:36Z</time>
      </trkpt>
      <trkpt lat="49.40393" lon="1.41194">
        <ele>140</ele>
        <time>2017-06-13T14:54:36Z</time>
      </trkpt>
      <trkpt lat="49.40395" lon="1.41199">
        <ele>140</ele>
        <time>2017-06-13T14:54:36Z</time>
      </trkpt>
      <trkpt lat="49.40396" lon="1.41204">
        <ele>140</ele>
        <time>2017-06-13T14:54:53Z</time>
      </trkpt>
      <trkpt lat="49.40398" lon="1.4121">
        <ele>144</ele>
        <time>2017-06-13T14:54:53Z</time>
      </trkpt>
      <trkpt lat="49.40399" lon="1.41214">
        <ele>144</ele>
        <time>2017-06-13T14:54:53Z</time>
      </trkpt>
      <trkpt lat="49.404" lon="1.41222">
        <ele>144</ele>
        <time>2017-06-13T14:54:53Z</time>
      </trkpt>
      <trkpt lat="49.40402" lon="1.41228">
        <ele>144</ele>
        <time>2017-06-13T14:55:09Z</time>
      </trkpt>
      <trkpt lat="49.40403" lon="1.41233">
        <ele>144</ele>
        <time>2017-06-13T14:55:09Z</time>
      </trkpt>
      <trkpt lat="49.40404" lon="1.41238">
        <ele>144</ele>
        <time>2017-06-13T14:55:09Z</time>
      </trkpt>
      <trkpt lat="49.40405" lon="1.41244">
        <ele>144</ele>
        <time>2017-06-13T14:55:09Z</time>
      </trkpt>
      <trkpt lat="49.40407" lon="1.41252">
        <ele>144</ele>
        <time>2017-06-13T14:55:26Z</time>
      </trkpt>
      <trkpt lat="49.40407" lon="1.41256">
        <ele>144</ele>
        <time>2017-06-13T14:55:26Z</time>
      </trkpt>
      <trkpt lat="49.40409" lon="1.41262">
        <ele>144</ele>
        <time>2017-06-13T14:55:26Z</time>
      </trkpt>
      <trkpt lat="49.4041" lon="1.41269">
        <ele>144</ele>
        <time>2017-06-13T14:55:26Z</time>
      </trkpt>
      <trkpt lat="49.40411" lon="1.41274">
        <ele>144</ele>
        <time>2017-06-13T14:55:41Z</time>
      </trkpt>
      <trkpt lat="49.40412" lon="1.4128">
        <ele>144</ele>
        <time>2017-06-13T14:55:41Z</time>
      </trkpt>
      <trkpt lat="49.40414" lon="1.41288">
        <ele>144</ele>
        <time>2017-06-13T14:55:41Z</time>
      </trkpt>
      <trkpt lat="49.40415" lon="1.41294">
        <ele>147</ele>
        <time>2017-06-13T14:55:41Z</time>
      </trkpt>
      <trkpt lat="49.40416" lon="1.413">
        <ele>147</ele>
        <time>2017-06-13T14:55:57Z</time>
      </trkpt>
      <trkpt lat="49.40417" lon="1.41305">
        <ele>147</ele>
        <time>2017-06-13T14:55:57Z</time>
      </trkpt>
      <trkpt lat="49.40418" lon="1.41313">
        <ele>147</ele>
        <time>2017-06-13T14:55:57Z</time>
      </trkpt>
      <trkpt lat="49.40419" lon="1.41318">
        <ele>147</ele>
        <time>2017-06-13T14:55:57Z</time>
      </trkpt>
      <trkpt lat="49.4042" lon="1.41325">
        <ele>147</ele>
        <time>2017-06-13T14:56:13Z</time>
      </trkpt>
      <trkpt lat="49.4042" lon="1.41332">
        <ele>147</ele>
        <time>2017-06-13T14:56:13Z</time>
      </trkpt>
      <trkpt lat="49.40421" lon="1.41341">
        <ele>147</ele>
        <time>2017-06-13T14:56:13Z</time>
      </trkpt>
      <trkpt lat="49.40422" lon="1.41346">
        <ele>147</ele>
        <time>2017-06-13T14:56:13Z</time>
      </trkpt>
      <trkpt lat="49.40423" lon="1.41353">
        <ele>147</ele>
        <time>2017-06-13T14:56:29Z</time>
      </trkpt>
      <trkpt lat="49.40424" lon="1.41358">
        <ele>147</ele>
        <time>2017-06-13T14:56:29Z</time>
      </trkpt>
      <trkpt lat="49.40425" lon="1.41368">
        <ele>147</ele>
        <time>2017-06-13T14:56:29Z</time>
      </trkpt>
      <trkpt lat="49.40425" lon="1.41373">
        <ele>147</ele>
        <time>2017-06-13T14:56:29Z</time>
      </trkpt>
      <trkpt lat="49.40426" lon="1.4138">
        <ele>149</ele>
        <time>2017-06-13T14:56:46Z</time>
      </trkpt>
      <trkpt lat="49.40427" lon="1.41387">
        <ele>149</ele>
        <time>2017-06-13T14:56:46Z</time>
      </trkpt>
      <trkpt lat="49.40428" lon="1.41393">
        <ele>149</ele>
        <time>2017-06-13T14:56:46Z</time>
      </trkpt>
      <trkpt lat="49.40429" lon="1.41401">
        <ele>149</ele>
        <time>2017-06-13T14:56:46Z</time>
      </trkpt>
      <trkpt lat="49.4043" lon="1.41406">
        <ele>149</ele>
        <time>2017-06-13T14:57:01Z</time>
      </trkpt>
      <trkpt lat="49.40431" lon="1.41415">
        <ele>149</ele>
        <time>2017-06-13T14:57:01Z</time>
      </trkpt>
      <trkpt lat="49.40431" lon="1.4142">
        <ele>149</ele>
        <time>2017-06-13T14:57:01Z</time>
      </trkpt>
      <trkpt lat="49.40432" lon="1.41426">
        <ele>149</ele>
        <time>2017-06-13T14:57:01Z</time>
      </trkpt>
      <trkpt lat="49.40433" lon="1.41433">
        <ele>149</ele>
        <time>2017-06-13T14:57:16Z</time>
      </trkpt>
      <trkpt lat="49.40433" lon="1.4144">
        <ele>149</ele>
        <time>2017-06-13T14:57:16Z</time>
      </trkpt>
      <trkpt lat="49.40434" lon="1.41446">
        <ele>149</ele>
        <time>2017-06-13T14:57:17Z</time>
      </trkpt>
      <trkpt lat="49.40435" lon="1.41453">
        <ele>149</ele>
        <time>2017-06-13T14:57:17Z</time>
      </trkpt>
      <trkpt lat="49.40436" lon="1.4146">
        <ele>150</ele>
        <time>2017-06-13T14:57:33Z</time>
      </trkpt>
      <trkpt lat="49.40436" lon="1.41467">
        <ele>150</ele>
        <time>2017-06-13T14:57:33Z</time>
      </trkpt>
      <trkpt lat="49.40437" lon="1.41475">
        <ele>150</ele>
        <time>2017-06-13T14:57:33Z</time>
      </trkpt>
      <trkpt lat="49.40432" lon="1.4148">
        <ele>150</ele>
        <time>2017-06-13T14:57:33Z</time>
      </trkpt>
      <trkpt lat="49.4043" lon="1.4149">
        <ele>150</ele>
        <time>2017-06-13T14:57:49Z</time>
      </trkpt>
      <trkpt lat="49.40431" lon="1.41495">
        <ele>150</ele>
        <time>2017-06-13T14:57:49Z</time>
      </trkpt>
      <trkpt lat="49.40432" lon="1.41502">
        <ele>150</ele>
        <time>2017-06-13T14:57:49Z</time>
      </trkpt>
      <trkpt lat="49.40432" lon="1.41509">
        <ele>150</ele>
        <time>2017-06-13T14:57:49Z</time>
      </trkpt>
      <trkpt lat="49.40433" lon="1.41515">
        <ele>150</ele>
        <time>2017-06-13T14:58:04Z</time>
      </trkpt>
      <trkpt lat="49.40434" lon="1.41525">
        <ele>150</ele>
        <time>2017-06-13T14:58:04Z</time>
      </trkpt>
      <trkpt lat="49.40435" lon="1.41531">
        <ele>150</ele>
        <time>2017-06-13T14:58:04Z</time>
      </trkpt>
      <trkpt lat="49.40436" lon="1.41538">
        <ele>150</ele>
        <time>2017-06-13T14:58:04Z</time>
      </trkpt>
      <trkpt lat="49.40437" lon="1.41545">
        <ele>149</ele>
        <time>2017-06-13T14:58:20Z</time>
      </trkpt>
      <trkpt lat="49.40437" lon="1.41552">
        <ele>149</ele>
        <time>2017-06-13T14:58:21Z</time>
      </trkpt>
      <trkpt lat="49.40438" lon="1.41561">
        <ele>149</ele>
        <time>2017-06-13T14:58:21Z</time>
      </trkpt>
      <trkpt lat="49.40438" lon="1.41566">
        <ele>149</ele>
        <time>2017-06-13T14:58:21Z</time>
      </trkpt>
      <trkpt lat="49.40439" lon="1.41573">
        <ele>149</ele>
        <time>2017-06-13T14:58:36Z</time>
      </trkpt>
      <trkpt lat="49.40441" lon="1.4158">
        <ele>149</ele>
        <time>2017-06-13T14:58:36Z</time>
      </trkpt>
      <trkpt lat="49.40442" lon="1.41588">
        <ele>149</ele>
        <time>2017-06-13T14:58:36Z</time>
      </trkpt>
      <trkpt lat="49.40443" lon="1.41595">
        <ele>149</ele>
        <time>2017-06-13T14:58:36Z</time>
      </trkpt>
      <trkpt lat="49.40443" lon="1.41603">
        <ele>149</ele>
        <time>2017-06-13T14:58:52Z</time>
      </trkpt>
      <trkpt lat="49.40444" lon="1.4161">
        <ele>149</ele>
        <time>2017-06-13T14:58:52Z</time>
      </trkpt>
      <trkpt lat="49.40445" lon="1.41617">
        <ele>149</ele>
        <time>2017-06-13T14:58:52Z</time>
      </trkpt>
      <trkpt lat="49.40446" lon="1.41625">
        <ele>149</ele>
        <time>2017-06-13T14:58:52Z</time>
      </trkpt>
      <trkpt lat="49.40447" lon="1.41632">
        <ele>149</ele>
        <time>2017-06-13T14:59:09Z</time>
      </trkpt>
      <trkpt lat="49.40449" lon="1.4164">
        <ele>149</ele>
        <time>2017-06-13T14:59:09Z</time>
      </trkpt>
      <trkpt lat="49.40449" lon="1.41646">
        <ele>149</ele>
        <time>2017-06-13T14:59:09Z</time>
      </trkpt>
      <trkpt lat="49.4045" lon="1.41653">
        <ele>149</ele>
        <time>2017-06-13T14:59:09Z</time>
      </trkpt>
      <trkpt lat="49.4045" lon="1.4166">
        <ele>149</ele>
        <time>2017-06-13T14:59:25Z</time>
      </trkpt>
      <trkpt lat="49.40451" lon="1.41667">
        <ele>149</ele>
        <time>2017-06-13T14:59:25Z</time>
      </trkpt>
      <trkpt lat="49.40451" lon="1.41674">
        <ele>149</ele>
        <time>2017-06-13T14:59:25Z</time>
      </trkpt>
      <trkpt lat="49.40452" lon="1.41681">
        <ele>149</ele>
        <time>2017-06-13T14:59:25Z</time>
      </trkpt>
      <trkpt lat="49.40453" lon="1.41688">
        <ele>149</ele>
        <time>2017-06-13T14:59:41Z</time>
      </trkpt>
      <trkpt lat="49.40454" lon="1.41697">
        <ele>149</ele>
        <time>2017-06-13T14:59:41Z</time>
      </trkpt>
      <trkpt lat="49.40455" lon="1.41702">
        <ele>149</ele>
        <time>2017-06-13T14:59:41Z</time>
      </trkpt>
      <trkpt lat="49.40457" lon="1.41711">
        <ele>148</ele>
        <time>2017-06-13T14:59:41Z</time>
      </trkpt>
      <trkpt lat="49.40458" lon="1.41718">
        <ele>148</ele>
        <time>2017-06-13T14:59:58Z</time>
      </trkpt>
      <trkpt lat="49.40459" lon="1.41725">
        <ele>151</ele>
        <time>2017-06-13T14:59:58Z</time>
      </trkpt>
      <trkpt lat="49.40459" lon="1.4173">
        <ele>151</ele>
        <time>2017-06-13T14:59:58Z</time>
      </trkpt>
      <trkpt lat="49.4046" lon="1.41739">
        <ele>151</ele>
        <time>2017-06-13T14:59:58Z</time>
      </trkpt>
      <trkpt lat="49.40461" lon="1.41745">
        <ele>151</ele>
        <time>2017-06-13T15:00:14Z</time>
      </trkpt>
      <trkpt lat="49.40462" lon="1.41752">
        <ele>151</ele>
        <time>2017-06-13T15:00:14Z</time>
      </trkpt>
      <trkpt lat="49.40463" lon="1.41759">
        <ele>151</ele>
        <time>2017-06-13T15:00:14Z</time>
      </trkpt>
      <trkpt lat="49.40464" lon="1.41769">
        <ele>151</ele>
        <time>2017-06-13T15:00:14Z</time>
      </trkpt>
      <trkpt lat="49.40464" lon="1.41774">
        <ele>151</ele>
        <time>2017-06-13T15:00:29Z</time>
      </trkpt>
      <trkpt lat="49.40466" lon="1.41784">
        <ele>151</ele>
        <time>2017-06-13T15:00:29Z</time>
      </trkpt>
      <trkpt lat="49.40467" lon="1.41789">
        <ele>151</ele>
        <time>2017-06-13T15:00:29Z</time>
      </trkpt>
      <trkpt lat="49.40468" lon="1.41798">
        <ele>152</ele>
        <time>2017-06-13T15:00:29Z</time>
      </trkpt>
      <trkpt lat="49.40469" lon="1.41803">
        <ele>152</ele>
        <time>2017-06-13T15:00:45Z</time>
      </trkpt>
      <trkpt lat="49.4047" lon="1.4181">
        <ele>152</ele>
        <time>2017-06-13T15:00:45Z</time>
      </trkpt>
      <trkpt lat="49.40471" lon="1.41817">
        <ele>152</ele>
        <time>2017-06-13T15:00:45Z</time>
      </trkpt>
      <trkpt lat="49.40473" lon="1.41826">
        <ele>152</ele>
        <time>2017-06-13T15:00:45Z</time>
      </trkpt>
      <trkpt lat="49.40475" lon="1.41832">
        <ele>152</ele>
        <time>2017-06-13T15:01:00Z</time>
      </trkpt>
      <trkpt lat="49.40476" lon="1.41839">
        <ele>152</ele>
        <time>2017-06-13T15:01:00Z</time>
      </trkpt>
      <trkpt lat="49.40477" lon="1.41848">
        <ele>152</ele>
        <time>2017-06-13T15:01:00Z</time>
      </trkpt>
      <trkpt lat="49.40478" lon="1.41853">
        <ele>152</ele>
        <time>2017-06-13T15:01:00Z</time>
      </trkpt>
      <trkpt lat="49.40479" lon="1.4186">
        <ele>152</ele>
        <time>2017-06-13T15:01:17Z</time>
      </trkpt>
      <trkpt lat="49.4048" lon="1.41867">
        <ele>152</ele>
        <time>2017-06-13T15:01:17Z</time>
      </trkpt>
      <trkpt lat="49.4048" lon="1.41874">
        <ele>152</ele>
        <time>2017-06-13T15:01:17Z</time>
      </trkpt>
      <trkpt lat="49.40481" lon="1.41881">
        <ele>153</ele>
        <time>2017-06-13T15:01:17Z</time>
      </trkpt>
      <trkpt lat="49.40483" lon="1.41891">
        <ele>153</ele>
        <time>2017-06-13T15:01:33Z</time>
      </trkpt>
      <trkpt lat="49.40483" lon="1.41896">
        <ele>153</ele>
        <time>2017-06-13T15:01:33Z</time>
      </trkpt>
      <trkpt lat="49.40484" lon="1.41903">
        <ele>153</ele>
        <time>2017-06-13T15:01:33Z</time>
      </trkpt>
      <trkpt lat="49.40485" lon="1.41912">
        <ele>153</ele>
        <time>2017-06-13T15:01:33Z</time>
      </trkpt>
      <trkpt lat="49.40486" lon="1.41918">
        <ele>153</ele>
        <time>2017-06-13T15:01:49Z</time>
      </trkpt>
      <trkpt lat="49.40485" lon="1.41927">
        <ele>153</ele>
        <time>2017-06-13T15:01:49Z</time>
      </trkpt>
      <trkpt lat="49.40486" lon="1.41934">
        <ele>153</ele>
        <time>2017-06-13T15:01:49Z</time>
      </trkpt>
      <trkpt lat="49.40486" lon="1.41943">
        <ele>153</ele>
        <time>2017-06-13T15:01:49Z</time>
      </trkpt>
      <trkpt lat="49.40486" lon="1.41948">
        <ele>153</ele>
        <time>2017-06-13T15:02:04Z</time>
      </trkpt>
      <trkpt lat="49.40487" lon="1.41956">
        <ele>153</ele>
        <time>2017-06-13T15:02:04Z</time>
      </trkpt>
      <trkpt lat="49.40487" lon="1.41963">
        <ele>152</ele>
        <time>2017-06-13T15:02:04Z</time>
      </trkpt>
      <trkpt lat="49.40488" lon="1.4197">
        <ele>152</ele>
        <time>2017-06-13T15:02:04Z</time>
      </trkpt>
      <trkpt lat="49.4049" lon="1.41983">
        <ele>152</ele>
        <time>2017-06-13T15:02:37Z</time>
      </trkpt>
      <trkpt lat="49.40485" lon="1.41992">
        <ele>152</ele>
        <time>2017-06-13T15:02:37Z</time>
      </trkpt>
      <trkpt lat="49.40484" lon="1.41994">
        <ele>152</ele>
        <time>2017-06-13T15:02:37Z</time>
      </trkpt>
      <trkpt lat="49.40484" lon="1.41994">
        <ele>152</ele>
        <time>2017-06-13T15:02:37Z</time>
      </trkpt>
      <trkpt lat="49.40484" lon="1.41994">
        <ele>152</ele>
        <time>2017-06-13T15:02:37Z</time>
      </trkpt>
      <trkpt lat="49.40484" lon="1.41994">
        <ele>152</ele>
        <time>2017-06-13T15:03:25Z</time>
      </trkpt>
      <trkpt lat="49.40481" lon="1.41993">
        <ele>152</ele>
        <time>2017-06-13T15:03:25Z</time>
      </trkpt>
      <trkpt lat="49.4048" lon="1.4199">
        <ele>152</ele>
        <time>2017-06-13T15:03:25Z</time>
      </trkpt>
      <trkpt lat="49.40481" lon="1.41985">
        <ele>152</ele>
        <time>2017-06-13T15:03:25Z</time>
      </trkpt>
      <trkpt lat="49.40482" lon="1.41978">
        <ele>152</ele>
        <time>2017-06-13T15:03:25Z</time>
      </trkpt>
      <trkpt lat="49.40483" lon="1.41977">
        <ele>152</ele>
        <time>2017-06-13T15:04:25Z</time>
      </trkpt>
      <trkpt lat="49.40482" lon="1.41976">
        <ele>152</ele>
        <time>2017-06-13T15:04:25Z</time>
      </trkpt>
      <trkpt lat="49.40482" lon="1.41977">
        <ele>152</ele>
        <time>2017-06-13T15:04:25Z</time>
      </trkpt>
      <trkpt lat="49.40479" lon="1.41985">
        <ele>152</ele>
        <time>2017-06-13T15:04:25Z</time>
      </trkpt>
      <trkpt lat="49.40477" lon="1.41989">
        <ele>152</ele>
        <time>2017-06-13T15:04:25Z</time>
      </trkpt>
      <trkpt lat="49.40476" lon="1.4199">
        <ele>152</ele>
        <time>2017-06-13T15:04:46Z</time>
      </trkpt>
      <trkpt lat="49.40477" lon="1.41987">
        <ele>152</ele>
        <time>2017-06-13T15:04:46Z</time>
      </trkpt>
      <trkpt lat="49.40469" lon="1.41978">
        <ele>152</ele>
        <time>2017-06-13T15:04:46Z</time>
      </trkpt>
      <trkpt lat="49.40468" lon="1.41978">
        <ele>152</ele>
        <time>2017-06-13T15:04:46Z</time>
      </trkpt>
      <trkpt lat="49.40468" lon="1.4198">
        <ele>152</ele>
        <time>2017-06-13T15:08:36Z</time>
      </trkpt>
      <trkpt lat="49.40469" lon="1.41984">
        <ele>152</ele>
        <time>2017-06-13T15:08:36Z</time>
      </trkpt>
      <trkpt lat="49.40471" lon="1.41993">
        <ele>152</ele>
        <time>2017-06-13T15:08:36Z</time>
      </trkpt>
      <trkpt lat="49.40473" lon="1.42001">
        <ele>152</ele>
        <time>2017-06-13T15:08:36Z</time>
      </trkpt>
      <trkpt lat="49.40473" lon="1.42009">
        <ele>152</ele>
        <time>2017-06-13T15:08:36Z</time>
      </trkpt>
      <trkpt lat="49.40474" lon="1.42017">
        <ele>152</ele>
        <time>2017-06-13T15:08:53Z</time>
      </trkpt>
      <trkpt lat="49.40468" lon="1.42032">
        <ele>152</ele>
        <time>2017-06-13T15:08:53Z</time>
      </trkpt>
      <trkpt lat="49.40466" lon="1.42045">
        <ele>152</ele>
        <time>2017-06-13T15:08:53Z</time>
      </trkpt>
      <trkpt lat="49.40466" lon="1.4205">
        <ele>152</ele>
        <time>2017-06-13T15:08:53Z</time>
      </trkpt>
      <trkpt lat="49.40466" lon="1.42057">
        <ele>152</ele>
        <time>2017-06-13T15:09:09Z</time>
      </trkpt>
      <trkpt lat="49.40466" lon="1.42064">
        <ele>152</ele>
        <time>2017-06-13T15:09:09Z</time>
      </trkpt>
      <trkpt lat="49.40467" lon="1.42071">
        <ele>152</ele>
        <time>2017-06-13T15:09:09Z</time>
      </trkpt>
      <trkpt lat="49.40467" lon="1.4208">
        <ele>152</ele>
        <time>2017-06-13T15:09:09Z</time>
      </trkpt>
      <trkpt lat="49.40468" lon="1.42086">
        <ele>152</ele>
        <time>2017-06-13T15:09:25Z</time>
      </trkpt>
      <trkpt lat="49.40469" lon="1.42093">
        <ele>152</ele>
        <time>2017-06-13T15:09:25Z</time>
      </trkpt>
      <trkpt lat="49.4047" lon="1.42102">
        <ele>152</ele>
        <time>2017-06-13T15:09:25Z</time>
      </trkpt>
      <trkpt lat="49.4047" lon="1.42107">
        <ele>152</ele>
        <time>2017-06-13T15:09:25Z</time>
      </trkpt>
      <trkpt lat="49.40471" lon="1.42115">
        <ele>152</ele>
        <time>2017-06-13T15:09:41Z</time>
      </trkpt>
      <trkpt lat="49.40471" lon="1.42122">
        <ele>152</ele>
        <time>2017-06-13T15:09:41Z</time>
      </trkpt>
      <trkpt lat="49.40471" lon="1.42131">
        <ele>154</ele>
        <time>2017-06-13T15:09:41Z</time>
      </trkpt>
      <trkpt lat="49.40471" lon="1.42138">
        <ele>154</ele>
        <time>2017-06-13T15:09:41Z</time>
      </trkpt>
      <trkpt lat="49.40472" lon="1.42143">
        <ele>154</ele>
        <time>2017-06-13T15:09:56Z</time>
      </trkpt>
      <trkpt lat="49.40472" lon="1.4215">
        <ele>154</ele>
        <time>2017-06-13T15:09:56Z</time>
      </trkpt>
      <trkpt lat="49.40472" lon="1.42157">
        <ele>154</ele>
        <time>2017-06-13T15:09:56Z</time>
      </trkpt>
      <trkpt lat="49.40473" lon="1.42164">
        <ele>154</ele>
        <time>2017-06-13T15:09:56Z</time>
      </trkpt>
      <trkpt lat="49.40473" lon="1.42172">
        <ele>154</ele>
        <time>2017-06-13T15:10:13Z</time>
      </trkpt>
      <trkpt lat="49.40473" lon="1.42179">
        <ele>154</ele>
        <time>2017-06-13T15:10:13Z</time>
      </trkpt>
      <trkpt lat="49.40473" lon="1.42188">
        <ele>154</ele>
        <time>2017-06-13T15:10:13Z</time>
      </trkpt>
      <trkpt lat="49.40473" lon="1.42193">
        <ele>154</ele>
        <time>2017-06-13T15:10:13Z</time>
      </trkpt>
      <trkpt lat="49.40473" lon="1.42202">
        <ele>154</ele>
        <time>2017-06-13T15:10:28Z</time>
      </trkpt>
      <trkpt lat="49.40473" lon="1.42209">
        <ele>156</ele>
        <time>2017-06-13T15:10:28Z</time>
      </trkpt>
      <trkpt lat="49.40473" lon="1.42214">
        <ele>156</ele>
        <time>2017-06-13T15:10:28Z</time>
      </trkpt>
      <trkpt lat="49.40474" lon="1.42221">
        <ele>156</ele>
        <time>2017-06-13T15:10:28Z</time>
      </trkpt>
      <trkpt lat="49.40474" lon="1.42228">
        <ele>156</ele>
        <time>2017-06-13T15:10:44Z</time>
      </trkpt>
      <trkpt lat="49.40474" lon="1.42236">
        <ele>156</ele>
        <time>2017-06-13T15:10:44Z</time>
      </trkpt>
      <trkpt lat="49.40475" lon="1.42242">
        <ele>156</ele>
        <time>2017-06-13T15:10:44Z</time>
      </trkpt>
      <trkpt lat="49.40474" lon="1.42248">
        <ele>156</ele>
        <time>2017-06-13T15:10:44Z</time>
      </trkpt>
      <trkpt lat="49.40468" lon="1.42252">
        <ele>156</ele>
        <time>2017-06-13T15:11:00Z</time>
      </trkpt>
      <trkpt lat="49.40465" lon="1.42257">
        <ele>156</ele>
        <time>2017-06-13T15:11:00Z</time>
      </trkpt>
      <trkpt lat="49.40463" lon="1.42266">
        <ele>156</ele>
        <time>2017-06-13T15:11:00Z</time>
      </trkpt>
      <trkpt lat="49.40463" lon="1.42269">
        <ele>156</ele>
        <time>2017-06-13T15:11:00Z</time>
      </trkpt>
      <trkpt lat="49.40463" lon="1.42278">
        <ele>156</ele>
        <time>2017-06-13T15:11:16Z</time>
      </trkpt>
      <trkpt lat="49.40463" lon="1.42285">
        <ele>156</ele>
        <time>2017-06-13T15:11:16Z</time>
      </trkpt>
      <trkpt lat="49.40463" lon="1.42292">
        <ele>158</ele>
        <time>2017-06-13T15:11:16Z</time>
      </trkpt>
      <trkpt lat="49.40464" lon="1.42299">
        <ele>158</ele>
        <time>2017-06-13T15:11:16Z</time>
      </trkpt>
      <trkpt lat="49.40464" lon="1.42306">
        <ele>158</ele>
        <time>2017-06-13T15:11:32Z</time>
      </trkpt>
      <trkpt lat="49.40464" lon="1.42313">
        <ele>158</ele>
        <time>2017-06-13T15:11:32Z</time>
      </trkpt>
      <trkpt lat="49.40465" lon="1.42322">
        <ele>158</ele>
        <time>2017-06-13T15:11:32Z</time>
      </trkpt>
      <trkpt lat="49.40465" lon="1.42328">
        <ele>158</ele>
        <time>2017-06-13T15:11:32Z</time>
      </trkpt>
      <trkpt lat="49.40465" lon="1.42335">
        <ele>158</ele>
        <time>2017-06-13T15:11:48Z</time>
      </trkpt>
      <trkpt lat="49.40466" lon="1.42344">
        <ele>158</ele>
        <time>2017-06-13T15:11:48Z</time>
      </trkpt>
      <trkpt lat="49.40466" lon="1.42349">
        <ele>158</ele>
        <time>2017-06-13T15:11:48Z</time>
      </trkpt>
      <trkpt lat="49.40466" lon="1.42354">
        <ele>158</ele>
        <time>2017-06-13T15:11:48Z</time>
      </trkpt>
      <trkpt lat="49.40467" lon="1.42365">
        <ele>158</ele>
        <time>2017-06-13T15:12:06Z</time>
      </trkpt>
      <trkpt lat="49.40467" lon="1.42372">
        <ele>158</ele>
        <time>2017-06-13T15:12:06Z</time>
      </trkpt>
      <trkpt lat="49.40467" lon="1.42377">
        <ele>159</ele>
        <time>2017-06-13T15:12:06Z</time>
      </trkpt>
      <trkpt lat="49.40467" lon="1.42386">
        <ele>159</ele>
        <time>2017-06-13T15:12:06Z</time>
      </trkpt>
      <trkpt lat="49.40468" lon="1.42392">
        <ele>159</ele>
        <time>2017-06-13T15:12:22Z</time>
      </trkpt>
      <trkpt lat="49.40468" lon="1.42399">
        <ele>159</ele>
        <time>2017-06-13T15:12:22Z</time>
      </trkpt>
      <trkpt lat="49.40467" lon="1.42408">
        <ele>159</ele>
        <time>2017-06-13T15:12:22Z</time>
      </trkpt>
      <trkpt lat="49.40467" lon="1.42415">
        <ele>159</ele>
        <time>2017-06-13T15:12:22Z</time>
      </trkpt>
      <trkpt lat="49.40467" lon="1.4242">
        <ele>159</ele>
        <time>2017-06-13T15:12:36Z</time>
      </trkpt>
      <trkpt lat="49.40467" lon="1.42428">
        <ele>159</ele>
        <time>2017-06-13T15:12:37Z</time>
      </trkpt>
      <trkpt lat="49.40467" lon="1.42435">
        <ele>159</ele>
        <time>2017-06-13T15:12:37Z</time>
      </trkpt>
      <trkpt lat="49.40467" lon="1.42441">
        <ele>159</ele>
        <time>2017-06-13T15:12:37Z</time>
      </trkpt>
      <trkpt lat="49.40467" lon="1.4245">
        <ele>159</ele>
        <time>2017-06-13T15:12:52Z</time>
      </trkpt>
      <trkpt lat="49.40467" lon="1.42455">
        <ele>159</ele>
        <time>2017-06-13T15:12:52Z</time>
      </trkpt>
      <trkpt lat="49.40467" lon="1.42462">
        <ele>162</ele>
        <time>2017-06-13T15:12:52Z</time>
      </trkpt>
      <trkpt lat="49.40467" lon="1.42469">
        <ele>162</ele>
        <time>2017-06-13T15:12:52Z</time>
      </trkpt>
      <trkpt lat="49.40467" lon="1.42477">
        <ele>162</ele>
        <time>2017-06-13T15:13:08Z</time>
      </trkpt>
      <trkpt lat="49.40467" lon="1.42484">
        <ele>162</ele>
        <time>2017-06-13T15:13:08Z</time>
      </trkpt>
      <trkpt lat="49.40467" lon="1.42492">
        <ele>162</ele>
        <time>2017-06-13T15:13:08Z</time>
      </trkpt>
      <trkpt lat="49.40468" lon="1.42498">
        <ele>162</ele>
        <time>2017-06-13T15:13:08Z</time>
      </trkpt>
      <trkpt lat="49.40468" lon="1.42505">
        <ele>162</ele>
        <time>2017-06-13T15:13:25Z</time>
      </trkpt>
      <trkpt lat="49.40468" lon="1.42512">
        <ele>162</ele>
        <time>2017-06-13T15:13:25Z</time>
      </trkpt>
      <trkpt lat="49.40468" lon="1.42518">
        <ele>162</ele>
        <time>2017-06-13T15:13:25Z</time>
      </trkpt>
      <trkpt lat="49.40468" lon="1.42525">
        <ele>162</ele>
        <time>2017-06-13T15:13:25Z</time>
      </trkpt>
      <trkpt lat="49.40467" lon="1.42533">
        <ele>162</ele>
        <time>2017-06-13T15:13:40Z</time>
      </trkpt>
      <trkpt lat="49.40467" lon="1.42539">
        <ele>162</ele>
        <time>2017-06-13T15:13:40Z</time>
      </trkpt>
      <trkpt lat="49.40466" lon="1.42546">
        <ele>162</ele>
        <time>2017-06-13T15:13:40Z</time>
      </trkpt>
      <trkpt lat="49.40466" lon="1.42554">
        <ele>162</ele>
        <time>2017-06-13T15:13:40Z</time>
      </trkpt>
      <trkpt lat="49.40466" lon="1.42561">
        <ele>162</ele>
        <time>2017-06-13T15:13:56Z</time>
      </trkpt>
      <trkpt lat="49.40465" lon="1.42571">
        <ele>162</ele>
        <time>2017-06-13T15:13:56Z</time>
      </trkpt>
      <trkpt lat="49.40465" lon="1.42576">
        <ele>162</ele>
        <time>2017-06-13T15:13:56Z</time>
      </trkpt>
      <trkpt lat="49.40465" lon="1.42584">
        <ele>162</ele>
        <time>2017-06-13T15:13:56Z</time>
      </trkpt>
      <trkpt lat="49.40465" lon="1.42591">
        <ele>162</ele>
        <time>2017-06-13T15:14:13Z</time>
      </trkpt>
      <trkpt lat="49.40465" lon="1.42598">
        <ele>162</ele>
        <time>2017-06-13T15:14:13Z</time>
      </trkpt>
      <trkpt lat="49.40465" lon="1.42605">
        <ele>162</ele>
        <time>2017-06-13T15:14:13Z</time>
      </trkpt>
      <trkpt lat="49.40465" lon="1.42612">
        <ele>162</ele>
        <time>2017-06-13T15:14:13Z</time>
      </trkpt>
      <trkpt lat="49.40465" lon="1.42619">
        <ele>162</ele>
        <time>2017-06-13T15:14:29Z</time>
      </trkpt>
      <trkpt lat="49.40464" lon="1.4263">
        <ele>166</ele>
        <time>2017-06-13T15:14:29Z</time>
      </trkpt>
      <trkpt lat="49.40464" lon="1.42633">
        <ele>166</ele>
        <time>2017-06-13T15:14:29Z</time>
      </trkpt>
      <trkpt lat="49.40463" lon="1.42641">
        <ele>166</ele>
        <time>2017-06-13T15:14:30Z</time>
      </trkpt>
      <trkpt lat="49.40463" lon="1.42647">
        <ele>166</ele>
        <time>2017-06-13T15:14:44Z</time>
      </trkpt>
      <trkpt lat="49.40461" lon="1.42655">
        <ele>166</ele>
        <time>2017-06-13T15:14:44Z</time>
      </trkpt>
      <trkpt lat="49.4046" lon="1.4266">
        <ele>166</ele>
        <time>2017-06-13T15:14:44Z</time>
      </trkpt>
      <trkpt lat="49.40458" lon="1.42667">
        <ele>166</ele>
        <time>2017-06-13T15:14:44Z</time>
      </trkpt>
      <trkpt lat="49.40456" lon="1.42674">
        <ele>164</ele>
        <time>2017-06-13T15:15:01Z</time>
      </trkpt>
      <trkpt lat="49.40453" lon="1.42679">
        <ele>164</ele>
        <time>2017-06-13T15:15:01Z</time>
      </trkpt>
      <trkpt lat="49.40449" lon="1.42685">
        <ele>164</ele>
        <time>2017-06-13T15:15:01Z</time>
      </trkpt>
      <trkpt lat="49.40445" lon="1.4269">
        <ele>164</ele>
        <time>2017-06-13T15:15:01Z</time>
      </trkpt>
      <trkpt lat="49.40439" lon="1.42696">
        <ele>164</ele>
        <time>2017-06-13T15:15:16Z</time>
      </trkpt>
      <trkpt lat="49.40435" lon="1.427">
        <ele>164</ele>
        <time>2017-06-13T15:15:16Z</time>
      </trkpt>
      <trkpt lat="49.40428" lon="1.42705">
        <ele>164</ele>
        <time>2017-06-13T15:15:16Z</time>
      </trkpt>
      <trkpt lat="49.40425" lon="1.42709">
        <ele>166</ele>
        <time>2017-06-13T15:15:16Z</time>
      </trkpt>
      <trkpt lat="49.4042" lon="1.42714">
        <ele>166</ele>
        <time>2017-06-13T15:15:33Z</time>
      </trkpt>
      <trkpt lat="49.40416" lon="1.42718">
        <ele>166</ele>
        <time>2017-06-13T15:15:33Z</time>
      </trkpt>
      <trkpt lat="49.40412" lon="1.42724">
        <ele>166</ele>
        <time>2017-06-13T15:15:33Z</time>
      </trkpt>
      <trkpt lat="49.40408" lon="1.42729">
        <ele>166</ele>
        <time>2017-06-13T15:15:33Z</time>
      </trkpt>
      <trkpt lat="49.40404" lon="1.42734">
        <ele>166</ele>
        <time>2017-06-13T15:15:50Z</time>
      </trkpt>
      <trkpt lat="49.40399" lon="1.42739">
        <ele>166</ele>
        <time>2017-06-13T15:15:50Z</time>
      </trkpt>
      <trkpt lat="49.40395" lon="1.42743">
        <ele>166</ele>
        <time>2017-06-13T15:15:50Z</time>
      </trkpt>
      <trkpt lat="49.40391" lon="1.42748">
        <ele>166</ele>
        <time>2017-06-13T15:15:50Z</time>
      </trkpt>
      <trkpt lat="49.40388" lon="1.42752">
        <ele>166</ele>
        <time>2017-06-13T15:16:05Z</time>
      </trkpt>
      <trkpt lat="49.40385" lon="1.42756">
        <ele>166</ele>
        <time>2017-06-13T15:16:05Z</time>
      </trkpt>
      <trkpt lat="49.40381" lon="1.42761">
        <ele>166</ele>
        <time>2017-06-13T15:16:05Z</time>
      </trkpt>
      <trkpt lat="49.40377" lon="1.42768">
        <ele>166</ele>
        <time>2017-06-13T15:16:06Z</time>
      </trkpt>
      <trkpt lat="49.40374" lon="1.42771">
        <ele>163</ele>
        <time>2017-06-13T15:16:21Z</time>
      </trkpt>
      <trkpt lat="49.40371" lon="1.42777">
        <ele>163</ele>
        <time>2017-06-13T15:16:21Z</time>
      </trkpt>
      <trkpt lat="49.40368" lon="1.42782">
        <ele>163</ele>
        <time>2017-06-13T15:16:21Z</time>
      </trkpt>
      <trkpt lat="49.40365" lon="1.42789">
        <ele>163</ele>
        <time>2017-06-13T15:16:21Z</time>
      </trkpt>
      <trkpt lat="49.40361" lon="1.42796">
        <ele>164</ele>
        <time>2017-06-13T15:16:38Z</time>
      </trkpt>
      <trkpt lat="49.40358" lon="1.428">
        <ele>164</ele>
        <time>2017-06-13T15:16:38Z</time>
      </trkpt>
      <trkpt lat="49.40356" lon="1.42806">
        <ele>164</ele>
        <time>2017-06-13T15:16:38Z</time>
      </trkpt>
      <trkpt lat="49.40353" lon="1.42813">
        <ele>164</ele>
        <time>2017-06-13T15:16:38Z</time>
      </trkpt>
      <trkpt lat="49.40351" lon="1.42818">
        <ele>164</ele>
        <time>2017-06-13T15:16:54Z</time>
      </trkpt>
      <trkpt lat="49.4035" lon="1.42825">
        <ele>164</ele>
        <time>2017-06-13T15:16:54Z</time>
      </trkpt>
      <trkpt lat="49.40349" lon="1.42833">
        <ele>164</ele>
        <time>2017-06-13T15:16:54Z</time>
      </trkpt>
      <trkpt lat="49.40348" lon="1.4284">
        <ele>164</ele>
        <time>2017-06-13T15:16:54Z</time>
      </trkpt>
      <trkpt lat="49.40348" lon="1.42846">
        <ele>164</ele>
        <time>2017-06-13T15:17:08Z</time>
      </trkpt>
      <trkpt lat="49.40347" lon="1.42853">
        <ele>164</ele>
        <time>2017-06-13T15:17:08Z</time>
      </trkpt>
      <trkpt lat="49.40347" lon="1.4286">
        <ele>164</ele>
        <time>2017-06-13T15:17:08Z</time>
      </trkpt>
      <trkpt lat="49.40346" lon="1.42866">
        <ele>164</ele>
        <time>2017-06-13T15:17:08Z</time>
      </trkpt>
      <trkpt lat="49.40345" lon="1.42874">
        <ele>164</ele>
        <time>2017-06-13T15:17:25Z</time>
      </trkpt>
      <trkpt lat="49.40344" lon="1.42881">
        <ele>162</ele>
        <time>2017-06-13T15:17:25Z</time>
      </trkpt>
      <trkpt lat="49.40343" lon="1.42888">
        <ele>162</ele>
        <time>2017-06-13T15:17:25Z</time>
      </trkpt>
      <trkpt lat="49.40343" lon="1.42895">
        <ele>162</ele>
        <time>2017-06-13T15:17:25Z</time>
      </trkpt>
      <trkpt lat="49.40343" lon="1.42903">
        <ele>162</ele>
        <time>2017-06-13T15:17:41Z</time>
      </trkpt>
      <trkpt lat="49.40342" lon="1.42909">
        <ele>162</ele>
        <time>2017-06-13T15:17:41Z</time>
      </trkpt>
      <trkpt lat="49.40341" lon="1.42915">
        <ele>162</ele>
        <time>2017-06-13T15:17:41Z</time>
      </trkpt>
      <trkpt lat="49.40341" lon="1.42924">
        <ele>162</ele>
        <time>2017-06-13T15:17:41Z</time>
      </trkpt>
      <trkpt lat="49.40341" lon="1.42929">
        <ele>162</ele>
        <time>2017-06-13T15:17:57Z</time>
      </trkpt>
      <trkpt lat="49.40342" lon="1.42935">
        <ele>162</ele>
        <time>2017-06-13T15:17:57Z</time>
      </trkpt>
      <trkpt lat="49.40344" lon="1.42942">
        <ele>162</ele>
        <time>2017-06-13T15:17:57Z</time>
      </trkpt>
      <trkpt lat="49.40346" lon="1.42947">
        <ele>162</ele>
        <time>2017-06-13T15:17:57Z</time>
      </trkpt>
      <trkpt lat="49.40346" lon="1.42953">
        <ele>162</ele>
        <time>2017-06-13T15:18:12Z</time>
      </trkpt>
      <trkpt lat="49.40348" lon="1.4296">
        <ele>158</ele>
        <time>2017-06-13T15:18:12Z</time>
      </trkpt>
      <trkpt lat="49.40349" lon="1.42966">
        <ele>158</ele>
        <time>2017-06-13T15:18:12Z</time>
      </trkpt>
      <trkpt lat="49.40352" lon="1.42971">
        <ele>158</ele>
        <time>2017-06-13T15:18:12Z</time>
      </trkpt>
      <trkpt lat="49.40355" lon="1.42975">
        <ele>158</ele>
        <time>2017-06-13T15:18:28Z</time>
      </trkpt>
      <trkpt lat="49.40359" lon="1.42978">
        <ele>158</ele>
        <time>2017-06-13T15:18:28Z</time>
      </trkpt>
      <trkpt lat="49.40363" lon="1.42981">
        <ele>158</ele>
        <time>2017-06-13T15:18:28Z</time>
      </trkpt>
      <trkpt lat="49.40367" lon="1.42984">
        <ele>158</ele>
        <time>2017-06-13T15:18:28Z</time>
      </trkpt>
      <trkpt lat="49.40371" lon="1.42986">
        <ele>158</ele>
        <time>2017-06-13T15:18:45Z</time>
      </trkpt>
      <trkpt lat="49.40375" lon="1.42986">
        <ele>158</ele>
        <time>2017-06-13T15:18:45Z</time>
      </trkpt>
      <trkpt lat="49.40378" lon="1.42988">
        <ele>159</ele>
        <time>2017-06-13T15:18:45Z</time>
      </trkpt>
      <trkpt lat="49.40383" lon="1.42994">
        <ele>159</ele>
        <time>2017-06-13T15:18:45Z</time>
      </trkpt>
      <trkpt lat="49.40388" lon="1.42996">
        <ele>159</ele>
        <time>2017-06-13T15:19:01Z</time>
      </trkpt>
      <trkpt lat="49.40391" lon="1.42998">
        <ele>159</ele>
        <time>2017-06-13T15:19:01Z</time>
      </trkpt>
      <trkpt lat="49.40395" lon="1.43">
        <ele>159</ele>
        <time>2017-06-13T15:19:01Z</time>
      </trkpt>
      <trkpt lat="49.404" lon="1.43002">
        <ele>159</ele>
        <time>2017-06-13T15:19:01Z</time>
      </trkpt>
      <trkpt lat="49.40405" lon="1.43004">
        <ele>159</ele>
        <time>2017-06-13T15:19:16Z</time>
      </trkpt>
      <trkpt lat="49.40409" lon="1.43005">
        <ele>159</ele>
        <time>2017-06-13T15:19:16Z</time>
      </trkpt>
      <trkpt lat="49.40413" lon="1.43006">
        <ele>159</ele>
        <time>2017-06-13T15:19:16Z</time>
      </trkpt>
      <trkpt lat="49.40417" lon="1.43007">
        <ele>159</ele>
        <time>2017-06-13T15:19:16Z</time>
      </trkpt>
      <trkpt lat="49.40422" lon="1.43009">
        <ele>159</ele>
        <time>2017-06-13T15:19:34Z</time>
      </trkpt>
      <trkpt lat="49.40427" lon="1.43009">
        <ele>159</ele>
        <time>2017-06-13T15:19:34Z</time>
      </trkpt>
      <trkpt lat="49.40431" lon="1.43008">
        <ele>159</ele>
        <time>2017-06-13T15:19:34Z</time>
      </trkpt>
      <trkpt lat="49.40436" lon="1.43009">
        <ele>159</ele>
        <time>2017-06-13T15:19:34Z</time>
      </trkpt>
      <trkpt lat="49.4044" lon="1.43011">
        <ele>159</ele>
        <time>2017-06-13T15:19:48Z</time>
      </trkpt>
      <trkpt lat="49.40444" lon="1.43013">
        <ele>159</ele>
        <time>2017-06-13T15:19:48Z</time>
      </trkpt>
      <trkpt lat="49.4045" lon="1.43016">
        <ele>159</ele>
        <time>2017-06-13T15:19:48Z</time>
      </trkpt>
      <trkpt lat="49.40454" lon="1.43017">
        <ele>159</ele>
        <time>2017-06-13T15:19:48Z</time>
      </trkpt>
      <trkpt lat="49.40458" lon="1.43022">
        <ele>159</ele>
        <time>2017-06-13T15:20:05Z</time>
      </trkpt>
      <trkpt lat="49.40461" lon="1.43026">
        <ele>163</ele>
        <time>2017-06-13T15:20:05Z</time>
      </trkpt>
      <trkpt lat="49.40463" lon="1.4304">
        <ele>163</ele>
        <time>2017-06-13T15:20:05Z</time>
      </trkpt>
      <trkpt lat="49.40462" lon="1.43047">
        <ele>160</ele>
        <time>2017-06-13T15:20:05Z</time>
      </trkpt>
      <trkpt lat="49.40461" lon="1.43057">
        <ele>160</ele>
        <time>2017-06-13T15:20:21Z</time>
      </trkpt>
      <trkpt lat="49.40463" lon="1.43061">
        <ele>160</ele>
        <time>2017-06-13T15:20:21Z</time>
      </trkpt>
      <trkpt lat="49.40466" lon="1.43064">
        <ele>160</ele>
        <time>2017-06-13T15:20:21Z</time>
      </trkpt>
      <trkpt lat="49.40469" lon="1.43071">
        <ele>160</ele>
        <time>2017-06-13T15:20:21Z</time>
      </trkpt>
      <trkpt lat="49.40468" lon="1.43071">
        <ele>160</ele>
        <time>2017-06-13T15:20:49Z</time>
      </trkpt>
      <trkpt lat="49.40463" lon="1.43074">
        <ele>160</ele>
        <time>2017-06-13T15:20:49Z</time>
      </trkpt>
      <trkpt lat="49.40451" lon="1.43084">
        <ele>157</ele>
        <time>2017-06-13T15:20:49Z</time>
      </trkpt>
      <trkpt lat="49.40447" lon="1.43094">
        <ele>157</ele>
        <time>2017-06-13T15:20:49Z</time>
      </trkpt>
      <trkpt lat="49.40444" lon="1.43102">
        <ele>157</ele>
        <time>2017-06-13T15:20:49Z</time>
      </trkpt>
      <trkpt lat="49.40442" lon="1.43108">
        <ele>157</ele>
        <time>2017-06-13T15:21:04Z</time>
      </trkpt>
      <trkpt lat="49.40441" lon="1.43112">
        <ele>157</ele>
        <time>2017-06-13T15:21:04Z</time>
      </trkpt>
      <trkpt lat="49.40439" lon="1.43118">
        <ele>157</ele>
        <time>2017-06-13T15:21:04Z</time>
      </trkpt>
      <trkpt lat="49.40436" lon="1.43123">
        <ele>157</ele>
        <time>2017-06-13T15:21:04Z</time>
      </trkpt>
      <trkpt lat="49.40433" lon="1.43126">
        <ele>160</ele>
        <time>2017-06-13T15:21:21Z</time>
      </trkpt>
      <trkpt lat="49.40432" lon="1.43129">
        <ele>160</ele>
        <time>2017-06-13T15:21:21Z</time>
      </trkpt>
      <trkpt lat="49.40429" lon="1.43132">
        <ele>160</ele>
        <time>2017-06-13T15:21:21Z</time>
      </trkpt>
      <trkpt lat="49.40426" lon="1.43139">
        <ele>160</ele>
        <time>2017-06-13T15:21:21Z</time>
      </trkpt>
      <trkpt lat="49.40424" lon="1.43143">
        <ele>160</ele>
        <time>2017-06-13T15:21:37Z</time>
      </trkpt>
      <trkpt lat="49.40422" lon="1.4315">
        <ele>160</ele>
        <time>2017-06-13T15:21:37Z</time>
      </trkpt>
      <trkpt lat="49.40421" lon="1.43157">
        <ele>160</ele>
        <time>2017-06-13T15:21:37Z</time>
      </trkpt>
      <trkpt lat="49.4042" lon="1.43165">
        <ele>160</ele>
        <time>2017-06-13T15:21:37Z</time>
      </trkpt>
      <trkpt lat="49.4042" lon="1.43171">
        <ele>160</ele>
        <time>2017-06-13T15:21:53Z</time>
      </trkpt>
      <trkpt lat="49.4042" lon="1.43178">
        <ele>160</ele>
        <time>2017-06-13T15:21:53Z</time>
      </trkpt>
      <trkpt lat="49.4042" lon="1.43186">
        <ele>160</ele>
        <time>2017-06-13T15:21:53Z</time>
      </trkpt>
      <trkpt lat="49.40419" lon="1.43191">
        <ele>160</ele>
        <time>2017-06-13T15:21:53Z</time>
      </trkpt>
      <trkpt lat="49.40418" lon="1.43199">
        <ele>160</ele>
        <time>2017-06-13T15:22:24Z</time>
      </trkpt>
      <trkpt lat="49.40415" lon="1.43203">
        <ele>160</ele>
        <time>2017-06-13T15:22:24Z</time>
      </trkpt>
      <trkpt lat="49.40412" lon="1.43208">
        <ele>160</ele>
        <time>2017-06-13T15:22:24Z</time>
      </trkpt>
      <trkpt lat="49.40408" lon="1.43214">
        <ele>164</ele>
        <time>2017-06-13T15:22:24Z</time>
      </trkpt>
      <trkpt lat="49.40406" lon="1.43218">
        <ele>164</ele>
        <time>2017-06-13T15:22:24Z</time>
      </trkpt>
      <trkpt lat="49.40403" lon="1.43224">
        <ele>164</ele>
        <time>2017-06-13T15:22:41Z</time>
      </trkpt>
      <trkpt lat="49.40401" lon="1.4323">
        <ele>164</ele>
        <time>2017-06-13T15:22:41Z</time>
      </trkpt>
      <trkpt lat="49.40398" lon="1.43235">
        <ele>164</ele>
        <time>2017-06-13T15:22:41Z</time>
      </trkpt>
      <trkpt lat="49.40395" lon="1.43241">
        <ele>164</ele>
        <time>2017-06-13T15:22:41Z</time>
      </trkpt>
      <trkpt lat="49.40392" lon="1.43245">
        <ele>164</ele>
        <time>2017-06-13T15:22:56Z</time>
      </trkpt>
      <trkpt lat="49.40389" lon="1.4325">
        <ele>164</ele>
        <time>2017-06-13T15:22:56Z</time>
      </trkpt>
      <trkpt lat="49.40386" lon="1.43255">
        <ele>164</ele>
        <time>2017-06-13T15:22:56Z</time>
      </trkpt>
      <trkpt lat="49.40384" lon="1.4326">
        <ele>164</ele>
        <time>2017-06-13T15:22:56Z</time>
      </trkpt>
      <trkpt lat="49.40381" lon="1.43265">
        <ele>164</ele>
        <time>2017-06-13T15:23:12Z</time>
      </trkpt>
      <trkpt lat="49.40378" lon="1.43271">
        <ele>164</ele>
        <time>2017-06-13T15:23:12Z</time>
      </trkpt>
      <trkpt lat="49.40376" lon="1.43274">
        <ele>164</ele>
        <time>2017-06-13T15:23:12Z</time>
      </trkpt>
      <trkpt lat="49.40374" lon="1.43279">
        <ele>164</ele>
        <time>2017-06-13T15:23:12Z</time>
      </trkpt>
      <trkpt lat="49.40371" lon="1.43285">
        <ele>164</ele>
        <time>2017-06-13T15:23:30Z</time>
      </trkpt>
      <trkpt lat="49.40369" lon="1.43287">
        <ele>164</ele>
        <time>2017-06-13T15:23:30Z</time>
      </trkpt>
      <trkpt lat="49.40367" lon="1.43291">
        <ele>164</ele>
        <time>2017-06-13T15:23:30Z</time>
      </trkpt>
      <trkpt lat="49.40364" lon="1.43297">
        <ele>167</ele>
        <time>2017-06-13T15:23:30Z</time>
      </trkpt>
      <trkpt lat="49.40362" lon="1.433">
        <ele>167</ele>
        <time>2017-06-13T15:23:44Z</time>
      </trkpt>
      <trkpt lat="49.40359" lon="1.43306">
        <ele>167</ele>
        <time>2017-06-13T15:23:44Z</time>
      </trkpt>
      <trkpt lat="49.40356" lon="1.43309">
        <ele>167</ele>
        <time>2017-06-13T15:23:44Z</time>
      </trkpt>
      <trkpt lat="49.40353" lon="1.43313">
        <ele>167</ele>
        <time>2017-06-13T15:23:44Z</time>
      </trkpt>
      <trkpt lat="49.40347" lon="1.43303">
        <ele>167</ele>
        <time>2017-06-13T15:24:13Z</time>
      </trkpt>
      <trkpt lat="49.40345" lon="1.43308">
        <ele>167</ele>
        <time>2017-06-13T15:24:13Z</time>
      </trkpt>
      <trkpt lat="49.40342" lon="1.43313">
        <ele>167</ele>
        <time>2017-06-13T15:24:13Z</time>
      </trkpt>
      <trkpt lat="49.40338" lon="1.4332">
        <ele>167</ele>
        <time>2017-06-13T15:24:13Z</time>
      </trkpt>
      <trkpt lat="49.40335" lon="1.43325">
        <ele>167</ele>
        <time>2017-06-13T15:24:13Z</time>
      </trkpt>
      <trkpt lat="49.40332" lon="1.43329">
        <ele>167</ele>
        <time>2017-06-13T15:24:33Z</time>
      </trkpt>
      <trkpt lat="49.40329" lon="1.43332">
        <ele>167</ele>
        <time>2017-06-13T15:24:33Z</time>
      </trkpt>
      <trkpt lat="49.40327" lon="1.43333">
        <ele>167</ele>
        <time>2017-06-13T15:24:33Z</time>
      </trkpt>
      <trkpt lat="49.40324" lon="1.43335">
        <ele>167</ele>
        <time>2017-06-13T15:24:33Z</time>
      </trkpt>
      <trkpt lat="49.40322" lon="1.43339">
        <ele>167</ele>
        <time>2017-06-13T15:24:33Z</time>
      </trkpt>
      <trkpt lat="49.40319" lon="1.43344">
        <ele>167</ele>
        <time>2017-06-13T15:24:49Z</time>
      </trkpt>
      <trkpt lat="49.40316" lon="1.43349">
        <ele>167</ele>
        <time>2017-06-13T15:24:49Z</time>
      </trkpt>
      <trkpt lat="49.4031" lon="1.43354">
        <ele>167</ele>
        <time>2017-06-13T15:24:49Z</time>
      </trkpt>
      <trkpt lat="49.40308" lon="1.43358">
        <ele>167</ele>
        <time>2017-06-13T15:24:49Z</time>
      </trkpt>
      <trkpt lat="49.40303" lon="1.43363">
        <ele>167</ele>
        <time>2017-06-13T15:25:05Z</time>
      </trkpt>
      <trkpt lat="49.403" lon="1.43367">
        <ele>167</ele>
        <time>2017-06-13T15:25:05Z</time>
      </trkpt>
      <trkpt lat="49.40296" lon="1.43371">
        <ele>167</ele>
        <time>2017-06-13T15:25:05Z</time>
      </trkpt>
      <trkpt lat="49.40289" lon="1.43375">
        <ele>168</ele>
        <time>2017-06-13T15:25:05Z</time>
      </trkpt>
      <trkpt lat="49.40283" lon="1.43377">
        <ele>168</ele>
        <time>2017-06-13T15:25:21Z</time>
      </trkpt>
      <trkpt lat="49.40278" lon="1.4338">
        <ele>168</ele>
        <time>2017-06-13T15:25:21Z</time>
      </trkpt>
      <trkpt lat="49.40274" lon="1.43383">
        <ele>168</ele>
        <time>2017-06-13T15:25:21Z</time>
      </trkpt>
      <trkpt lat="49.4027" lon="1.43385">
        <ele>168</ele>
        <time>2017-06-13T15:25:21Z</time>
      </trkpt>
      <trkpt lat="49.40266" lon="1.43388">
        <ele>168</ele>
        <time>2017-06-13T15:25:37Z</time>
      </trkpt>
      <trkpt lat="49.40262" lon="1.43391">
        <ele>168</ele>
        <time>2017-06-13T15:25:37Z</time>
      </trkpt>
      <trkpt lat="49.40258" lon="1.43394">
        <ele>168</ele>
        <time>2017-06-13T15:25:37Z</time>
      </trkpt>
      <trkpt lat="49.40254" lon="1.43397">
        <ele>168</ele>
        <time>2017-06-13T15:25:37Z</time>
      </trkpt>
      <trkpt lat="49.4025" lon="1.43401">
        <ele>168</ele>
        <time>2017-06-13T15:25:53Z</time>
      </trkpt>
      <trkpt lat="49.40245" lon="1.43404">
        <ele>168</ele>
        <time>2017-06-13T15:25:53Z</time>
      </trkpt>
      <trkpt lat="49.40242" lon="1.43406">
        <ele>168</ele>
        <time>2017-06-13T15:25:53Z</time>
      </trkpt>
      <trkpt lat="49.40238" lon="1.43408">
        <ele>168</ele>
        <time>2017-06-13T15:25:53Z</time>
      </trkpt>
      <trkpt lat="49.40226" lon="1.43415">
        <ele>168</ele>
        <time>2017-06-13T15:26:33Z</time>
      </trkpt>
      <trkpt lat="49.40224" lon="1.43414">
        <ele>168</ele>
        <time>2017-06-13T15:26:33Z</time>
      </trkpt>
      <trkpt lat="49.40221" lon="1.43411">
        <ele>168</ele>
        <time>2017-06-13T15:26:33Z</time>
      </trkpt>
      <trkpt lat="49.40217" lon="1.43404">
        <ele>168</ele>
        <time>2017-06-13T15:26:33Z</time>
      </trkpt>
      <trkpt lat="49.40213" lon="1.434">
        <ele>168</ele>
        <time>2017-06-13T15:26:33Z</time>
      </trkpt>
      <trkpt lat="49.40209" lon="1.43396">
        <ele>168</ele>
        <time>2017-06-13T15:26:49Z</time>
      </trkpt>
      <trkpt lat="49.40207" lon="1.43393">
        <ele>163</ele>
        <time>2017-06-13T15:26:49Z</time>
      </trkpt>
      <trkpt lat="49.40203" lon="1.43389">
        <ele>163</ele>
        <time>2017-06-13T15:26:49Z</time>
      </trkpt>
      <trkpt lat="49.40199" lon="1.43385">
        <ele>163</ele>
        <time>2017-06-13T15:26:49Z</time>
      </trkpt>
      <trkpt lat="49.40194" lon="1.43369">
        <ele>163</ele>
        <time>2017-06-13T15:27:05Z</time>
      </trkpt>
      <trkpt lat="49.4019" lon="1.43365">
        <ele>163</ele>
        <time>2017-06-13T15:27:05Z</time>
      </trkpt>
      <trkpt lat="49.40185" lon="1.43358">
        <ele>163</ele>
        <time>2017-06-13T15:27:05Z</time>
      </trkpt>
      <trkpt lat="49.40181" lon="1.43353">
        <ele>163</ele>
        <time>2017-06-13T15:27:05Z</time>
      </trkpt>
      <trkpt lat="49.40176" lon="1.43348">
        <ele>163</ele>
        <time>2017-06-13T15:27:21Z</time>
      </trkpt>
      <trkpt lat="49.40173" lon="1.43344">
        <ele>163</ele>
        <time>2017-06-13T15:27:21Z</time>
      </trkpt>
      <trkpt lat="49.40168" lon="1.43339">
        <ele>163</ele>
        <time>2017-06-13T15:27:21Z</time>
      </trkpt>
      <trkpt lat="49.40165" lon="1.43337">
        <ele>163</ele>
        <time>2017-06-13T15:27:21Z</time>
      </trkpt>
      <trkpt lat="49.40161" lon="1.43333">
        <ele>163</ele>
        <time>2017-06-13T15:27:37Z</time>
      </trkpt>
      <trkpt lat="49.40157" lon="1.43329">
        <ele>163</ele>
        <time>2017-06-13T15:27:37Z</time>
      </trkpt>
      <trkpt lat="49.40152" lon="1.43325">
        <ele>163</ele>
        <time>2017-06-13T15:27:37Z</time>
      </trkpt>
      <trkpt lat="49.40149" lon="1.43322">
        <ele>163</ele>
        <time>2017-06-13T15:27:37Z</time>
      </trkpt>
      <trkpt lat="49.40148" lon="1.43318">
        <ele>163</ele>
        <time>2017-06-13T15:27:54Z</time>
      </trkpt>
      <trkpt lat="49.40143" lon="1.43313">
        <ele>163</ele>
        <time>2017-06-13T15:27:54Z</time>
      </trkpt>
      <trkpt lat="49.40137" lon="1.43309">
        <ele>163</ele>
        <time>2017-06-13T15:27:54Z</time>
      </trkpt>
      <trkpt lat="49.40128" lon="1.4331">
        <ele>163</ele>
        <time>2017-06-13T15:27:54Z</time>
      </trkpt>
      <trkpt lat="49.40124" lon="1.43311">
        <ele>160</ele>
        <time>2017-06-13T15:28:09Z</time>
      </trkpt>
      <trkpt lat="49.40118" lon="1.43309">
        <ele>160</ele>
        <time>2017-06-13T15:28:09Z</time>
      </trkpt>
      <trkpt lat="49.40115" lon="1.43307">
        <ele>160</ele>
        <time>2017-06-13T15:28:09Z</time>
      </trkpt>
      <trkpt lat="49.40111" lon="1.43306">
        <ele>160</ele>
        <time>2017-06-13T15:28:09Z</time>
      </trkpt>
      <trkpt lat="49.40107" lon="1.43306">
        <ele>160</ele>
        <time>2017-06-13T15:28:25Z</time>
      </trkpt>
      <trkpt lat="49.40103" lon="1.43303">
        <ele>160</ele>
        <time>2017-06-13T15:28:25Z</time>
      </trkpt>
      <trkpt lat="49.40099" lon="1.433">
        <ele>160</ele>
        <time>2017-06-13T15:28:25Z</time>
      </trkpt>
      <trkpt lat="49.40095" lon="1.43298">
        <ele>160</ele>
        <time>2017-06-13T15:28:25Z</time>
      </trkpt>
      <trkpt lat="49.40088" lon="1.43294">
        <ele>160</ele>
        <time>2017-06-13T15:28:40Z</time>
      </trkpt>
      <trkpt lat="49.40083" lon="1.43289">
        <ele>160</ele>
        <time>2017-06-13T15:28:40Z</time>
      </trkpt>
      <trkpt lat="49.40078" lon="1.43288">
        <ele>160</ele>
        <time>2017-06-13T15:28:40Z</time>
      </trkpt>
      <trkpt lat="49.40073" lon="1.43289">
        <ele>160</ele>
        <time>2017-06-13T15:28:40Z</time>
      </trkpt>
      <trkpt lat="49.40069" lon="1.43285">
        <ele>160</ele>
        <time>2017-06-13T15:28:57Z</time>
      </trkpt>
      <trkpt lat="49.40065" lon="1.43282">
        <ele>160</ele>
        <time>2017-06-13T15:28:57Z</time>
      </trkpt>
      <trkpt lat="49.40061" lon="1.4328">
        <ele>160</ele>
        <time>2017-06-13T15:28:57Z</time>
      </trkpt>
      <trkpt lat="49.40056" lon="1.43279">
        <ele>160</ele>
        <time>2017-06-13T15:28:57Z</time>
      </trkpt>
      <trkpt lat="49.40052" lon="1.43278">
        <ele>160</ele>
        <time>2017-06-13T15:29:12Z</time>
      </trkpt>
      <trkpt lat="49.40046" lon="1.43277">
        <ele>160</ele>
        <time>2017-06-13T15:29:12Z</time>
      </trkpt>
      <trkpt lat="49.40041" lon="1.43274">
        <ele>153</ele>
        <time>2017-06-13T15:29:12Z</time>
      </trkpt>
      <trkpt lat="49.40035" lon="1.43274">
        <ele>153</ele>
        <time>2017-06-13T15:29:12Z</time>
      </trkpt>
      <trkpt lat="49.40029" lon="1.43273">
        <ele>153</ele>
        <time>2017-06-13T15:29:28Z</time>
      </trkpt>
      <trkpt lat="49.40025" lon="1.43274">
        <ele>153</ele>
        <time>2017-06-13T15:29:28Z</time>
      </trkpt>
      <trkpt lat="49.4002" lon="1.43273">
        <ele>153</ele>
        <time>2017-06-13T15:29:28Z</time>
      </trkpt>
      <trkpt lat="49.40015" lon="1.43272">
        <ele>153</ele>
        <time>2017-06-13T15:29:28Z</time>
      </trkpt>
      <trkpt lat="49.40009" lon="1.43272">
        <ele>153</ele>
        <time>2017-06-13T15:29:45Z</time>
      </trkpt>
      <trkpt lat="49.40004" lon="1.4327">
        <ele>153</ele>
        <time>2017-06-13T15:29:45Z</time>
      </trkpt>
      <trkpt lat="49.39999" lon="1.43269">
        <ele>153</ele>
        <time>2017-06-13T15:29:45Z</time>
      </trkpt>
      <trkpt lat="49.39995" lon="1.43268">
        <ele>153</ele>
        <time>2017-06-13T15:29:45Z</time>
      </trkpt>
      <trkpt lat="49.3999" lon="1.43268">
        <ele>153</ele>
        <time>2017-06-13T15:30:02Z</time>
      </trkpt>
      <trkpt lat="49.39985" lon="1.43268">
        <ele>153</ele>
        <time>2017-06-13T15:30:02Z</time>
      </trkpt>
      <trkpt lat="49.39981" lon="1.43267">
        <ele>153</ele>
        <time>2017-06-13T15:30:02Z</time>
      </trkpt>
      <trkpt lat="49.39975" lon="1.43265">
        <ele>153</ele>
        <time>2017-06-13T15:30:02Z</time>
      </trkpt>
      <trkpt lat="49.39972" lon="1.43264">
        <ele>153</ele>
        <time>2017-06-13T15:30:16Z</time>
      </trkpt>
      <trkpt lat="49.39967" lon="1.43264">
        <ele>153</ele>
        <time>2017-06-13T15:30:16Z</time>
      </trkpt>
      <trkpt lat="49.39964" lon="1.43264">
        <ele>153</ele>
        <time>2017-06-13T15:30:16Z</time>
      </trkpt>
      <trkpt lat="49.39958" lon="1.43265">
        <ele>146</ele>
        <time>2017-06-13T15:30:16Z</time>
      </trkpt>
      <trkpt lat="49.39954" lon="1.43265">
        <ele>146</ele>
        <time>2017-06-13T15:30:33Z</time>
      </trkpt>
      <trkpt lat="49.39949" lon="1.43265">
        <ele>146</ele>
        <time>2017-06-13T15:30:33Z</time>
      </trkpt>
      <trkpt lat="49.39944" lon="1.43266">
        <ele>146</ele>
        <time>2017-06-13T15:30:33Z</time>
      </trkpt>
      <trkpt lat="49.3994" lon="1.43267">
        <ele>146</ele>
        <time>2017-06-13T15:30:33Z</time>
      </trkpt>
      <trkpt lat="49.39935" lon="1.43267">
        <ele>146</ele>
        <time>2017-06-13T15:30:49Z</time>
      </trkpt>
      <trkpt lat="49.3993" lon="1.43268">
        <ele>146</ele>
        <time>2017-06-13T15:30:49Z</time>
      </trkpt>
      <trkpt lat="49.39926" lon="1.43269">
        <ele>146</ele>
        <time>2017-06-13T15:30:49Z</time>
      </trkpt>
      <trkpt lat="49.39922" lon="1.4327">
        <ele>146</ele>
        <time>2017-06-13T15:30:49Z</time>
      </trkpt>
      <trkpt lat="49.39917" lon="1.43271">
        <ele>146</ele>
        <time>2017-06-13T15:31:05Z</time>
      </trkpt>
      <trkpt lat="49.39911" lon="1.4327">
        <ele>146</ele>
        <time>2017-06-13T15:31:05Z</time>
      </trkpt>
      <trkpt lat="49.39907" lon="1.43269">
        <ele>146</ele>
        <time>2017-06-13T15:31:05Z</time>
      </trkpt>
      <trkpt lat="49.39903" lon="1.43267">
        <ele>146</ele>
        <time>2017-06-13T15:31:05Z</time>
      </trkpt>
      <trkpt lat="49.39898" lon="1.43265">
        <ele>146</ele>
        <time>2017-06-13T15:31:21Z</time>
      </trkpt>
      <trkpt lat="49.39894" lon="1.43263">
        <ele>146</ele>
        <time>2017-06-13T15:31:21Z</time>
      </trkpt>
      <trkpt lat="49.39889" lon="1.43262">
        <ele>146</ele>
        <time>2017-06-13T15:31:21Z</time>
      </trkpt>
      <trkpt lat="49.39885" lon="1.43259">
        <ele>146</ele>
        <time>2017-06-13T15:31:21Z</time>
      </trkpt>
      <trkpt lat="49.3988" lon="1.43257">
        <ele>146</ele>
        <time>2017-06-13T15:31:37Z</time>
      </trkpt>
      <trkpt lat="49.39876" lon="1.43255">
        <ele>146</ele>
        <time>2017-06-13T15:31:37Z</time>
      </trkpt>
      <trkpt lat="49.39871" lon="1.43253">
        <ele>144</ele>
        <time>2017-06-13T15:31:37Z</time>
      </trkpt>
      <trkpt lat="49.39866" lon="1.4325">
        <ele>144</ele>
        <time>2017-06-13T15:31:37Z</time>
      </trkpt>
      <trkpt lat="49.39862" lon="1.43249">
        <ele>144</ele>
        <time>2017-06-13T15:31:53Z</time>
      </trkpt>
      <trkpt lat="49.39858" lon="1.43247">
        <ele>144</ele>
        <time>2017-06-13T15:31:53Z</time>
      </trkpt>
      <trkpt lat="49.39853" lon="1.43245">
        <ele>144</ele>
        <time>2017-06-13T15:31:53Z</time>
      </trkpt>
      <trkpt lat="49.39849" lon="1.43242">
        <ele>144</ele>
        <time>2017-06-13T15:31:53Z</time>
      </trkpt>
      <trkpt lat="49.39845" lon="1.43239">
        <ele>144</ele>
        <time>2017-06-13T15:32:09Z</time>
      </trkpt>
      <trkpt lat="49.3984" lon="1.43236">
        <ele>144</ele>
        <time>2017-06-13T15:32:09Z</time>
      </trkpt>
      <trkpt lat="49.39834" lon="1.43234">
        <ele>144</ele>
        <time>2017-06-13T15:32:09Z</time>
      </trkpt>
      <trkpt lat="49.39831" lon="1.43233">
        <ele>144</ele>
        <time>2017-06-13T15:32:09Z</time>
      </trkpt>
      <trkpt lat="49.39826" lon="1.43229">
        <ele>144</ele>
        <time>2017-06-13T15:32:25Z</time>
      </trkpt>
      <trkpt lat="49.39821" lon="1.43223">
        <ele>144</ele>
        <time>2017-06-13T15:32:25Z</time>
      </trkpt>
      <trkpt lat="49.39818" lon="1.43217">
        <ele>144</ele>
        <time>2017-06-13T15:32:25Z</time>
      </trkpt>
      <trkpt lat="49.39813" lon="1.43211">
        <ele>144</ele>
        <time>2017-06-13T15:32:25Z</time>
      </trkpt>
      <trkpt lat="49.3981" lon="1.43208">
        <ele>144</ele>
        <time>2017-06-13T15:32:40Z</time>
      </trkpt>
      <trkpt lat="49.39807" lon="1.43204">
        <ele>144</ele>
        <time>2017-06-13T15:32:40Z</time>
      </trkpt>
      <trkpt lat="49.39802" lon="1.432">
        <ele>144</ele>
        <time>2017-06-13T15:32:40Z</time>
      </trkpt>
      <trkpt lat="49.39798" lon="1.43197">
        <ele>144</ele>
        <time>2017-06-13T15:32:40Z</time>
      </trkpt>
      <trkpt lat="49.39794" lon="1.43192">
        <ele>144</ele>
        <time>2017-06-13T15:32:56Z</time>
      </trkpt>
      <trkpt lat="49.39791" lon="1.43189">
        <ele>141</ele>
        <time>2017-06-13T15:32:56Z</time>
      </trkpt>
      <trkpt lat="49.39787" lon="1.43185">
        <ele>141</ele>
        <time>2017-06-13T15:32:56Z</time>
      </trkpt>
      <trkpt lat="49.39782" lon="1.43181">
        <ele>141</ele>
        <time>2017-06-13T15:32:56Z</time>
      </trkpt>
      <trkpt lat="49.39777" lon="1.43177">
        <ele>141</ele>
        <time>2017-06-13T15:33:13Z</time>
      </trkpt>
      <trkpt lat="49.39774" lon="1.43174">
        <ele>141</ele>
        <time>2017-06-13T15:33:13Z</time>
      </trkpt>
      <trkpt lat="49.39769" lon="1.43171">
        <ele>141</ele>
        <time>2017-06-13T15:33:13Z</time>
      </trkpt>
      <trkpt lat="49.39765" lon="1.4317">
        <ele>141</ele>
        <time>2017-06-13T15:33:13Z</time>
      </trkpt>
      <trkpt lat="49.3976" lon="1.43168">
        <ele>141</ele>
        <time>2017-06-13T15:33:28Z</time>
      </trkpt>
      <trkpt lat="49.39756" lon="1.43167">
        <ele>141</ele>
        <time>2017-06-13T15:33:28Z</time>
      </trkpt>
      <trkpt lat="49.39751" lon="1.43165">
        <ele>141</ele>
        <time>2017-06-13T15:33:28Z</time>
      </trkpt>
      <trkpt lat="49.39747" lon="1.43162">
        <ele>141</ele>
        <time>2017-06-13T15:33:28Z</time>
      </trkpt>
      <trkpt lat="49.39742" lon="1.4316">
        <ele>141</ele>
        <time>2017-06-13T15:33:44Z</time>
      </trkpt>
      <trkpt lat="49.39737" lon="1.43159">
        <ele>141</ele>
        <time>2017-06-13T15:33:44Z</time>
      </trkpt>
      <trkpt lat="49.39733" lon="1.43158">
        <ele>141</ele>
        <time>2017-06-13T15:33:44Z</time>
      </trkpt>
      <trkpt lat="49.39728" lon="1.43157">
        <ele>141</ele>
        <time>2017-06-13T15:33:44Z</time>
      </trkpt>
      <trkpt lat="49.39723" lon="1.43155">
        <ele>141</ele>
        <time>2017-06-13T15:34:01Z</time>
      </trkpt>
      <trkpt lat="49.39718" lon="1.43153">
        <ele>141</ele>
        <time>2017-06-13T15:34:01Z</time>
      </trkpt>
      <trkpt lat="49.39713" lon="1.43153">
        <ele>141</ele>
        <time>2017-06-13T15:34:01Z</time>
      </trkpt>
      <trkpt lat="49.39709" lon="1.43151">
        <ele>141</ele>
        <time>2017-06-13T15:34:01Z</time>
      </trkpt>
      <trkpt lat="49.39703" lon="1.43149">
        <ele>139</ele>
        <time>2017-06-13T15:34:17Z</time>
      </trkpt>
      <trkpt lat="49.397" lon="1.43148">
        <ele>139</ele>
        <time>2017-06-13T15:34:17Z</time>
      </trkpt>
      <trkpt lat="49.39695" lon="1.43146">
        <ele>139</ele>
        <time>2017-06-13T15:34:17Z</time>
      </trkpt>
      <trkpt lat="49.3969" lon="1.43145">
        <ele>139</ele>
        <time>2017-06-13T15:34:17Z</time>
      </trkpt>
      <trkpt lat="49.39684" lon="1.43143">
        <ele>139</ele>
        <time>2017-06-13T15:34:34Z</time>
      </trkpt>
      <trkpt lat="49.39679" lon="1.43142">
        <ele>139</ele>
        <time>2017-06-13T15:34:34Z</time>
      </trkpt>
      <trkpt lat="49.39674" lon="1.4314">
        <ele>139</ele>
        <time>2017-06-13T15:34:34Z</time>
      </trkpt>
      <trkpt lat="49.39667" lon="1.43138">
        <ele>139</ele>
        <time>2017-06-13T15:34:34Z</time>
      </trkpt>
      <trkpt lat="49.39662" lon="1.4314">
        <ele>139</ele>
        <time>2017-06-13T15:34:49Z</time>
      </trkpt>
      <trkpt lat="49.39651" lon="1.43141">
        <ele>139</ele>
        <time>2017-06-13T15:34:49Z</time>
      </trkpt>
      <trkpt lat="49.39643" lon="1.43137">
        <ele>139</ele>
        <time>2017-06-13T15:34:49Z</time>
      </trkpt>
      <trkpt lat="49.39637" lon="1.43135">
        <ele>139</ele>
        <time>2017-06-13T15:34:49Z</time>
      </trkpt>
      <trkpt lat="49.39632" lon="1.43135">
        <ele>139</ele>
        <time>2017-06-13T15:35:06Z</time>
      </trkpt>
      <trkpt lat="49.39628" lon="1.43135">
        <ele>139</ele>
        <time>2017-06-13T15:35:06Z</time>
      </trkpt>
      <trkpt lat="49.39624" lon="1.43139">
        <ele>140</ele>
        <time>2017-06-13T15:35:06Z</time>
      </trkpt>
      <trkpt lat="49.3962" lon="1.43139">
        <ele>140</ele>
        <time>2017-06-13T15:35:06Z</time>
      </trkpt>
      <trkpt lat="49.39616" lon="1.43139">
        <ele>140</ele>
        <time>2017-06-13T15:35:20Z</time>
      </trkpt>
      <trkpt lat="49.39608" lon="1.43139">
        <ele>140</ele>
        <time>2017-06-13T15:35:20Z</time>
      </trkpt>
      <trkpt lat="49.39605" lon="1.43138">
        <ele>140</ele>
        <time>2017-06-13T15:35:20Z</time>
      </trkpt>
      <trkpt lat="49.396" lon="1.43137">
        <ele>140</ele>
        <time>2017-06-13T15:35:20Z</time>
      </trkpt>
      <trkpt lat="49.39595" lon="1.43136">
        <ele>140</ele>
        <time>2017-06-13T15:35:37Z</time>
      </trkpt>
      <trkpt lat="49.3959" lon="1.43134">
        <ele>140</ele>
        <time>2017-06-13T15:35:37Z</time>
      </trkpt>
      <trkpt lat="49.39585" lon="1.43133">
        <ele>140</ele>
        <time>2017-06-13T15:35:37Z</time>
      </trkpt>
      <trkpt lat="49.3958" lon="1.43131">
        <ele>140</ele>
        <time>2017-06-13T15:35:37Z</time>
      </trkpt>
      <trkpt lat="49.39576" lon="1.43129">
        <ele>140</ele>
        <time>2017-06-13T15:35:53Z</time>
      </trkpt>
      <trkpt lat="49.39568" lon="1.4313">
        <ele>140</ele>
        <time>2017-06-13T15:35:53Z</time>
      </trkpt>
      <trkpt lat="49.39566" lon="1.4313">
        <ele>140</ele>
        <time>2017-06-13T15:35:53Z</time>
      </trkpt>
      <trkpt lat="49.39562" lon="1.4313">
        <ele>140</ele>
        <time>2017-06-13T15:35:53Z</time>
      </trkpt>
      <trkpt lat="49.39557" lon="1.43132">
        <ele>140</ele>
        <time>2017-06-13T15:36:09Z</time>
      </trkpt>
      <trkpt lat="49.39553" lon="1.43131">
        <ele>140</ele>
        <time>2017-06-13T15:36:09Z</time>
      </trkpt>
      <trkpt lat="49.39549" lon="1.43131">
        <ele>140</ele>
        <time>2017-06-13T15:36:09Z</time>
      </trkpt>
      <trkpt lat="49.39543" lon="1.4313">
        <ele>140</ele>
        <time>2017-06-13T15:36:09Z</time>
      </trkpt>
      <trkpt lat="49.39538" lon="1.43129">
        <ele>135</ele>
        <time>2017-06-13T15:36:24Z</time>
      </trkpt>
      <trkpt lat="49.39533" lon="1.43128">
        <ele>135</ele>
        <time>2017-06-13T15:36:24Z</time>
      </trkpt>
      <trkpt lat="49.39528" lon="1.43128">
        <ele>135</ele>
        <time>2017-06-13T15:36:24Z</time>
      </trkpt>
      <trkpt lat="49.39524" lon="1.43128">
        <ele>135</ele>
        <time>2017-06-13T15:36:24Z</time>
      </trkpt>
      <trkpt lat="49.39518" lon="1.43128">
        <ele>135</ele>
        <time>2017-06-13T15:36:41Z</time>
      </trkpt>
      <trkpt lat="49.39515" lon="1.43127">
        <ele>135</ele>
        <time>2017-06-13T15:36:41Z</time>
      </trkpt>
      <trkpt lat="49.3951" lon="1.43126">
        <ele>135</ele>
        <time>2017-06-13T15:36:41Z</time>
      </trkpt>
      <trkpt lat="49.39504" lon="1.43125">
        <ele>138</ele>
        <time>2017-06-13T15:36:42Z</time>
      </trkpt>
      <trkpt lat="49.39501" lon="1.43124">
        <ele>138</ele>
        <time>2017-06-13T15:36:57Z</time>
      </trkpt>
      <trkpt lat="49.39496" lon="1.43121">
        <ele>138</ele>
        <time>2017-06-13T15:36:57Z</time>
      </trkpt>
      <trkpt lat="49.3949" lon="1.43118">
        <ele>138</ele>
        <time>2017-06-13T15:36:57Z</time>
      </trkpt>
      <trkpt lat="49.39486" lon="1.43116">
        <ele>138</ele>
        <time>2017-06-13T15:36:57Z</time>
      </trkpt>
      <trkpt lat="49.39482" lon="1.43115">
        <ele>138</ele>
        <time>2017-06-13T15:37:13Z</time>
      </trkpt>
      <trkpt lat="49.39478" lon="1.43113">
        <ele>138</ele>
        <time>2017-06-13T15:37:13Z</time>
      </trkpt>
      <trkpt lat="49.39474" lon="1.43111">
        <ele>138</ele>
        <time>2017-06-13T15:37:13Z</time>
      </trkpt>
      <trkpt lat="49.3947" lon="1.43109">
        <ele>138</ele>
        <time>2017-06-13T15:37:13Z</time>
      </trkpt>
      <trkpt lat="49.39466" lon="1.4311">
        <ele>138</ele>
        <time>2017-06-13T15:37:29Z</time>
      </trkpt>
      <trkpt lat="49.3946" lon="1.4311">
        <ele>138</ele>
        <time>2017-06-13T15:37:29Z</time>
      </trkpt>
      <trkpt lat="49.39453" lon="1.4311">
        <ele>134</ele>
        <time>2017-06-13T15:37:29Z</time>
      </trkpt>
      <trkpt lat="49.39448" lon="1.43109">
        <ele>134</ele>
        <time>2017-06-13T15:37:29Z</time>
      </trkpt>
      <trkpt lat="49.39444" lon="1.43109">
        <ele>134</ele>
        <time>2017-06-13T15:37:44Z</time>
      </trkpt>
      <trkpt lat="49.3944" lon="1.43108">
        <ele>134</ele>
        <time>2017-06-13T15:37:44Z</time>
      </trkpt>
      <trkpt lat="49.39433" lon="1.43108">
        <ele>134</ele>
        <time>2017-06-13T15:37:44Z</time>
      </trkpt>
      <trkpt lat="49.39427" lon="1.43109">
        <ele>134</ele>
        <time>2017-06-13T15:37:44Z</time>
      </trkpt>
      <trkpt lat="49.39422" lon="1.4311">
        <ele>134</ele>
        <time>2017-06-13T15:38:01Z</time>
      </trkpt>
      <trkpt lat="49.39417" lon="1.43111">
        <ele>134</ele>
        <time>2017-06-13T15:38:01Z</time>
      </trkpt>
      <trkpt lat="49.39416" lon="1.43111">
        <ele>134</ele>
        <time>2017-06-13T15:38:01Z</time>
      </trkpt>
      <trkpt lat="49.39411" lon="1.4311">
        <ele>134</ele>
        <time>2017-06-13T15:38:01Z</time>
      </trkpt>
      <trkpt lat="49.39406" lon="1.43111">
        <ele>134</ele>
        <time>2017-06-13T15:38:17Z</time>
      </trkpt>
      <trkpt lat="49.39401" lon="1.43111">
        <ele>134</ele>
        <time>2017-06-13T15:38:17Z</time>
      </trkpt>
      <trkpt lat="49.39398" lon="1.43111">
        <ele>134</ele>
        <time>2017-06-13T15:38:17Z</time>
      </trkpt>
      <trkpt lat="49.39392" lon="1.43111">
        <ele>134</ele>
        <time>2017-06-13T15:38:17Z</time>
      </trkpt>
      <trkpt lat="49.39386" lon="1.43111">
        <ele>134</ele>
        <time>2017-06-13T15:38:32Z</time>
      </trkpt>
      <trkpt lat="49.39381" lon="1.43112">
        <ele>134</ele>
        <time>2017-06-13T15:38:32Z</time>
      </trkpt>
      <trkpt lat="49.39376" lon="1.43115">
        <ele>134</ele>
        <time>2017-06-13T15:38:32Z</time>
      </trkpt>
      <trkpt lat="49.39372" lon="1.43119">
        <ele>130</ele>
        <time>2017-06-13T15:38:32Z</time>
      </trkpt>
      <trkpt lat="49.39367" lon="1.43124">
        <ele>130</ele>
        <time>2017-06-13T15:38:48Z</time>
      </trkpt>
      <trkpt lat="49.39364" lon="1.43126">
        <ele>129</ele>
        <time>2017-06-13T15:38:48Z</time>
      </trkpt>
      <trkpt lat="49.39359" lon="1.43128">
        <ele>129</ele>
        <time>2017-06-13T15:38:48Z</time>
      </trkpt>
      <trkpt lat="49.39355" lon="1.43128">
        <ele>129</ele>
        <time>2017-06-13T15:38:48Z</time>
      </trkpt>
      <trkpt lat="49.3935" lon="1.43127">
        <ele>129</ele>
        <time>2017-06-13T15:39:05Z</time>
      </trkpt>
      <trkpt lat="49.39345" lon="1.43129">
        <ele>129</ele>
        <time>2017-06-13T15:39:05Z</time>
      </trkpt>
      <trkpt lat="49.3934" lon="1.4313">
        <ele>129</ele>
        <time>2017-06-13T15:39:05Z</time>
      </trkpt>
      <trkpt lat="49.39336" lon="1.43131">
        <ele>129</ele>
        <time>2017-06-13T15:39:05Z</time>
      </trkpt>
      <trkpt lat="49.39331" lon="1.43131">
        <ele>129</ele>
        <time>2017-06-13T15:39:21Z</time>
      </trkpt>
      <trkpt lat="49.39327" lon="1.43133">
        <ele>129</ele>
        <time>2017-06-13T15:39:21Z</time>
      </trkpt>
      <trkpt lat="49.39321" lon="1.43134">
        <ele>129</ele>
        <time>2017-06-13T15:39:21Z</time>
      </trkpt>
      <trkpt lat="49.39316" lon="1.43136">
        <ele>129</ele>
        <time>2017-06-13T15:39:21Z</time>
      </trkpt>
      <trkpt lat="49.39312" lon="1.4314">
        <ele>129</ele>
        <time>2017-06-13T15:39:36Z</time>
      </trkpt>
      <trkpt lat="49.39308" lon="1.43139">
        <ele>129</ele>
        <time>2017-06-13T15:39:36Z</time>
      </trkpt>
      <trkpt lat="49.39303" lon="1.43138">
        <ele>129</ele>
        <time>2017-06-13T15:39:36Z</time>
      </trkpt>
      <trkpt lat="49.39299" lon="1.43135">
        <ele>129</ele>
        <time>2017-06-13T15:39:36Z</time>
      </trkpt>
      <trkpt lat="49.39294" lon="1.43132">
        <ele>129</ele>
        <time>2017-06-13T15:39:52Z</time>
      </trkpt>
      <trkpt lat="49.3929" lon="1.43128">
        <ele>125</ele>
        <time>2017-06-13T15:39:52Z</time>
      </trkpt>
      <trkpt lat="49.39287" lon="1.43125">
        <ele>126</ele>
        <time>2017-06-13T15:39:52Z</time>
      </trkpt>
      <trkpt lat="49.39283" lon="1.43121">
        <ele>126</ele>
        <time>2017-06-13T15:39:52Z</time>
      </trkpt>
      <trkpt lat="49.39279" lon="1.43116">
        <ele>126</ele>
        <time>2017-06-13T15:40:09Z</time>
      </trkpt>
      <trkpt lat="49.39275" lon="1.43109">
        <ele>126</ele>
        <time>2017-06-13T15:40:09Z</time>
      </trkpt>
      <trkpt lat="49.39272" lon="1.43105">
        <ele>126</ele>
        <time>2017-06-13T15:40:09Z</time>
      </trkpt>
      <trkpt lat="49.39269" lon="1.431">
        <ele>126</ele>
        <time>2017-06-13T15:40:09Z</time>
      </trkpt>
      <trkpt lat="49.39266" lon="1.43094">
        <ele>126</ele>
        <time>2017-06-13T15:40:24Z</time>
      </trkpt>
      <trkpt lat="49.39262" lon="1.43087">
        <ele>126</ele>
        <time>2017-06-13T15:40:24Z</time>
      </trkpt>
      <trkpt lat="49.39257" lon="1.43079">
        <ele>126</ele>
        <time>2017-06-13T15:40:24Z</time>
      </trkpt>
      <trkpt lat="49.39255" lon="1.43075">
        <ele>126</ele>
        <time>2017-06-13T15:40:24Z</time>
      </trkpt>
      <trkpt lat="49.39254" lon="1.43069">
        <ele>126</ele>
        <time>2017-06-13T15:40:41Z</time>
      </trkpt>
      <trkpt lat="49.3925" lon="1.43064">
        <ele>126</ele>
        <time>2017-06-13T15:40:41Z</time>
      </trkpt>
      <trkpt lat="49.39247" lon="1.43059">
        <ele>126</ele>
        <time>2017-06-13T15:40:41Z</time>
      </trkpt>
      <trkpt lat="49.39244" lon="1.43055">
        <ele>126</ele>
        <time>2017-06-13T15:40:41Z</time>
      </trkpt>
      <trkpt lat="49.3924" lon="1.43049">
        <ele>126</ele>
        <time>2017-06-13T15:40:57Z</time>
      </trkpt>
      <trkpt lat="49.39237" lon="1.43042">
        <ele>126</ele>
        <time>2017-06-13T15:40:57Z</time>
      </trkpt>
      <trkpt lat="49.39235" lon="1.43036">
        <ele>125</ele>
        <time>2017-06-13T15:40:57Z</time>
      </trkpt>
      <trkpt lat="49.39232" lon="1.4303">
        <ele>125</ele>
        <time>2017-06-13T15:40:57Z</time>
      </trkpt>
      <trkpt lat="49.39229" lon="1.43025">
        <ele>125</ele>
        <time>2017-06-13T15:41:12Z</time>
      </trkpt>
      <trkpt lat="49.39225" lon="1.43018">
        <ele>125</ele>
        <time>2017-06-13T15:41:12Z</time>
      </trkpt>
      <trkpt lat="49.39222" lon="1.43012">
        <ele>125</ele>
        <time>2017-06-13T15:41:12Z</time>
      </trkpt>
      <trkpt lat="49.3922" lon="1.43008">
        <ele>125</ele>
        <time>2017-06-13T15:41:12Z</time>
      </trkpt>
      <trkpt lat="49.39217" lon="1.43001">
        <ele>125</ele>
        <time>2017-06-13T15:41:28Z</time>
      </trkpt>
      <trkpt lat="49.39215" lon="1.42997">
        <ele>125</ele>
        <time>2017-06-13T15:41:28Z</time>
      </trkpt>
      <trkpt lat="49.39212" lon="1.4299">
        <ele>125</ele>
        <time>2017-06-13T15:41:28Z</time>
      </trkpt>
      <trkpt lat="49.39209" lon="1.42983">
        <ele>125</ele>
        <time>2017-06-13T15:41:28Z</time>
      </trkpt>
      <trkpt lat="49.39208" lon="1.42976">
        <ele>122</ele>
        <time>2017-06-13T15:41:45Z</time>
      </trkpt>
      <trkpt lat="49.39206" lon="1.42972">
        <ele>122</ele>
        <time>2017-06-13T15:41:45Z</time>
      </trkpt>
      <trkpt lat="49.39202" lon="1.42966">
        <ele>122</ele>
        <time>2017-06-13T15:41:45Z</time>
      </trkpt>
      <trkpt lat="49.39199" lon="1.4296">
        <ele>122</ele>
        <time>2017-06-13T15:41:45Z</time>
      </trkpt>
      <trkpt lat="49.39196" lon="1.42954">
        <ele>122</ele>
        <time>2017-06-13T15:42:01Z</time>
      </trkpt>
      <trkpt lat="49.39192" lon="1.42948">
        <ele>122</ele>
        <time>2017-06-13T15:42:01Z</time>
      </trkpt>
      <trkpt lat="49.3919" lon="1.42945">
        <ele>122</ele>
        <time>2017-06-13T15:42:01Z</time>
      </trkpt>
      <trkpt lat="49.39185" lon="1.42938">
        <ele>122</ele>
        <time>2017-06-13T15:42:01Z</time>
      </trkpt>
      <trkpt lat="49.39184" lon="1.42931">
        <ele>122</ele>
        <time>2017-06-13T15:42:17Z</time>
      </trkpt>
      <trkpt lat="49.39182" lon="1.42926">
        <ele>122</ele>
        <time>2017-06-13T15:42:17Z</time>
      </trkpt>
      <trkpt lat="49.3918" lon="1.42922">
        <ele>122</ele>
        <time>2017-06-13T15:42:17Z</time>
      </trkpt>
      <trkpt lat="49.39177" lon="1.42917">
        <ele>122</ele>
        <time>2017-06-13T15:42:17Z</time>
      </trkpt>
      <trkpt lat="49.39174" lon="1.42913">
        <ele>122</ele>
        <time>2017-06-13T15:42:33Z</time>
      </trkpt>
      <trkpt lat="49.39171" lon="1.42907">
        <ele>122</ele>
        <time>2017-06-13T15:42:33Z</time>
      </trkpt>
      <trkpt lat="49.39168" lon="1.42901">
        <ele>122</ele>
        <time>2017-06-13T15:42:33Z</time>
      </trkpt>
      <trkpt lat="49.39165" lon="1.42895">
        <ele>122</ele>
        <time>2017-06-13T15:42:33Z</time>
      </trkpt>
      <trkpt lat="49.39161" lon="1.4289">
        <ele>122</ele>
        <time>2017-06-13T15:42:49Z</time>
      </trkpt>
      <trkpt lat="49.39158" lon="1.42885">
        <ele>122</ele>
        <time>2017-06-13T15:42:49Z</time>
      </trkpt>
      <trkpt lat="49.39154" lon="1.42881">
        <ele>122</ele>
        <time>2017-06-13T15:42:49Z</time>
      </trkpt>
      <trkpt lat="49.3915" lon="1.42877">
        <ele>122</ele>
        <time>2017-06-13T15:42:49Z</time>
      </trkpt>
      <trkpt lat="49.39147" lon="1.42869">
        <ele>123</ele>
        <time>2017-06-13T15:43:04Z</time>
      </trkpt>
      <trkpt lat="49.39141" lon="1.42863">
        <ele>123</ele>
        <time>2017-06-13T15:43:04Z</time>
      </trkpt>
      <trkpt lat="49.39137" lon="1.4286">
        <ele>123</ele>
        <time>2017-06-13T15:43:04Z</time>
      </trkpt>
      <trkpt lat="49.39134" lon="1.42857">
        <ele>123</ele>
        <time>2017-06-13T15:43:04Z</time>
      </trkpt>
      <trkpt lat="49.3913" lon="1.42851">
        <ele>123</ele>
        <time>2017-06-13T15:43:21Z</time>
      </trkpt>
      <trkpt lat="49.39127" lon="1.42849">
        <ele>123</ele>
        <time>2017-06-13T15:43:21Z</time>
      </trkpt>
      <trkpt lat="49.39123" lon="1.42848">
        <ele>128</ele>
        <time>2017-06-13T15:43:21Z</time>
      </trkpt>
      <trkpt lat="49.39119" lon="1.42843">
        <ele>128</ele>
        <time>2017-06-13T15:43:21Z</time>
      </trkpt>
      <trkpt lat="49.39115" lon="1.42839">
        <ele>128</ele>
        <time>2017-06-13T15:43:37Z</time>
      </trkpt>
      <trkpt lat="49.39112" lon="1.42834">
        <ele>128</ele>
        <time>2017-06-13T15:43:37Z</time>
      </trkpt>
      <trkpt lat="49.3911" lon="1.42827">
        <ele>128</ele>
        <time>2017-06-13T15:43:37Z</time>
      </trkpt>
      <trkpt lat="49.3911" lon="1.42819">
        <ele>128</ele>
        <time>2017-06-13T15:43:37Z</time>
      </trkpt>
      <trkpt lat="49.3911" lon="1.42802">
        <ele>128</ele>
        <time>2017-06-13T15:46:48Z</time>
      </trkpt>
      <trkpt lat="49.3911" lon="1.42802">
        <ele>128</ele>
        <time>2017-06-13T15:46:48Z</time>
      </trkpt>
      <trkpt lat="49.3911" lon="1.42802">
        <ele>128</ele>
        <time>2017-06-13T15:46:48Z</time>
      </trkpt>
      <trkpt lat="49.39109" lon="1.428">
        <ele>128</ele>
        <time>2017-06-13T15:46:48Z</time>
      </trkpt>
      <trkpt lat="49.39111" lon="1.428">
        <ele>128</ele>
        <time>2017-06-13T15:46:48Z</time>
      </trkpt>
      <trkpt lat="49.39117" lon="1.42792">
        <ele>128</ele>
        <time>2017-06-13T15:54:44Z</time>
      </trkpt>
      <trkpt lat="49.39117" lon="1.42788">
        <ele>131</ele>
        <time>2017-06-13T15:54:44Z</time>
      </trkpt>
      <trkpt lat="49.39114" lon="1.42783">
        <ele>131</ele>
        <time>2017-06-13T15:54:44Z</time>
      </trkpt>
      <trkpt lat="49.39114" lon="1.42775">
        <ele>131</ele>
        <time>2017-06-13T15:54:44Z</time>
      </trkpt>
      <trkpt lat="49.39114" lon="1.42769">
        <ele>131</ele>
        <time>2017-06-13T15:54:44Z</time>
      </trkpt>
      <trkpt lat="49.39115" lon="1.42759">
        <ele>131</ele>
        <time>2017-06-13T15:55:00Z</time>
      </trkpt>
      <trkpt lat="49.39112" lon="1.42751">
        <ele>131</ele>
        <time>2017-06-13T15:55:00Z</time>
      </trkpt>
      <trkpt lat="49.3911" lon="1.42743">
        <ele>131</ele>
        <time>2017-06-13T15:55:00Z</time>
      </trkpt>
      <trkpt lat="49.3911" lon="1.42736">
        <ele>131</ele>
        <time>2017-06-13T15:55:00Z</time>
      </trkpt>
      <trkpt lat="49.39109" lon="1.42731">
        <ele>131</ele>
        <time>2017-06-13T15:55:16Z</time>
      </trkpt>
      <trkpt lat="49.39109" lon="1.42725">
        <ele>131</ele>
        <time>2017-06-13T15:55:16Z</time>
      </trkpt>
      <trkpt lat="49.39107" lon="1.42718">
        <ele>131</ele>
        <time>2017-06-13T15:55:16Z</time>
      </trkpt>
      <trkpt lat="49.39105" lon="1.42711">
        <ele>131</ele>
        <time>2017-06-13T15:55:16Z</time>
      </trkpt>
      <trkpt lat="49.39103" lon="1.42704">
        <ele>129</ele>
        <time>2017-06-13T15:55:32Z</time>
      </trkpt>
      <trkpt lat="49.39099" lon="1.42699">
        <ele>129</ele>
        <time>2017-06-13T15:55:32Z</time>
      </trkpt>
      <trkpt lat="49.39095" lon="1.42691">
        <ele>129</ele>
        <time>2017-06-13T15:55:32Z</time>
      </trkpt>
      <trkpt lat="49.39093" lon="1.42684">
        <ele>129</ele>
        <time>2017-06-13T15:55:32Z</time>
      </trkpt>
      <trkpt lat="49.39091" lon="1.4268">
        <ele>129</ele>
        <time>2017-06-13T15:55:48Z</time>
      </trkpt>
      <trkpt lat="49.39087" lon="1.42675">
        <ele>129</ele>
        <time>2017-06-13T15:55:48Z</time>
      </trkpt>
      <trkpt lat="49.39084" lon="1.4267">
        <ele>129</ele>
        <time>2017-06-13T15:55:48Z</time>
      </trkpt>
      <trkpt lat="49.39081" lon="1.42665">
        <ele>129</ele>
        <time>2017-06-13T15:55:48Z</time>
      </trkpt>
      <trkpt lat="49.39078" lon="1.4266">
        <ele>129</ele>
        <time>2017-06-13T15:56:04Z</time>
      </trkpt>
      <trkpt lat="49.39075" lon="1.42654">
        <ele>129</ele>
        <time>2017-06-13T15:56:04Z</time>
      </trkpt>
      <trkpt lat="49.39072" lon="1.42647">
        <ele>129</ele>
        <time>2017-06-13T15:56:04Z</time>
      </trkpt>
      <trkpt lat="49.3907" lon="1.42641">
        <ele>129</ele>
        <time>2017-06-13T15:56:04Z</time>
      </trkpt>
      <trkpt lat="49.39068" lon="1.42635">
        <ele>129</ele>
        <time>2017-06-13T15:56:20Z</time>
      </trkpt>
      <trkpt lat="49.39065" lon="1.42628">
        <ele>129</ele>
        <time>2017-06-13T15:56:20Z</time>
      </trkpt>
      <trkpt lat="49.39066" lon="1.4262">
        <ele>128</ele>
        <time>2017-06-13T15:56:20Z</time>
      </trkpt>
      <trkpt lat="49.39065" lon="1.42612">
        <ele>128</ele>
        <time>2017-06-13T15:56:20Z</time>
      </trkpt>
      <trkpt lat="49.39063" lon="1.42605">
        <ele>128</ele>
        <time>2017-06-13T15:56:36Z</time>
      </trkpt>
      <trkpt lat="49.39061" lon="1.42599">
        <ele>128</ele>
        <time>2017-06-13T15:56:36Z</time>
      </trkpt>
      <trkpt lat="49.39058" lon="1.42592">
        <ele>128</ele>
        <time>2017-06-13T15:56:36Z</time>
      </trkpt>
      <trkpt lat="49.39053" lon="1.42584">
        <ele>128</ele>
        <time>2017-06-13T15:56:36Z</time>
      </trkpt>
      <trkpt lat="49.39049" lon="1.42579">
        <ele>128</ele>
        <time>2017-06-13T15:56:53Z</time>
      </trkpt>
      <trkpt lat="49.39047" lon="1.42572">
        <ele>128</ele>
        <time>2017-06-13T15:56:53Z</time>
      </trkpt>
      <trkpt lat="49.39046" lon="1.42566">
        <ele>128</ele>
        <time>2017-06-13T15:56:53Z</time>
      </trkpt>
      <trkpt lat="49.39044" lon="1.4256">
        <ele>128</ele>
        <time>2017-06-13T15:56:53Z</time>
      </trkpt>
      <trkpt lat="49.39043" lon="1.42556">
        <ele>128</ele>
        <time>2017-06-13T15:57:10Z</time>
      </trkpt>
      <trkpt lat="49.39042" lon="1.42548">
        <ele>126</ele>
        <time>2017-06-13T15:57:10Z</time>
      </trkpt>
      <trkpt lat="49.39039" lon="1.42542">
        <ele>126</ele>
        <time>2017-06-13T15:57:10Z</time>
      </trkpt>
      <trkpt lat="49.39036" lon="1.42537">
        <ele>123</ele>
        <time>2017-06-13T15:57:10Z</time>
      </trkpt>
      <trkpt lat="49.39034" lon="1.42533">
        <ele>123</ele>
        <time>2017-06-13T15:57:24Z</time>
      </trkpt>
      <trkpt lat="49.39031" lon="1.42526">
        <ele>123</ele>
        <time>2017-06-13T15:57:24Z</time>
      </trkpt>
      <trkpt lat="49.3903" lon="1.42519">
        <ele>123</ele>
        <time>2017-06-13T15:57:24Z</time>
      </trkpt>
      <trkpt lat="49.39029" lon="1.42515">
        <ele>123</ele>
        <time>2017-06-13T15:57:24Z</time>
      </trkpt>
      <trkpt lat="49.39026" lon="1.42511">
        <ele>123</ele>
        <time>2017-06-13T15:57:41Z</time>
      </trkpt>
      <trkpt lat="49.39022" lon="1.42507">
        <ele>123</ele>
        <time>2017-06-13T15:57:41Z</time>
      </trkpt>
      <trkpt lat="49.39019" lon="1.42502">
        <ele>123</ele>
        <time>2017-06-13T15:57:41Z</time>
      </trkpt>
      <trkpt lat="49.39015" lon="1.42496">
        <ele>123</ele>
        <time>2017-06-13T15:57:41Z</time>
      </trkpt>
      <trkpt lat="49.39012" lon="1.4249">
        <ele>123</ele>
        <time>2017-06-13T15:57:57Z</time>
      </trkpt>
      <trkpt lat="49.3901" lon="1.42482">
        <ele>123</ele>
        <time>2017-06-13T15:57:57Z</time>
      </trkpt>
      <trkpt lat="49.39009" lon="1.42476">
        <ele>123</ele>
        <time>2017-06-13T15:57:57Z</time>
      </trkpt>
      <trkpt lat="49.39007" lon="1.42466">
        <ele>123</ele>
        <time>2017-06-13T15:57:57Z</time>
      </trkpt>
      <trkpt lat="49.39007" lon="1.4246">
        <ele>123</ele>
        <time>2017-06-13T15:58:12Z</time>
      </trkpt>
      <trkpt lat="49.39005" lon="1.42454">
        <ele>122</ele>
        <time>2017-06-13T15:58:12Z</time>
      </trkpt>
      <trkpt lat="49.39003" lon="1.4245">
        <ele>122</ele>
        <time>2017-06-13T15:58:12Z</time>
      </trkpt>
      <trkpt lat="49.39001" lon="1.42444">
        <ele>122</ele>
        <time>2017-06-13T15:58:12Z</time>
      </trkpt>
      <trkpt lat="49.38999" lon="1.42437">
        <ele>122</ele>
        <time>2017-06-13T15:58:29Z</time>
      </trkpt>
      <trkpt lat="49.38997" lon="1.42433">
        <ele>122</ele>
        <time>2017-06-13T15:58:29Z</time>
      </trkpt>
      <trkpt lat="49.38992" lon="1.4243">
        <ele>122</ele>
        <time>2017-06-13T15:58:29Z</time>
      </trkpt>
      <trkpt lat="49.38989" lon="1.42427">
        <ele>122</ele>
        <time>2017-06-13T15:58:29Z</time>
      </trkpt>
      <trkpt lat="49.38986" lon="1.42422">
        <ele>122</ele>
        <time>2017-06-13T15:58:44Z</time>
      </trkpt>
      <trkpt lat="49.38983" lon="1.42417">
        <ele>122</ele>
        <time>2017-06-13T15:58:44Z</time>
      </trkpt>
      <trkpt lat="49.38979" lon="1.42408">
        <ele>122</ele>
        <time>2017-06-13T15:58:44Z</time>
      </trkpt>
      <trkpt lat="49.38976" lon="1.424">
        <ele>122</ele>
        <time>2017-06-13T15:58:44Z</time>
      </trkpt>
      <trkpt lat="49.38973" lon="1.42394">
        <ele>122</ele>
        <time>2017-06-13T15:59:02Z</time>
      </trkpt>
      <trkpt lat="49.38968" lon="1.42388">
        <ele>122</ele>
        <time>2017-06-13T15:59:02Z</time>
      </trkpt>
      <trkpt lat="49.38966" lon="1.42385">
        <ele>122</ele>
        <time>2017-06-13T15:59:02Z</time>
      </trkpt>
      <trkpt lat="49.38961" lon="1.42375">
        <ele>123</ele>
        <time>2017-06-13T15:59:02Z</time>
      </trkpt>
      <trkpt lat="49.38957" lon="1.42368">
        <ele>123</ele>
        <time>2017-06-13T15:59:16Z</time>
      </trkpt>
      <trkpt lat="49.38953" lon="1.42363">
        <ele>123</ele>
        <time>2017-06-13T15:59:16Z</time>
      </trkpt>
      <trkpt lat="49.38952" lon="1.42359">
        <ele>123</ele>
        <time>2017-06-13T15:59:16Z</time>
      </trkpt>
      <trkpt lat="49.38952" lon="1.42354">
        <ele>123</ele>
        <time>2017-06-13T15:59:17Z</time>
      </trkpt>
      <trkpt lat="49.38948" lon="1.42351">
        <ele>123</ele>
        <time>2017-06-13T15:59:33Z</time>
      </trkpt>
      <trkpt lat="49.38943" lon="1.42347">
        <ele>123</ele>
        <time>2017-06-13T15:59:33Z</time>
      </trkpt>
      <trkpt lat="49.38939" lon="1.42341">
        <ele>123</ele>
        <time>2017-06-13T15:59:33Z</time>
      </trkpt>
      <trkpt lat="49.38936" lon="1.42337">
        <ele>123</ele>
        <time>2017-06-13T15:59:33Z</time>
      </trkpt>
      <trkpt lat="49.38933" lon="1.42333">
        <ele>123</ele>
        <time>2017-06-13T15:59:50Z</time>
      </trkpt>
      <trkpt lat="49.3893" lon="1.42327">
        <ele>123</ele>
        <time>2017-06-13T15:59:50Z</time>
      </trkpt>
      <trkpt lat="49.38927" lon="1.42321">
        <ele>123</ele>
        <time>2017-06-13T15:59:50Z</time>
      </trkpt>
      <trkpt lat="49.38923" lon="1.42314">
        <ele>123</ele>
        <time>2017-06-13T15:59:50Z</time>
      </trkpt>
      <trkpt lat="49.38921" lon="1.42311">
        <ele>123</ele>
        <time>2017-06-13T16:00:05Z</time>
      </trkpt>
      <trkpt lat="49.38917" lon="1.42307">
        <ele>123</ele>
        <time>2017-06-13T16:00:05Z</time>
      </trkpt>
      <trkpt lat="49.38914" lon="1.42305">
        <ele>123</ele>
        <time>2017-06-13T16:00:05Z</time>
      </trkpt>
      <trkpt lat="49.38906" lon="1.42295">
        <ele>123</ele>
        <time>2017-06-13T16:00:05Z</time>
      </trkpt>
      <trkpt lat="49.38901" lon="1.42292">
        <ele>123</ele>
        <time>2017-06-13T16:00:21Z</time>
      </trkpt>
      <trkpt lat="49.38896" lon="1.4229">
        <ele>119</ele>
        <time>2017-06-13T16:00:21Z</time>
      </trkpt>
      <trkpt lat="49.38892" lon="1.42289">
        <ele>119</ele>
        <time>2017-06-13T16:00:21Z</time>
      </trkpt>
      <trkpt lat="49.38887" lon="1.42287">
        <ele>119</ele>
        <time>2017-06-13T16:00:21Z</time>
      </trkpt>
      <trkpt lat="49.38883" lon="1.42285">
        <ele>119</ele>
        <time>2017-06-13T16:00:37Z</time>
      </trkpt>
      <trkpt lat="49.38878" lon="1.42284">
        <ele>119</ele>
        <time>2017-06-13T16:00:37Z</time>
      </trkpt>
      <trkpt lat="49.38874" lon="1.42282">
        <ele>119</ele>
        <time>2017-06-13T16:00:37Z</time>
      </trkpt>
      <trkpt lat="49.38869" lon="1.42281">
        <ele>119</ele>
        <time>2017-06-13T16:00:37Z</time>
      </trkpt>
      <trkpt lat="49.38865" lon="1.42276">
        <ele>119</ele>
        <time>2017-06-13T16:00:57Z</time>
      </trkpt>
      <trkpt lat="49.38863" lon="1.42276">
        <ele>119</ele>
        <time>2017-06-13T16:00:57Z</time>
      </trkpt>
      <trkpt lat="49.3887" lon="1.42282">
        <ele>119</ele>
        <time>2017-06-13T16:00:57Z</time>
      </trkpt>
      <trkpt lat="49.38872" lon="1.42284">
        <ele>119</ele>
        <time>2017-06-13T16:00:57Z</time>
      </trkpt>
      <trkpt lat="49.38874" lon="1.42285">
        <ele>119</ele>
        <time>2017-06-13T16:00:57Z</time>
      </trkpt>
      <trkpt lat="49.3887" lon="1.42276">
        <ele>119</ele>
        <time>2017-06-13T16:13:48Z</time>
      </trkpt>
      <trkpt lat="49.3887" lon="1.42276">
        <ele>119</ele>
        <time>2017-06-13T16:13:48Z</time>
      </trkpt>
      <trkpt lat="49.38869" lon="1.42276">
        <ele>119</ele>
        <time>2017-06-13T16:13:48Z</time>
      </trkpt>
      <trkpt lat="49.38871" lon="1.42268">
        <ele>119</ele>
        <time>2017-06-13T16:13:48Z</time>
      </trkpt>
      <trkpt lat="49.38876" lon="1.42262">
        <ele>119</ele>
        <time>2017-06-13T16:13:48Z</time>
      </trkpt>
      <trkpt lat="49.38879" lon="1.42254">
        <ele>119</ele>
        <time>2017-06-13T16:14:06Z</time>
      </trkpt>
      <trkpt lat="49.38882" lon="1.42246">
        <ele>119</ele>
        <time>2017-06-13T16:14:06Z</time>
      </trkpt>
      <trkpt lat="49.38885" lon="1.42239">
        <ele>119</ele>
        <time>2017-06-13T16:14:06Z</time>
      </trkpt>
      <trkpt lat="49.38888" lon="1.42233">
        <ele>119</ele>
        <time>2017-06-13T16:14:06Z</time>
      </trkpt>
      <trkpt lat="49.38889" lon="1.42228">
        <ele>119</ele>
        <time>2017-06-13T16:14:21Z</time>
      </trkpt>
      <trkpt lat="49.3889" lon="1.42221">
        <ele>119</ele>
        <time>2017-06-13T16:14:21Z</time>
      </trkpt>
      <trkpt lat="49.38893" lon="1.42217">
        <ele>119</ele>
        <time>2017-06-13T16:14:21Z</time>
      </trkpt>
      <trkpt lat="49.38898" lon="1.42209">
        <ele>119</ele>
        <time>2017-06-13T16:14:21Z</time>
      </trkpt>
      <trkpt lat="49.389" lon="1.42203">
        <ele>119</ele>
        <time>2017-06-13T16:14:37Z</time>
      </trkpt>
      <trkpt lat="49.38901" lon="1.42196">
        <ele>119</ele>
        <time>2017-06-13T16:14:37Z</time>
      </trkpt>
      <trkpt lat="49.38903" lon="1.4219">
        <ele>119</ele>
        <time>2017-06-13T16:14:37Z</time>
      </trkpt>
      <trkpt lat="49.38904" lon="1.42184">
        <ele>119</ele>
        <time>2017-06-13T16:14:37Z</time>
      </trkpt>
      <trkpt lat="49.38906" lon="1.42179">
        <ele>119</ele>
        <time>2017-06-13T16:14:53Z</time>
      </trkpt>
      <trkpt lat="49.38906" lon="1.42172">
        <ele>119</ele>
        <time>2017-06-13T16:14:53Z</time>
      </trkpt>
      <trkpt lat="49.38906" lon="1.42163">
        <ele>119</ele>
        <time>2017-06-13T16:14:53Z</time>
      </trkpt>
      <trkpt lat="49.38907" lon="1.42153">
        <ele>119</ele>
        <time>2017-06-13T16:14:53Z</time>
      </trkpt>
      <trkpt lat="49.38907" lon="1.42148">
        <ele>119</ele>
        <time>2017-06-13T16:15:09Z</time>
      </trkpt>
      <trkpt lat="49.38908" lon="1.4214">
        <ele>119</ele>
        <time>2017-06-13T16:15:09Z</time>
      </trkpt>
      <trkpt lat="49.38909" lon="1.42133">
        <ele>119</ele>
        <time>2017-06-13T16:15:09Z</time>
      </trkpt>
      <trkpt lat="49.38909" lon="1.42126">
        <ele>119</ele>
        <time>2017-06-13T16:15:09Z</time>
      </trkpt>
      <trkpt lat="49.38911" lon="1.42119">
        <ele>116</ele>
        <time>2017-06-13T16:15:25Z</time>
      </trkpt>
      <trkpt lat="49.38914" lon="1.42109">
        <ele>116</ele>
        <time>2017-06-13T16:15:25Z</time>
      </trkpt>
      <trkpt lat="49.38916" lon="1.42101">
        <ele>116</ele>
        <time>2017-06-13T16:15:25Z</time>
      </trkpt>
      <trkpt lat="49.38917" lon="1.42094">
        <ele>116</ele>
        <time>2017-06-13T16:15:25Z</time>
      </trkpt>
      <trkpt lat="49.38918" lon="1.42087">
        <ele>116</ele>
        <time>2017-06-13T16:15:40Z</time>
      </trkpt>
      <trkpt lat="49.38923" lon="1.4208">
        <ele>116</ele>
        <time>2017-06-13T16:15:40Z</time>
      </trkpt>
      <trkpt lat="49.38924" lon="1.42076">
        <ele>116</ele>
        <time>2017-06-13T16:15:40Z</time>
      </trkpt>
      <trkpt lat="49.38926" lon="1.42068">
        <ele>116</ele>
        <time>2017-06-13T16:15:40Z</time>
      </trkpt>
      <trkpt lat="49.38928" lon="1.42061">
        <ele>116</ele>
        <time>2017-06-13T16:15:57Z</time>
      </trkpt>
      <trkpt lat="49.38928" lon="1.42054">
        <ele>116</ele>
        <time>2017-06-13T16:15:57Z</time>
      </trkpt>
      <trkpt lat="49.38929" lon="1.42045">
        <ele>116</ele>
        <time>2017-06-13T16:15:57Z</time>
      </trkpt>
      <trkpt lat="49.3893" lon="1.42039">
        <ele>115</ele>
        <time>2017-06-13T16:15:57Z</time>
      </trkpt>
      <trkpt lat="49.3893" lon="1.42034">
        <ele>115</ele>
        <time>2017-06-13T16:16:12Z</time>
      </trkpt>
      <trkpt lat="49.38932" lon="1.42029">
        <ele>115</ele>
        <time>2017-06-13T16:16:12Z</time>
      </trkpt>
      <trkpt lat="49.38932" lon="1.42018">
        <ele>115</ele>
        <time>2017-06-13T16:16:12Z</time>
      </trkpt>
      <trkpt lat="49.38932" lon="1.42011">
        <ele>115</ele>
        <time>2017-06-13T16:16:12Z</time>
      </trkpt>
      <trkpt lat="49.3893" lon="1.42002">
        <ele>115</ele>
        <time>2017-06-13T16:16:28Z</time>
      </trkpt>
      <trkpt lat="49.38931" lon="1.41995">
        <ele>115</ele>
        <time>2017-06-13T16:16:28Z</time>
      </trkpt>
      <trkpt lat="49.38932" lon="1.4199">
        <ele>115</ele>
        <time>2017-06-13T16:16:28Z</time>
      </trkpt>
      <trkpt lat="49.38933" lon="1.41984">
        <ele>115</ele>
        <time>2017-06-13T16:16:28Z</time>
      </trkpt>
      <trkpt lat="49.38933" lon="1.41977">
        <ele>115</ele>
        <time>2017-06-13T16:16:45Z</time>
      </trkpt>
      <trkpt lat="49.38933" lon="1.41968">
        <ele>115</ele>
        <time>2017-06-13T16:16:45Z</time>
      </trkpt>
      <trkpt lat="49.38933" lon="1.41961">
        <ele>115</ele>
        <time>2017-06-13T16:16:45Z</time>
      </trkpt>
      <trkpt lat="49.38933" lon="1.41954">
        <ele>115</ele>
        <time>2017-06-13T16:16:45Z</time>
      </trkpt>
      <trkpt lat="49.38932" lon="1.41946">
        <ele>115</ele>
        <time>2017-06-13T16:17:00Z</time>
      </trkpt>
      <trkpt lat="49.38932" lon="1.41935">
        <ele>115</ele>
        <time>2017-06-13T16:17:00Z</time>
      </trkpt>
      <trkpt lat="49.38933" lon="1.41929">
        <ele>115</ele>
        <time>2017-06-13T16:17:00Z</time>
      </trkpt>
      <trkpt lat="49.38934" lon="1.41919">
        <ele>115</ele>
        <time>2017-06-13T16:17:01Z</time>
      </trkpt>
      <trkpt lat="49.38934" lon="1.41908">
        <ele>115</ele>
        <time>2017-06-13T16:17:16Z</time>
      </trkpt>
      <trkpt lat="49.38934" lon="1.41901">
        <ele>115</ele>
        <time>2017-06-13T16:17:16Z</time>
      </trkpt>
      <trkpt lat="49.38933" lon="1.41894">
        <ele>115</ele>
        <time>2017-06-13T16:17:16Z</time>
      </trkpt>
      <trkpt lat="49.38935" lon="1.41885">
        <ele>115</ele>
        <time>2017-06-13T16:17:16Z</time>
      </trkpt>
      <trkpt lat="49.38937" lon="1.41876">
        <ele>115</ele>
        <time>2017-06-13T16:17:33Z</time>
      </trkpt>
      <trkpt lat="49.38938" lon="1.41868">
        <ele>111</ele>
        <time>2017-06-13T16:17:33Z</time>
      </trkpt>
      <trkpt lat="49.3894" lon="1.41864">
        <ele>111</ele>
        <time>2017-06-13T16:17:33Z</time>
      </trkpt>
      <trkpt lat="49.3894" lon="1.41859">
        <ele>111</ele>
        <time>2017-06-13T16:17:33Z</time>
      </trkpt>
      <trkpt lat="49.3894" lon="1.4185">
        <ele>111</ele>
        <time>2017-06-13T16:17:48Z</time>
      </trkpt>
      <trkpt lat="49.3894" lon="1.41847">
        <ele>111</ele>
        <time>2017-06-13T16:17:48Z</time>
      </trkpt>
      <trkpt lat="49.3894" lon="1.41838">
        <ele>111</ele>
        <time>2017-06-13T16:17:48Z</time>
      </trkpt>
      <trkpt lat="49.38943" lon="1.4183">
        <ele>111</ele>
        <time>2017-06-13T16:17:48Z</time>
      </trkpt>
      <trkpt lat="49.38942" lon="1.4182">
        <ele>111</ele>
        <time>2017-06-13T16:18:04Z</time>
      </trkpt>
      <trkpt lat="49.3894" lon="1.41809">
        <ele>111</ele>
        <time>2017-06-13T16:18:04Z</time>
      </trkpt>
      <trkpt lat="49.3894" lon="1.41802">
        <ele>111</ele>
        <time>2017-06-13T16:18:04Z</time>
      </trkpt>
      <trkpt lat="49.38939" lon="1.41793">
        <ele>111</ele>
        <time>2017-06-13T16:18:04Z</time>
      </trkpt>
      <trkpt lat="49.38938" lon="1.41783">
        <ele>105</ele>
        <time>2017-06-13T16:18:20Z</time>
      </trkpt>
      <trkpt lat="49.38941" lon="1.4178">
        <ele>105</ele>
        <time>2017-06-13T16:18:20Z</time>
      </trkpt>
      <trkpt lat="49.38943" lon="1.4177">
        <ele>105</ele>
        <time>2017-06-13T16:18:20Z</time>
      </trkpt>
      <trkpt lat="49.38945" lon="1.41765">
        <ele>105</ele>
        <time>2017-06-13T16:18:20Z</time>
      </trkpt>
      <trkpt lat="49.38946" lon="1.4176">
        <ele>105</ele>
        <time>2017-06-13T16:18:36Z</time>
      </trkpt>
      <trkpt lat="49.38948" lon="1.41752">
        <ele>105</ele>
        <time>2017-06-13T16:18:36Z</time>
      </trkpt>
      <trkpt lat="49.38949" lon="1.41741">
        <ele>105</ele>
        <time>2017-06-13T16:18:36Z</time>
      </trkpt>
      <trkpt lat="49.38951" lon="1.41737">
        <ele>105</ele>
        <time>2017-06-13T16:18:36Z</time>
      </trkpt>
      <trkpt lat="49.38952" lon="1.41729">
        <ele>105</ele>
        <time>2017-06-13T16:18:54Z</time>
      </trkpt>
      <trkpt lat="49.38952" lon="1.41723">
        <ele>105</ele>
        <time>2017-06-13T16:18:54Z</time>
      </trkpt>
      <trkpt lat="49.38954" lon="1.41715">
        <ele>105</ele>
        <time>2017-06-13T16:18:54Z</time>
      </trkpt>
      <trkpt lat="49.38955" lon="1.41707">
        <ele>109</ele>
        <time>2017-06-13T16:18:54Z</time>
      </trkpt>
      <trkpt lat="49.38956" lon="1.41701">
        <ele>109</ele>
        <time>2017-06-13T16:19:09Z</time>
      </trkpt>
      <trkpt lat="49.38958" lon="1.41695">
        <ele>97</ele>
        <time>2017-06-13T16:19:09Z</time>
      </trkpt>
      <trkpt lat="49.38961" lon="1.4169">
        <ele>97</ele>
        <time>2017-06-13T16:19:09Z</time>
      </trkpt>
      <trkpt lat="49.38962" lon="1.41684">
        <ele>97</ele>
        <time>2017-06-13T16:19:09Z</time>
      </trkpt>
      <trkpt lat="49.38965" lon="1.41677">
        <ele>97</ele>
        <time>2017-06-13T16:19:24Z</time>
      </trkpt>
      <trkpt lat="49.38967" lon="1.41672">
        <ele>97</ele>
        <time>2017-06-13T16:19:24Z</time>
      </trkpt>
      <trkpt lat="49.3897" lon="1.4166">
        <ele>97</ele>
        <time>2017-06-13T16:19:24Z</time>
      </trkpt>
      <trkpt lat="49.38973" lon="1.41651">
        <ele>97</ele>
        <time>2017-06-13T16:19:24Z</time>
      </trkpt>
      <trkpt lat="49.38978" lon="1.41643">
        <ele>97</ele>
        <time>2017-06-13T16:19:41Z</time>
      </trkpt>
      <trkpt lat="49.38982" lon="1.41637">
        <ele>97</ele>
        <time>2017-06-13T16:19:41Z</time>
      </trkpt>
      <trkpt lat="49.38985" lon="1.41631">
        <ele>97</ele>
        <time>2017-06-13T16:19:41Z</time>
      </trkpt>
      <trkpt lat="49.38988" lon="1.41625">
        <ele>97</ele>
        <time>2017-06-13T16:19:41Z</time>
      </trkpt>
      <trkpt lat="49.38991" lon="1.41619">
        <ele>97</ele>
        <time>2017-06-13T16:19:57Z</time>
      </trkpt>
      <trkpt lat="49.38994" lon="1.41613">
        <ele>97</ele>
        <time>2017-06-13T16:19:57Z</time>
      </trkpt>
      <trkpt lat="49.38996" lon="1.41608">
        <ele>97</ele>
        <time>2017-06-13T16:19:57Z</time>
      </trkpt>
      <trkpt lat="49.38999" lon="1.416">
        <ele>97</ele>
        <time>2017-06-13T16:19:57Z</time>
      </trkpt>
      <trkpt lat="49.39001" lon="1.41593">
        <ele>97</ele>
        <time>2017-06-13T16:20:13Z</time>
      </trkpt>
      <trkpt lat="49.39004" lon="1.41587">
        <ele>97</ele>
        <time>2017-06-13T16:20:13Z</time>
      </trkpt>
      <trkpt lat="49.39007" lon="1.41577">
        <ele>97</ele>
        <time>2017-06-13T16:20:13Z</time>
      </trkpt>
      <trkpt lat="49.39008" lon="1.4157">
        <ele>97</ele>
        <time>2017-06-13T16:20:13Z</time>
      </trkpt>
      <trkpt lat="49.3901" lon="1.41563">
        <ele>97</ele>
        <time>2017-06-13T16:20:29Z</time>
      </trkpt>
      <trkpt lat="49.39013" lon="1.41559">
        <ele>97</ele>
        <time>2017-06-13T16:20:29Z</time>
      </trkpt>
      <trkpt lat="49.39018" lon="1.41557">
        <ele>97</ele>
        <time>2017-06-13T16:20:29Z</time>
      </trkpt>
      <trkpt lat="49.39023" lon="1.4155">
        <ele>97</ele>
        <time>2017-06-13T16:20:29Z</time>
      </trkpt>
      <trkpt lat="49.39026" lon="1.41547">
        <ele>97</ele>
        <time>2017-06-13T16:20:44Z</time>
      </trkpt>
      <trkpt lat="49.3903" lon="1.41542">
        <ele>100</ele>
        <time>2017-06-13T16:20:44Z</time>
      </trkpt>
      <trkpt lat="49.39034" lon="1.41537">
        <ele>100</ele>
        <time>2017-06-13T16:20:44Z</time>
      </trkpt>
      <trkpt lat="49.39037" lon="1.4153">
        <ele>100</ele>
        <time>2017-06-13T16:20:44Z</time>
      </trkpt>
      <trkpt lat="49.3904" lon="1.41526">
        <ele>100</ele>
        <time>2017-06-13T16:21:00Z</time>
      </trkpt>
      <trkpt lat="49.39045" lon="1.41519">
        <ele>97</ele>
        <time>2017-06-13T16:21:00Z</time>
      </trkpt>
      <trkpt lat="49.39046" lon="1.41514">
        <ele>97</ele>
        <time>2017-06-13T16:21:00Z</time>
      </trkpt>
      <trkpt lat="49.39049" lon="1.4151">
        <ele>97</ele>
        <time>2017-06-13T16:21:00Z</time>
      </trkpt>
      <trkpt lat="49.39052" lon="1.41502">
        <ele>97</ele>
        <time>2017-06-13T16:21:17Z</time>
      </trkpt>
      <trkpt lat="49.39055" lon="1.41495">
        <ele>97</ele>
        <time>2017-06-13T16:21:17Z</time>
      </trkpt>
      <trkpt lat="49.39058" lon="1.41491">
        <ele>97</ele>
        <time>2017-06-13T16:21:17Z</time>
      </trkpt>
      <trkpt lat="49.39061" lon="1.41484">
        <ele>97</ele>
        <time>2017-06-13T16:21:17Z</time>
      </trkpt>
      <trkpt lat="49.39065" lon="1.41478">
        <ele>97</ele>
        <time>2017-06-13T16:21:34Z</time>
      </trkpt>
      <trkpt lat="49.39067" lon="1.41471">
        <ele>97</ele>
        <time>2017-06-13T16:21:34Z</time>
      </trkpt>
      <trkpt lat="49.3907" lon="1.41466">
        <ele>97</ele>
        <time>2017-06-13T16:21:34Z</time>
      </trkpt>
      <trkpt lat="49.39072" lon="1.41458">
        <ele>94</ele>
        <time>2017-06-13T16:21:34Z</time>
      </trkpt>
      <trkpt lat="49.39075" lon="1.41453">
        <ele>94</ele>
        <time>2017-06-13T16:21:49Z</time>
      </trkpt>
      <trkpt lat="49.39078" lon="1.41446">
        <ele>94</ele>
        <time>2017-06-13T16:21:49Z</time>
      </trkpt>
      <trkpt lat="49.3908" lon="1.41439">
        <ele>94</ele>
        <time>2017-06-13T16:21:49Z</time>
      </trkpt>
      <trkpt lat="49.39082" lon="1.41433">
        <ele>94</ele>
        <time>2017-06-13T16:21:49Z</time>
      </trkpt>
      <trkpt lat="49.39087" lon="1.41429">
        <ele>94</ele>
        <time>2017-06-13T16:22:06Z</time>
      </trkpt>
      <trkpt lat="49.39091" lon="1.41424">
        <ele>94</ele>
        <time>2017-06-13T16:22:06Z</time>
      </trkpt>
      <trkpt lat="49.39094" lon="1.41422">
        <ele>94</ele>
        <time>2017-06-13T16:22:06Z</time>
      </trkpt>
      <trkpt lat="49.39098" lon="1.41416">
        <ele>94</ele>
        <time>2017-06-13T16:22:06Z</time>
      </trkpt>
      <trkpt lat="49.391" lon="1.41411">
        <ele>94</ele>
        <time>2017-06-13T16:22:20Z</time>
      </trkpt>
      <trkpt lat="49.39104" lon="1.41403">
        <ele>94</ele>
        <time>2017-06-13T16:22:20Z</time>
      </trkpt>
      <trkpt lat="49.39106" lon="1.41396">
        <ele>94</ele>
        <time>2017-06-13T16:22:20Z</time>
      </trkpt>
      <trkpt lat="49.39109" lon="1.4139">
        <ele>94</ele>
        <time>2017-06-13T16:22:20Z</time>
      </trkpt>
      <trkpt lat="49.39112" lon="1.41384">
        <ele>94</ele>
        <time>2017-06-13T16:22:38Z</time>
      </trkpt>
      <trkpt lat="49.39117" lon="1.41377">
        <ele>94</ele>
        <time>2017-06-13T16:22:38Z</time>
      </trkpt>
      <trkpt lat="49.39119" lon="1.41373">
        <ele>95</ele>
        <time>2017-06-13T16:22:38Z</time>
      </trkpt>
      <trkpt lat="49.39123" lon="1.41365">
        <ele>95</ele>
        <time>2017-06-13T16:22:38Z</time>
      </trkpt>
      <trkpt lat="49.39125" lon="1.4136">
        <ele>95</ele>
        <time>2017-06-13T16:22:52Z</time>
      </trkpt>
      <trkpt lat="49.39127" lon="1.41352">
        <ele>93</ele>
        <time>2017-06-13T16:22:52Z</time>
      </trkpt>
      <trkpt lat="49.39132" lon="1.41342">
        <ele>93</ele>
        <time>2017-06-13T16:22:52Z</time>
      </trkpt>
      <trkpt lat="49.39135" lon="1.41337">
        <ele>93</ele>
        <time>2017-06-13T16:22:52Z</time>
      </trkpt>
      <trkpt lat="49.39138" lon="1.41332">
        <ele>93</ele>
        <time>2017-06-13T16:23:08Z</time>
      </trkpt>
      <trkpt lat="49.39141" lon="1.41327">
        <ele>93</ele>
        <time>2017-06-13T16:23:08Z</time>
      </trkpt>
      <trkpt lat="49.39145" lon="1.41324">
        <ele>93</ele>
        <time>2017-06-13T16:23:08Z</time>
      </trkpt>
      <trkpt lat="49.39148" lon="1.41319">
        <ele>93</ele>
        <time>2017-06-13T16:23:08Z</time>
      </trkpt>
      <trkpt lat="49.3915" lon="1.41308">
        <ele>93</ele>
        <time>2017-06-13T16:23:25Z</time>
      </trkpt>
      <trkpt lat="49.3915" lon="1.41302">
        <ele>93</ele>
        <time>2017-06-13T16:23:25Z</time>
      </trkpt>
      <trkpt lat="49.39151" lon="1.41294">
        <ele>93</ele>
        <time>2017-06-13T16:23:25Z</time>
      </trkpt>
      <trkpt lat="49.39151" lon="1.41285">
        <ele>90</ele>
        <time>2017-06-13T16:23:25Z</time>
      </trkpt>
      <trkpt lat="49.39152" lon="1.41278">
        <ele>90</ele>
        <time>2017-06-13T16:23:41Z</time>
      </trkpt>
      <trkpt lat="49.3915" lon="1.4126">
        <ele>90</ele>
        <time>2017-06-13T16:23:41Z</time>
      </trkpt>
      <trkpt lat="49.39149" lon="1.41251">
        <ele>90</ele>
        <time>2017-06-13T16:23:41Z</time>
      </trkpt>
      <trkpt lat="49.39148" lon="1.41245">
        <ele>90</ele>
        <time>2017-06-13T16:23:41Z</time>
      </trkpt>
      <trkpt lat="49.39147" lon="1.41236">
        <ele>90</ele>
        <time>2017-06-13T16:23:57Z</time>
      </trkpt>
      <trkpt lat="49.39147" lon="1.41227">
        <ele>90</ele>
        <time>2017-06-13T16:23:57Z</time>
      </trkpt>
      <trkpt lat="49.39146" lon="1.41219">
        <ele>90</ele>
        <time>2017-06-13T16:23:57Z</time>
      </trkpt>
      <trkpt lat="49.39145" lon="1.41211">
        <ele>90</ele>
        <time>2017-06-13T16:23:57Z</time>
      </trkpt>
      <trkpt lat="49.39144" lon="1.41205">
        <ele>91</ele>
        <time>2017-06-13T16:24:14Z</time>
      </trkpt>
      <trkpt lat="49.39142" lon="1.41196">
        <ele>91</ele>
        <time>2017-06-13T16:24:14Z</time>
      </trkpt>
      <trkpt lat="49.39141" lon="1.41189">
        <ele>91</ele>
        <time>2017-06-13T16:24:14Z</time>
      </trkpt>
      <trkpt lat="49.39139" lon="1.41181">
        <ele>91</ele>
        <time>2017-06-13T16:24:14Z</time>
      </trkpt>
      <trkpt lat="49.39138" lon="1.41176">
        <ele>91</ele>
        <time>2017-06-13T16:24:30Z</time>
      </trkpt>
      <trkpt lat="49.39137" lon="1.4117">
        <ele>91</ele>
        <time>2017-06-13T16:24:30Z</time>
      </trkpt>
      <trkpt lat="49.39136" lon="1.41166">
        <ele>91</ele>
        <time>2017-06-13T16:24:30Z</time>
      </trkpt>
      <trkpt lat="49.39134" lon="1.41157">
        <ele>91</ele>
        <time>2017-06-13T16:24:30Z</time>
      </trkpt>
      <trkpt lat="49.39133" lon="1.41152">
        <ele>91</ele>
        <time>2017-06-13T16:24:44Z</time>
      </trkpt>
      <trkpt lat="49.39131" lon="1.41144">
        <ele>91</ele>
        <time>2017-06-13T16:24:44Z</time>
      </trkpt>
      <trkpt lat="49.3913" lon="1.41136">
        <ele>91</ele>
        <time>2017-06-13T16:24:44Z</time>
      </trkpt>
      <trkpt lat="49.39129" lon="1.4113">
        <ele>91</ele>
        <time>2017-06-13T16:24:44Z</time>
      </trkpt>
      <trkpt lat="49.39128" lon="1.41117">
        <ele>91</ele>
        <time>2017-06-13T16:25:00Z</time>
      </trkpt>
      <trkpt lat="49.39127" lon="1.4111">
        <ele>91</ele>
        <time>2017-06-13T16:25:00Z</time>
      </trkpt>
      <trkpt lat="49.39127" lon="1.411">
        <ele>91</ele>
        <time>2017-06-13T16:25:00Z</time>
      </trkpt>
      <trkpt lat="49.39126" lon="1.41093">
        <ele>91</ele>
        <time>2017-06-13T16:25:00Z</time>
      </trkpt>
      <trkpt lat="49.39126" lon="1.41084">
        <ele>91</ele>
        <time>2017-06-13T16:25:16Z</time>
      </trkpt>
      <trkpt lat="49.39126" lon="1.41078">
        <ele>91</ele>
        <time>2017-06-13T16:25:16Z</time>
      </trkpt>
      <trkpt lat="49.39125" lon="1.41071">
        <ele>91</ele>
        <time>2017-06-13T16:25:16Z</time>
      </trkpt>
      <trkpt lat="49.39126" lon="1.41063">
        <ele>91</ele>
        <time>2017-06-13T16:25:16Z</time>
      </trkpt>
      <trkpt lat="49.39127" lon="1.41051">
        <ele>91</ele>
        <time>2017-06-13T16:25:49Z</time>
      </trkpt>
      <trkpt lat="49.39127" lon="1.41049">
        <ele>91</ele>
        <time>2017-06-13T16:25:49Z</time>
      </trkpt>
      <trkpt lat="49.3913" lon="1.4104">
        <ele>87</ele>
        <time>2017-06-13T16:25:49Z</time>
      </trkpt>
      <trkpt lat="49.39141" lon="1.4105">
        <ele>91</ele>
        <time>2017-06-13T16:25:49Z</time>
      </trkpt>
      <trkpt lat="49.39141" lon="1.4105">
        <ele>91</ele>
        <time>2017-06-13T16:25:49Z</time>
      </trkpt>
      <trkpt lat="49.39139" lon="1.41047">
        <ele>91</ele>
        <time>2017-06-13T16:27:53Z</time>
      </trkpt>
      <trkpt lat="49.39138" lon="1.41054">
        <ele>91</ele>
        <time>2017-06-13T16:27:53Z</time>
      </trkpt>
      <trkpt lat="49.3914" lon="1.41061">
        <ele>91</ele>
        <time>2017-06-13T16:27:53Z</time>
      </trkpt>
      <trkpt lat="49.39191" lon="1.41089">
        <ele>91</ele>
        <time>2017-06-13T16:27:53Z</time>
      </trkpt>
      <trkpt lat="49.39197" lon="1.41093">
        <ele>91</ele>
        <time>2017-06-13T16:27:53Z</time>
      </trkpt>
      <trkpt lat="49.39197" lon="1.41094">
        <ele>91</ele>
        <time>2017-06-13T16:28:09Z</time>
      </trkpt>
      <trkpt lat="49.39198" lon="1.41095">
        <ele>91</ele>
        <time>2017-06-13T16:28:09Z</time>
      </trkpt>
      <trkpt lat="49.39192" lon="1.41106">
        <ele>91</ele>
        <time>2017-06-13T16:28:09Z</time>
      </trkpt>
      <trkpt lat="49.39186" lon="1.41118">
        <ele>91</ele>
        <time>2017-06-13T16:28:09Z</time>
      </trkpt>
      <trkpt lat="49.39186" lon="1.41124">
        <ele>91</ele>
        <time>2017-06-13T16:28:24Z</time>
      </trkpt>
      <trkpt lat="49.3919" lon="1.41126">
        <ele>91</ele>
        <time>2017-06-13T16:28:24Z</time>
      </trkpt>
      <trkpt lat="49.39193" lon="1.41129">
        <ele>91</ele>
        <time>2017-06-13T16:28:24Z</time>
      </trkpt>
      <trkpt lat="49.39194" lon="1.41132">
        <ele>91</ele>
        <time>2017-06-13T16:28:24Z</time>
      </trkpt>
      <trkpt lat="49.39196" lon="1.41134">
        <ele>91</ele>
        <time>2017-06-13T16:28:45Z</time>
      </trkpt>
      <trkpt lat="49.39198" lon="1.41136">
        <ele>91</ele>
        <time>2017-06-13T16:28:45Z</time>
      </trkpt>
      <trkpt lat="49.39201" lon="1.41135">
        <ele>91</ele>
        <time>2017-06-13T16:28:45Z</time>
      </trkpt>
      <trkpt lat="49.39204" lon="1.41137">
        <ele>91</ele>
        <time>2017-06-13T16:28:45Z</time>
      </trkpt>
      <trkpt lat="49.39208" lon="1.41137">
        <ele>91</ele>
        <time>2017-06-13T16:28:45Z</time>
      </trkpt>
      <trkpt lat="49.3922" lon="1.41136">
        <ele>112</ele>
        <time>2017-06-13T16:29:16Z</time>
      </trkpt>
      <trkpt lat="49.39222" lon="1.41136">
        <ele>112</ele>
        <time>2017-06-13T16:29:16Z</time>
      </trkpt>
      <trkpt lat="49.39227" lon="1.41137">
        <ele>112</ele>
        <time>2017-06-13T16:29:16Z</time>
      </trkpt>
      <trkpt lat="49.39231" lon="1.41137">
        <ele>112</ele>
        <time>2017-06-13T16:29:16Z</time>
      </trkpt>
      <trkpt lat="49.39232" lon="1.41141">
        <ele>112</ele>
        <time>2017-06-13T16:29:16Z</time>
      </trkpt>
      <trkpt lat="49.39233" lon="1.41139">
        <ele>112</ele>
        <time>2017-06-13T16:29:32Z</time>
      </trkpt>
      <trkpt lat="49.39237" lon="1.4114">
        <ele>112</ele>
        <time>2017-06-13T16:29:32Z</time>
      </trkpt>
      <trkpt lat="49.39242" lon="1.41143">
        <ele>112</ele>
        <time>2017-06-13T16:29:32Z</time>
      </trkpt>
      <trkpt lat="49.39244" lon="1.41144">
        <ele>112</ele>
        <time>2017-06-13T16:29:32Z</time>
      </trkpt>
      <trkpt lat="49.39249" lon="1.41147">
        <ele>112</ele>
        <time>2017-06-13T16:29:49Z</time>
      </trkpt>
      <trkpt lat="49.39254" lon="1.41148">
        <ele>112</ele>
        <time>2017-06-13T16:29:49Z</time>
      </trkpt>
      <trkpt lat="49.39258" lon="1.4115">
        <ele>112</ele>
        <time>2017-06-13T16:29:49Z</time>
      </trkpt>
      <trkpt lat="49.39263" lon="1.41151">
        <ele>112</ele>
        <time>2017-06-13T16:29:49Z</time>
      </trkpt>
      <trkpt lat="49.39267" lon="1.41153">
        <ele>112</ele>
        <time>2017-06-13T16:30:05Z</time>
      </trkpt>
      <trkpt lat="49.39271" lon="1.41155">
        <ele>112</ele>
        <time>2017-06-13T16:30:05Z</time>
      </trkpt>
      <trkpt lat="49.39276" lon="1.41156">
        <ele>112</ele>
        <time>2017-06-13T16:30:05Z</time>
      </trkpt>
      <trkpt lat="49.3928" lon="1.41157">
        <ele>112</ele>
        <time>2017-06-13T16:30:05Z</time>
      </trkpt>
      <trkpt lat="49.39286" lon="1.4116">
        <ele>112</ele>
        <time>2017-06-13T16:30:20Z</time>
      </trkpt>
      <trkpt lat="49.3929" lon="1.41161">
        <ele>112</ele>
        <time>2017-06-13T16:30:20Z</time>
      </trkpt>
      <trkpt lat="49.39293" lon="1.41162">
        <ele>123</ele>
        <time>2017-06-13T16:30:20Z</time>
      </trkpt>
      <trkpt lat="49.39297" lon="1.41164">
        <ele>123</ele>
        <time>2017-06-13T16:30:20Z</time>
      </trkpt>
      <trkpt lat="49.39301" lon="1.41166">
        <ele>123</ele>
        <time>2017-06-13T16:30:36Z</time>
      </trkpt>
      <trkpt lat="49.39305" lon="1.41167">
        <ele>123</ele>
        <time>2017-06-13T16:30:36Z</time>
      </trkpt>
      <trkpt lat="49.3931" lon="1.41169">
        <ele>123</ele>
        <time>2017-06-13T16:30:36Z</time>
      </trkpt>
      <trkpt lat="49.39313" lon="1.4117">
        <ele>123</ele>
        <time>2017-06-13T16:30:36Z</time>
      </trkpt>
      <trkpt lat="49.39319" lon="1.41174">
        <ele>123</ele>
        <time>2017-06-13T16:30:53Z</time>
      </trkpt>
      <trkpt lat="49.39321" lon="1.41174">
        <ele>123</ele>
        <time>2017-06-13T16:30:53Z</time>
      </trkpt>
      <trkpt lat="49.39325" lon="1.41176">
        <ele>123</ele>
        <time>2017-06-13T16:30:53Z</time>
      </trkpt>
      <trkpt lat="49.3933" lon="1.41176">
        <ele>123</ele>
        <time>2017-06-13T16:30:53Z</time>
      </trkpt>
      <trkpt lat="49.39334" lon="1.41178">
        <ele>123</ele>
        <time>2017-06-13T16:31:09Z</time>
      </trkpt>
      <trkpt lat="49.39338" lon="1.41179">
        <ele>123</ele>
        <time>2017-06-13T16:31:09Z</time>
      </trkpt>
      <trkpt lat="49.39344" lon="1.41182">
        <ele>123</ele>
        <time>2017-06-13T16:31:09Z</time>
      </trkpt>
      <trkpt lat="49.39347" lon="1.41183">
        <ele>123</ele>
        <time>2017-06-13T16:31:09Z</time>
      </trkpt>
      <trkpt lat="49.39352" lon="1.41185">
        <ele>123</ele>
        <time>2017-06-13T16:31:25Z</time>
      </trkpt>
      <trkpt lat="49.39356" lon="1.41187">
        <ele>123</ele>
        <time>2017-06-13T16:31:25Z</time>
      </trkpt>
      <trkpt lat="49.3936" lon="1.41188">
        <ele>123</ele>
        <time>2017-06-13T16:31:25Z</time>
      </trkpt>
      <trkpt lat="49.39364" lon="1.4119">
        <ele>123</ele>
        <time>2017-06-13T16:31:25Z</time>
      </trkpt>
      <trkpt lat="49.39371" lon="1.41194">
        <ele>123</ele>
        <time>2017-06-13T16:32:57Z</time>
      </trkpt>
      <trkpt lat="49.39374" lon="1.41197">
        <ele>123</ele>
        <time>2017-06-13T16:32:57Z</time>
      </trkpt>
      <trkpt lat="49.39379" lon="1.41199">
        <ele>122</ele>
        <time>2017-06-13T16:32:57Z</time>
      </trkpt>
      <trkpt lat="49.39384" lon="1.41201">
        <ele>122</ele>
        <time>2017-06-13T16:32:57Z</time>
      </trkpt>
      <trkpt lat="49.39388" lon="1.41202">
        <ele>122</ele>
        <time>2017-06-13T16:32:57Z</time>
      </trkpt>
      <trkpt lat="49.39393" lon="1.41204">
        <ele>122</ele>
        <time>2017-06-13T16:33:13Z</time>
      </trkpt>
      <trkpt lat="49.39397" lon="1.41207">
        <ele>122</ele>
        <time>2017-06-13T16:33:13Z</time>
      </trkpt>
      <trkpt lat="49.39401" lon="1.41208">
        <ele>122</ele>
        <time>2017-06-13T16:33:13Z</time>
      </trkpt>
      <trkpt lat="49.39404" lon="1.41207">
        <ele>122</ele>
        <time>2017-06-13T16:33:13Z</time>
      </trkpt>
      <trkpt lat="49.3941" lon="1.41206">
        <ele>122</ele>
        <time>2017-06-13T16:33:36Z</time>
      </trkpt>
      <trkpt lat="49.3941" lon="1.41205">
        <ele>122</ele>
        <time>2017-06-13T16:33:36Z</time>
      </trkpt>
      <trkpt lat="49.39411" lon="1.41204">
        <ele>122</ele>
        <time>2017-06-13T16:33:36Z</time>
      </trkpt>
      <trkpt lat="49.39414" lon="1.41203">
        <ele>122</ele>
        <time>2017-06-13T16:33:36Z</time>
      </trkpt>
      <trkpt lat="49.39394" lon="1.41186">
        <ele>122</ele>
        <time>2017-06-13T16:33:36Z</time>
      </trkpt>
      <trkpt lat="49.3939" lon="1.41185">
        <ele>122</ele>
        <time>2017-06-13T16:33:57Z</time>
      </trkpt>
      <trkpt lat="49.39388" lon="1.41189">
        <ele>122</ele>
        <time>2017-06-13T16:33:57Z</time>
      </trkpt>
      <trkpt lat="49.39392" lon="1.4119">
        <ele>122</ele>
        <time>2017-06-13T16:33:57Z</time>
      </trkpt>
      <trkpt lat="49.39393" lon="1.41196">
        <ele>122</ele>
        <time>2017-06-13T16:33:57Z</time>
      </trkpt>
      <trkpt lat="49.39393" lon="1.41205">
        <ele>122</ele>
        <time>2017-06-13T16:33:57Z</time>
      </trkpt>
      <trkpt lat="49.39396" lon="1.41213">
        <ele>126</ele>
        <time>2017-06-13T16:34:16Z</time>
      </trkpt>
      <trkpt lat="49.39397" lon="1.41215">
        <ele>126</ele>
        <time>2017-06-13T16:34:16Z</time>
      </trkpt>
      <trkpt lat="49.39399" lon="1.41218">
        <ele>126</ele>
        <time>2017-06-13T16:34:16Z</time>
      </trkpt>
      <trkpt lat="49.394" lon="1.41223">
        <ele>126</ele>
        <time>2017-06-13T16:34:16Z</time>
      </trkpt>
      <trkpt lat="49.39403" lon="1.41227">
        <ele>126</ele>
        <time>2017-06-13T16:34:16Z</time>
      </trkpt>
      <trkpt lat="49.39408" lon="1.41231">
        <ele>126</ele>
        <time>2017-06-13T16:34:32Z</time>
      </trkpt>
      <trkpt lat="49.39411" lon="1.41234">
        <ele>126</ele>
        <time>2017-06-13T16:34:33Z</time>
      </trkpt>
      <trkpt lat="49.39415" lon="1.41235">
        <ele>126</ele>
        <time>2017-06-13T16:34:33Z</time>
      </trkpt>
      <trkpt lat="49.39419" lon="1.41236">
        <ele>126</ele>
        <time>2017-06-13T16:34:33Z</time>
      </trkpt>
      <trkpt lat="49.39424" lon="1.41236">
        <ele>126</ele>
        <time>2017-06-13T16:34:49Z</time>
      </trkpt>
      <trkpt lat="49.39428" lon="1.41237">
        <ele>126</ele>
        <time>2017-06-13T16:34:49Z</time>
      </trkpt>
      <trkpt lat="49.39432" lon="1.41241">
        <ele>126</ele>
        <time>2017-06-13T16:34:49Z</time>
      </trkpt>
      <trkpt lat="49.39434" lon="1.41244">
        <ele>126</ele>
        <time>2017-06-13T16:34:49Z</time>
      </trkpt>
      <trkpt lat="49.39438" lon="1.41243">
        <ele>126</ele>
        <time>2017-06-13T16:35:04Z</time>
      </trkpt>
      <trkpt lat="49.39443" lon="1.41246">
        <ele>126</ele>
        <time>2017-06-13T16:35:04Z</time>
      </trkpt>
      <trkpt lat="49.39447" lon="1.41247">
        <ele>126</ele>
        <time>2017-06-13T16:35:04Z</time>
      </trkpt>
      <trkpt lat="49.39451" lon="1.41248">
        <ele>126</ele>
        <time>2017-06-13T16:35:04Z</time>
      </trkpt>
      <trkpt lat="49.39456" lon="1.4125">
        <ele>126</ele>
        <time>2017-06-13T16:35:21Z</time>
      </trkpt>
      <trkpt lat="49.3946" lon="1.41254">
        <ele>110</ele>
        <time>2017-06-13T16:35:21Z</time>
      </trkpt>
      <trkpt lat="49.39463" lon="1.41255">
        <ele>110</ele>
        <time>2017-06-13T16:35:21Z</time>
      </trkpt>
      <trkpt lat="49.39468" lon="1.41257">
        <ele>110</ele>
        <time>2017-06-13T16:35:21Z</time>
      </trkpt>
      <trkpt lat="49.39472" lon="1.41259">
        <ele>110</ele>
        <time>2017-06-13T16:35:37Z</time>
      </trkpt>
      <trkpt lat="49.39476" lon="1.4126">
        <ele>110</ele>
        <time>2017-06-13T16:35:37Z</time>
      </trkpt>
      <trkpt lat="49.39482" lon="1.41261">
        <ele>110</ele>
        <time>2017-06-13T16:35:37Z</time>
      </trkpt>
      <trkpt lat="49.39485" lon="1.41263">
        <ele>110</ele>
        <time>2017-06-13T16:35:37Z</time>
      </trkpt>
      <trkpt lat="49.39489" lon="1.41265">
        <ele>110</ele>
        <time>2017-06-13T16:35:53Z</time>
      </trkpt>
      <trkpt lat="49.39494" lon="1.41267">
        <ele>110</ele>
        <time>2017-06-13T16:35:53Z</time>
      </trkpt>
      <trkpt lat="49.39498" lon="1.41269">
        <ele>110</ele>
        <time>2017-06-13T16:35:53Z</time>
      </trkpt>
      <trkpt lat="49.39502" lon="1.41271">
        <ele>110</ele>
        <time>2017-06-13T16:35:53Z</time>
      </trkpt>
      <trkpt lat="49.39506" lon="1.41273">
        <ele>110</ele>
        <time>2017-06-13T16:36:09Z</time>
      </trkpt>
      <trkpt lat="49.39511" lon="1.41276">
        <ele>110</ele>
        <time>2017-06-13T16:36:09Z</time>
      </trkpt>
      <trkpt lat="49.39515" lon="1.41276">
        <ele>110</ele>
        <time>2017-06-13T16:36:09Z</time>
      </trkpt>
      <trkpt lat="49.39519" lon="1.41277">
        <ele>110</ele>
        <time>2017-06-13T16:36:09Z</time>
      </trkpt>
      <trkpt lat="49.39524" lon="1.41277">
        <ele>110</ele>
        <time>2017-06-13T16:36:25Z</time>
      </trkpt>
      <trkpt lat="49.39528" lon="1.41278">
        <ele>110</ele>
        <time>2017-06-13T16:36:25Z</time>
      </trkpt>
      <trkpt lat="49.39532" lon="1.41279">
        <ele>110</ele>
        <time>2017-06-13T16:36:25Z</time>
      </trkpt>
      <trkpt lat="49.39536" lon="1.41282">
        <ele>110</ele>
        <time>2017-06-13T16:36:25Z</time>
      </trkpt>
      <trkpt lat="49.3954" lon="1.41286">
        <ele>110</ele>
        <time>2017-06-13T16:36:40Z</time>
      </trkpt>
      <trkpt lat="49.39544" lon="1.41289">
        <ele>100</ele>
        <time>2017-06-13T16:36:40Z</time>
      </trkpt>
      <trkpt lat="49.39549" lon="1.4129">
        <ele>100</ele>
        <time>2017-06-13T16:36:41Z</time>
      </trkpt>
      <trkpt lat="49.39553" lon="1.4129">
        <ele>100</ele>
        <time>2017-06-13T16:36:41Z</time>
      </trkpt>
      <trkpt lat="49.39557" lon="1.41292">
        <ele>110</ele>
        <time>2017-06-13T16:36:56Z</time>
      </trkpt>
      <trkpt lat="49.39562" lon="1.41297">
        <ele>110</ele>
        <time>2017-06-13T16:36:56Z</time>
      </trkpt>
      <trkpt lat="49.39565" lon="1.413">
        <ele>110</ele>
        <time>2017-06-13T16:36:56Z</time>
      </trkpt>
      <trkpt lat="49.39569" lon="1.41302">
        <ele>110</ele>
        <time>2017-06-13T16:36:56Z</time>
      </trkpt>
      <trkpt lat="49.39574" lon="1.41301">
        <ele>110</ele>
        <time>2017-06-13T16:37:13Z</time>
      </trkpt>
      <trkpt lat="49.39578" lon="1.41301">
        <ele>110</ele>
        <time>2017-06-13T16:37:13Z</time>
      </trkpt>
      <trkpt lat="49.39582" lon="1.413">
        <ele>110</ele>
        <time>2017-06-13T16:37:14Z</time>
      </trkpt>
      <trkpt lat="49.39588" lon="1.41297">
        <ele>110</ele>
        <time>2017-06-13T16:37:14Z</time>
      </trkpt>
      <trkpt lat="49.39591" lon="1.41297">
        <ele>110</ele>
        <time>2017-06-13T16:37:29Z</time>
      </trkpt>
      <trkpt lat="49.39596" lon="1.41297">
        <ele>110</ele>
        <time>2017-06-13T16:37:29Z</time>
      </trkpt>
      <trkpt lat="49.396" lon="1.413">
        <ele>110</ele>
        <time>2017-06-13T16:37:29Z</time>
      </trkpt>
      <trkpt lat="49.39604" lon="1.41302">
        <ele>110</ele>
        <time>2017-06-13T16:37:29Z</time>
      </trkpt>
      <trkpt lat="49.3961" lon="1.41304">
        <ele>110</ele>
        <time>2017-06-13T16:37:45Z</time>
      </trkpt>
      <trkpt lat="49.39613" lon="1.41305">
        <ele>110</ele>
        <time>2017-06-13T16:37:45Z</time>
      </trkpt>
      <trkpt lat="49.39618" lon="1.41308">
        <ele>110</ele>
        <time>2017-06-13T16:37:45Z</time>
      </trkpt>
      <trkpt lat="49.39621" lon="1.4131">
        <ele>110</ele>
        <time>2017-06-13T16:37:45Z</time>
      </trkpt>
      <trkpt lat="49.39625" lon="1.41311">
        <ele>106</ele>
        <time>2017-06-13T16:38:01Z</time>
      </trkpt>
      <trkpt lat="49.39629" lon="1.41312">
        <ele>106</ele>
        <time>2017-06-13T16:38:01Z</time>
      </trkpt>
      <trkpt lat="49.39633" lon="1.41315">
        <ele>106</ele>
        <time>2017-06-13T16:38:01Z</time>
      </trkpt>
      <trkpt lat="49.39638" lon="1.4132">
        <ele>106</ele>
        <time>2017-06-13T16:38:01Z</time>
      </trkpt>
      <trkpt lat="49.3964" lon="1.41323">
        <ele>106</ele>
        <time>2017-06-13T16:38:17Z</time>
      </trkpt>
      <trkpt lat="49.39644" lon="1.41324">
        <ele>106</ele>
        <time>2017-06-13T16:38:17Z</time>
      </trkpt>
      <trkpt lat="49.39648" lon="1.41321">
        <ele>106</ele>
        <time>2017-06-13T16:38:17Z</time>
      </trkpt>
      <trkpt lat="49.39649" lon="1.41316">
        <ele>106</ele>
        <time>2017-06-13T16:38:17Z</time>
      </trkpt>
      <trkpt lat="49.39648" lon="1.41307">
        <ele>106</ele>
        <time>2017-06-13T16:39:05Z</time>
      </trkpt>
      <trkpt lat="49.39642" lon="1.41314">
        <ele>106</ele>
        <time>2017-06-13T16:39:05Z</time>
      </trkpt>
      <trkpt lat="49.39632" lon="1.41312">
        <ele>106</ele>
        <time>2017-06-13T16:39:05Z</time>
      </trkpt>
      <trkpt lat="49.39631" lon="1.41309">
        <ele>106</ele>
        <time>2017-06-13T16:39:06Z</time>
      </trkpt>
      <trkpt lat="49.39628" lon="1.41305">
        <ele>106</ele>
        <time>2017-06-13T16:39:06Z</time>
      </trkpt>
      <trkpt lat="49.39628" lon="1.41302">
        <ele>106</ele>
        <time>2017-06-13T16:39:21Z</time>
      </trkpt>
      <trkpt lat="49.39632" lon="1.41299">
        <ele>106</ele>
        <time>2017-06-13T16:39:21Z</time>
      </trkpt>
      <trkpt lat="49.39632" lon="1.41293">
        <ele>106</ele>
        <time>2017-06-13T16:39:21Z</time>
      </trkpt>
      <trkpt lat="49.39632" lon="1.41287">
        <ele>110</ele>
        <time>2017-06-13T16:39:21Z</time>
      </trkpt>
      <trkpt lat="49.39633" lon="1.41282">
        <ele>110</ele>
        <time>2017-06-13T16:39:37Z</time>
      </trkpt>
      <trkpt lat="49.39635" lon="1.41274">
        <ele>110</ele>
        <time>2017-06-13T16:39:37Z</time>
      </trkpt>
      <trkpt lat="49.39636" lon="1.4127">
        <ele>110</ele>
        <time>2017-06-13T16:39:37Z</time>
      </trkpt>
      <trkpt lat="49.39634" lon="1.41266">
        <ele>110</ele>
        <time>2017-06-13T16:39:37Z</time>
      </trkpt>
      <trkpt lat="49.39632" lon="1.41264">
        <ele>110</ele>
        <time>2017-06-13T16:40:17Z</time>
      </trkpt>
      <trkpt lat="49.39632" lon="1.41264">
        <ele>110</ele>
        <time>2017-06-13T16:40:17Z</time>
      </trkpt>
      <trkpt lat="49.3963" lon="1.41263">
        <ele>110</ele>
        <time>2017-06-13T16:40:17Z</time>
      </trkpt>
      <trkpt lat="49.39626" lon="1.41258">
        <ele>110</ele>
        <time>2017-06-13T16:40:17Z</time>
      </trkpt>
      <trkpt lat="49.39622" lon="1.41252">
        <ele>100</ele>
        <time>2017-06-13T16:40:17Z</time>
      </trkpt>
      <trkpt lat="49.3962" lon="1.41249">
        <ele>100</ele>
        <time>2017-06-13T16:40:32Z</time>
      </trkpt>
      <trkpt lat="49.39616" lon="1.41242">
        <ele>100</ele>
        <time>2017-06-13T16:40:32Z</time>
      </trkpt>
      <trkpt lat="49.39612" lon="1.41235">
        <ele>100</ele>
        <time>2017-06-13T16:40:32Z</time>
      </trkpt>
      <trkpt lat="49.39609" lon="1.41228">
        <ele>100</ele>
        <time>2017-06-13T16:40:32Z</time>
      </trkpt>
      <trkpt lat="49.39605" lon="1.41217">
        <ele>100</ele>
        <time>2017-06-13T16:40:54Z</time>
      </trkpt>
      <trkpt lat="49.39604" lon="1.41215">
        <ele>100</ele>
        <time>2017-06-13T16:40:54Z</time>
      </trkpt>
      <trkpt lat="49.39604" lon="1.41215">
        <ele>100</ele>
        <time>2017-06-13T16:40:54Z</time>
      </trkpt>
      <trkpt lat="49.39603" lon="1.41213">
        <ele>100</ele>
        <time>2017-06-13T16:40:54Z</time>
      </trkpt>
      <trkpt lat="49.39599" lon="1.41201">
        <ele>100</ele>
        <time>2017-06-13T16:40:54Z</time>
      </trkpt>
      <trkpt lat="49.39597" lon="1.41196">
        <ele>100</ele>
        <time>2017-06-13T16:41:09Z</time>
      </trkpt>
      <trkpt lat="49.39595" lon="1.41188">
        <ele>100</ele>
        <time>2017-06-13T16:41:09Z</time>
      </trkpt>
      <trkpt lat="49.39594" lon="1.41179">
        <ele>100</ele>
        <time>2017-06-13T16:41:09Z</time>
      </trkpt>
      <trkpt lat="49.39594" lon="1.41174">
        <ele>100</ele>
        <time>2017-06-13T16:41:09Z</time>
      </trkpt>
      <trkpt lat="49.39593" lon="1.41166">
        <ele>100</ele>
        <time>2017-06-13T16:41:25Z</time>
      </trkpt>
      <trkpt lat="49.39593" lon="1.41158">
        <ele>100</ele>
        <time>2017-06-13T16:41:25Z</time>
      </trkpt>
      <trkpt lat="49.39594" lon="1.41133">
        <ele>100</ele>
        <time>2017-06-13T16:41:25Z</time>
      </trkpt>
      <trkpt lat="49.39592" lon="1.4112">
        <ele>97</ele>
        <time>2017-06-13T16:41:25Z</time>
      </trkpt>
      <trkpt lat="49.39592" lon="1.41112">
        <ele>97</ele>
        <time>2017-06-13T16:41:40Z</time>
      </trkpt>
      <trkpt lat="49.3959" lon="1.41106">
        <ele>97</ele>
        <time>2017-06-13T16:41:40Z</time>
      </trkpt>
      <trkpt lat="49.39591" lon="1.41102">
        <ele>97</ele>
        <time>2017-06-13T16:41:40Z</time>
      </trkpt>
      <trkpt lat="49.39592" lon="1.41093">
        <ele>97</ele>
        <time>2017-06-13T16:41:40Z</time>
      </trkpt>
      <trkpt lat="49.39594" lon="1.41086">
        <ele>97</ele>
        <time>2017-06-13T16:41:56Z</time>
      </trkpt>
      <trkpt lat="49.39595" lon="1.4108">
        <ele>97</ele>
        <time>2017-06-13T16:41:56Z</time>
      </trkpt>
      <trkpt lat="49.39597" lon="1.41074">
        <ele>97</ele>
        <time>2017-06-13T16:41:56Z</time>
      </trkpt>
      <trkpt lat="49.396" lon="1.41069">
        <ele>97</ele>
        <time>2017-06-13T16:41:56Z</time>
      </trkpt>
      <trkpt lat="49.39599" lon="1.41061">
        <ele>97</ele>
        <time>2017-06-13T16:42:13Z</time>
      </trkpt>
      <trkpt lat="49.39599" lon="1.41058">
        <ele>97</ele>
        <time>2017-06-13T16:42:13Z</time>
      </trkpt>
      <trkpt lat="49.39599" lon="1.41057">
        <ele>97</ele>
        <time>2017-06-13T16:42:13Z</time>
      </trkpt>
      <trkpt lat="49.39601" lon="1.41046">
        <ele>97</ele>
        <time>2017-06-13T16:42:13Z</time>
      </trkpt>
      <trkpt lat="49.39604" lon="1.41042">
        <ele>97</ele>
        <time>2017-06-13T16:42:29Z</time>
      </trkpt>
      <trkpt lat="49.39606" lon="1.41037">
        <ele>97</ele>
        <time>2017-06-13T16:42:29Z</time>
      </trkpt>
      <trkpt lat="49.39608" lon="1.41026">
        <ele>97</ele>
        <time>2017-06-13T16:42:29Z</time>
      </trkpt>
      <trkpt lat="49.39609" lon="1.4102">
        <ele>97</ele>
        <time>2017-06-13T16:42:29Z</time>
      </trkpt>
      <trkpt lat="49.3961" lon="1.41013">
        <ele>97</ele>
        <time>2017-06-13T16:42:44Z</time>
      </trkpt>
      <trkpt lat="49.39611" lon="1.41007">
        <ele>97</ele>
        <time>2017-06-13T16:42:44Z</time>
      </trkpt>
      <trkpt lat="49.39613" lon="1.40999">
        <ele>97</ele>
        <time>2017-06-13T16:42:44Z</time>
      </trkpt>
      <trkpt lat="49.39614" lon="1.40994">
        <ele>97</ele>
        <time>2017-06-13T16:42:44Z</time>
      </trkpt>
      <trkpt lat="49.39615" lon="1.40986">
        <ele>97</ele>
        <time>2017-06-13T16:43:01Z</time>
      </trkpt>
      <trkpt lat="49.39616" lon="1.40981">
        <ele>97</ele>
        <time>2017-06-13T16:43:01Z</time>
      </trkpt>
      <trkpt lat="49.39617" lon="1.40974">
        <ele>97</ele>
        <time>2017-06-13T16:43:01Z</time>
      </trkpt>
      <trkpt lat="49.39618" lon="1.40968">
        <ele>97</ele>
        <time>2017-06-13T16:43:01Z</time>
      </trkpt>
      <trkpt lat="49.39619" lon="1.40959">
        <ele>97</ele>
        <time>2017-06-13T16:43:16Z</time>
      </trkpt>
      <trkpt lat="49.3962" lon="1.40954">
        <ele>94</ele>
        <time>2017-06-13T16:43:16Z</time>
      </trkpt>
      <trkpt lat="49.39621" lon="1.40948">
        <ele>94</ele>
        <time>2017-06-13T16:43:16Z</time>
      </trkpt>
      <trkpt lat="49.39621" lon="1.40941">
        <ele>94</ele>
        <time>2017-06-13T16:43:16Z</time>
      </trkpt>
      <trkpt lat="49.39622" lon="1.40932">
        <ele>94</ele>
        <time>2017-06-13T16:43:33Z</time>
      </trkpt>
      <trkpt lat="49.39622" lon="1.40927">
        <ele>94</ele>
        <time>2017-06-13T16:43:33Z</time>
      </trkpt>
      <trkpt lat="49.39623" lon="1.40918">
        <ele>94</ele>
        <time>2017-06-13T16:43:33Z</time>
      </trkpt>
      <trkpt lat="49.39623" lon="1.40911">
        <ele>94</ele>
        <time>2017-06-13T16:43:33Z</time>
      </trkpt>
      <trkpt lat="49.39622" lon="1.40905">
        <ele>94</ele>
        <time>2017-06-13T16:43:49Z</time>
      </trkpt>
      <trkpt lat="49.39622" lon="1.40898">
        <ele>94</ele>
        <time>2017-06-13T16:43:49Z</time>
      </trkpt>
      <trkpt lat="49.39628" lon="1.40878">
        <ele>97</ele>
        <time>2017-06-13T16:43:49Z</time>
      </trkpt>
      <trkpt lat="49.39629" lon="1.40868">
        <ele>95</ele>
        <time>2017-06-13T16:43:49Z</time>
      </trkpt>
      <trkpt lat="49.3963" lon="1.40859">
        <ele>95</ele>
        <time>2017-06-13T16:44:04Z</time>
      </trkpt>
      <trkpt lat="49.39628" lon="1.40852">
        <ele>95</ele>
        <time>2017-06-13T16:44:04Z</time>
      </trkpt>
      <trkpt lat="49.39627" lon="1.40845">
        <ele>95</ele>
        <time>2017-06-13T16:44:04Z</time>
      </trkpt>
      <trkpt lat="49.39626" lon="1.40838">
        <ele>95</ele>
        <time>2017-06-13T16:44:04Z</time>
      </trkpt>
      <trkpt lat="49.39625" lon="1.40831">
        <ele>95</ele>
        <time>2017-06-13T16:44:21Z</time>
      </trkpt>
      <trkpt lat="49.39624" lon="1.40825">
        <ele>88</ele>
        <time>2017-06-13T16:44:21Z</time>
      </trkpt>
      <trkpt lat="49.39622" lon="1.4082">
        <ele>88</ele>
        <time>2017-06-13T16:44:21Z</time>
      </trkpt>
      <trkpt lat="49.3962" lon="1.40812">
        <ele>88</ele>
        <time>2017-06-13T16:44:21Z</time>
      </trkpt>
      <trkpt lat="49.39618" lon="1.40804">
        <ele>88</ele>
        <time>2017-06-13T16:44:36Z</time>
      </trkpt>
      <trkpt lat="49.39616" lon="1.40799">
        <ele>88</ele>
        <time>2017-06-13T16:44:36Z</time>
      </trkpt>
      <trkpt lat="49.39614" lon="1.40791">
        <ele>84</ele>
        <time>2017-06-13T16:44:36Z</time>
      </trkpt>
      <trkpt lat="49.39613" lon="1.40786">
        <ele>84</ele>
        <time>2017-06-13T16:44:36Z</time>
      </trkpt>
      <trkpt lat="49.39609" lon="1.40775">
        <ele>84</ele>
        <time>2017-06-13T16:44:53Z</time>
      </trkpt>
      <trkpt lat="49.39609" lon="1.40764">
        <ele>84</ele>
        <time>2017-06-13T16:44:53Z</time>
      </trkpt>
      <trkpt lat="49.39605" lon="1.40753">
        <ele>84</ele>
        <time>2017-06-13T16:44:53Z</time>
      </trkpt>
      <trkpt lat="49.39601" lon="1.40742">
        <ele>84</ele>
        <time>2017-06-13T16:44:53Z</time>
      </trkpt>
      <trkpt lat="49.39599" lon="1.40734">
        <ele>84</ele>
        <time>2017-06-13T16:45:09Z</time>
      </trkpt>
      <trkpt lat="49.39599" lon="1.4073">
        <ele>84</ele>
        <time>2017-06-13T16:45:09Z</time>
      </trkpt>
      <trkpt lat="49.39596" lon="1.4072">
        <ele>84</ele>
        <time>2017-06-13T16:45:09Z</time>
      </trkpt>
      <trkpt lat="49.39593" lon="1.40715">
        <ele>84</ele>
        <time>2017-06-13T16:45:09Z</time>
      </trkpt>
      <trkpt lat="49.39594" lon="1.40713">
        <ele>84</ele>
        <time>2017-06-13T16:45:25Z</time>
      </trkpt>
      <trkpt lat="49.39598" lon="1.40709">
        <ele>84</ele>
        <time>2017-06-13T16:45:25Z</time>
      </trkpt>
      <trkpt lat="49.39601" lon="1.40703">
        <ele>85</ele>
        <time>2017-06-13T16:45:25Z</time>
      </trkpt>
      <trkpt lat="49.39605" lon="1.40702">
        <ele>85</ele>
        <time>2017-06-13T16:45:25Z</time>
      </trkpt>
      <trkpt lat="49.3961" lon="1.40699">
        <ele>85</ele>
        <time>2017-06-13T16:47:52Z</time>
      </trkpt>
      <trkpt lat="49.39613" lon="1.407">
        <ele>85</ele>
        <time>2017-06-13T16:47:52Z</time>
      </trkpt>
      <trkpt lat="49.39618" lon="1.407">
        <ele>85</ele>
        <time>2017-06-13T16:47:52Z</time>
      </trkpt>
      <trkpt lat="49.39623" lon="1.40697">
        <ele>85</ele>
        <time>2017-06-13T16:47:52Z</time>
      </trkpt>
      <trkpt lat="49.39626" lon="1.40694">
        <ele>86</ele>
        <time>2017-06-13T16:47:52Z</time>
      </trkpt>
      <trkpt lat="49.3963" lon="1.4069">
        <ele>86</ele>
        <time>2017-06-13T16:48:09Z</time>
      </trkpt>
      <trkpt lat="49.39633" lon="1.40686">
        <ele>86</ele>
        <time>2017-06-13T16:48:09Z</time>
      </trkpt>
      <trkpt lat="49.39637" lon="1.40682">
        <ele>86</ele>
        <time>2017-06-13T16:48:09Z</time>
      </trkpt>
      <trkpt lat="49.3964" lon="1.40679">
        <ele>86</ele>
        <time>2017-06-13T16:48:09Z</time>
      </trkpt>
      <trkpt lat="49.39643" lon="1.40674">
        <ele>86</ele>
        <time>2017-06-13T16:48:25Z</time>
      </trkpt>
      <trkpt lat="49.39646" lon="1.40668">
        <ele>86</ele>
        <time>2017-06-13T16:48:25Z</time>
      </trkpt>
      <trkpt lat="49.39644" lon="1.40665">
        <ele>86</ele>
        <time>2017-06-13T16:48:25Z</time>
      </trkpt>
      <trkpt lat="49.39642" lon="1.40657">
        <ele>86</ele>
        <time>2017-06-13T16:48:25Z</time>
      </trkpt>
      <trkpt lat="49.39642" lon="1.40648">
        <ele>86</ele>
        <time>2017-06-13T16:48:41Z</time>
      </trkpt>
      <trkpt lat="49.39644" lon="1.40643">
        <ele>86</ele>
        <time>2017-06-13T16:48:41Z</time>
      </trkpt>
      <trkpt lat="49.39645" lon="1.40636">
        <ele>86</ele>
        <time>2017-06-13T16:48:41Z</time>
      </trkpt>
      <trkpt lat="49.39648" lon="1.40633">
        <ele>86</ele>
        <time>2017-06-13T16:48:41Z</time>
      </trkpt>
      <trkpt lat="49.39649" lon="1.4063">
        <ele>86</ele>
        <time>2017-06-13T16:48:57Z</time>
      </trkpt>
      <trkpt lat="49.3965" lon="1.40623">
        <ele>87</ele>
        <time>2017-06-13T16:48:57Z</time>
      </trkpt>
      <trkpt lat="49.3965" lon="1.40616">
        <ele>87</ele>
        <time>2017-06-13T16:48:57Z</time>
      </trkpt>
      <trkpt lat="49.39651" lon="1.40609">
        <ele>87</ele>
        <time>2017-06-13T16:48:57Z</time>
      </trkpt>
      <trkpt lat="49.39653" lon="1.40602">
        <ele>87</ele>
        <time>2017-06-13T16:49:25Z</time>
      </trkpt>
      <trkpt lat="49.39655" lon="1.40599">
        <ele>87</ele>
        <time>2017-06-13T16:49:25Z</time>
      </trkpt>
      <trkpt lat="49.39657" lon="1.40593">
        <ele>87</ele>
        <time>2017-06-13T16:49:25Z</time>
      </trkpt>
      <trkpt lat="49.39659" lon="1.40587">
        <ele>87</ele>
        <time>2017-06-13T16:49:25Z</time>
      </trkpt>
      <trkpt lat="49.39661" lon="1.4058">
        <ele>87</ele>
        <time>2017-06-13T16:49:25Z</time>
      </trkpt>
      <trkpt lat="49.39662" lon="1.40575">
        <ele>87</ele>
        <time>2017-06-13T16:49:45Z</time>
      </trkpt>
      <trkpt lat="49.39664" lon="1.40575">
        <ele>87</ele>
        <time>2017-06-13T16:49:45Z</time>
      </trkpt>
      <trkpt lat="49.39664" lon="1.40571">
        <ele>87</ele>
        <time>2017-06-13T16:49:45Z</time>
      </trkpt>
      <trkpt lat="49.39664" lon="1.40562">
        <ele>87</ele>
        <time>2017-06-13T16:49:45Z</time>
      </trkpt>
      <trkpt lat="49.39667" lon="1.40559">
        <ele>87</ele>
        <time>2017-06-13T16:49:45Z</time>
      </trkpt>
      <trkpt lat="49.39669" lon="1.40556">
        <ele>87</ele>
        <time>2017-06-13T16:50:04Z</time>
      </trkpt>
      <trkpt lat="49.39673" lon="1.40554">
        <ele>87</ele>
        <time>2017-06-13T16:50:04Z</time>
      </trkpt>
      <trkpt lat="49.39671" lon="1.4055">
        <ele>87</ele>
        <time>2017-06-13T16:50:04Z</time>
      </trkpt>
      <trkpt lat="49.3967" lon="1.40544">
        <ele>87</ele>
        <time>2017-06-13T16:50:04Z</time>
      </trkpt>
      <trkpt lat="49.39669" lon="1.4054">
        <ele>92</ele>
        <time>2017-06-13T16:50:04Z</time>
      </trkpt>
      <trkpt lat="49.39669" lon="1.40534">
        <ele>92</ele>
        <time>2017-06-13T16:50:20Z</time>
      </trkpt>
      <trkpt lat="49.39668" lon="1.40526">
        <ele>92</ele>
        <time>2017-06-13T16:50:20Z</time>
      </trkpt>
      <trkpt lat="49.39668" lon="1.40522">
        <ele>92</ele>
        <time>2017-06-13T16:50:20Z</time>
      </trkpt>
      <trkpt lat="49.3967" lon="1.40517">
        <ele>92</ele>
        <time>2017-06-13T16:50:20Z</time>
      </trkpt>
      <trkpt lat="49.39669" lon="1.40513">
        <ele>92</ele>
        <time>2017-06-13T16:50:38Z</time>
      </trkpt>
      <trkpt lat="49.39667" lon="1.40507">
        <ele>92</ele>
        <time>2017-06-13T16:50:38Z</time>
      </trkpt>
      <trkpt lat="49.39669" lon="1.40502">
        <ele>92</ele>
        <time>2017-06-13T16:50:38Z</time>
      </trkpt>
      <trkpt lat="49.3967" lon="1.40495">
        <ele>92</ele>
        <time>2017-06-13T16:50:38Z</time>
      </trkpt>
      <trkpt lat="49.3967" lon="1.40493">
        <ele>92</ele>
        <time>2017-06-13T16:50:54Z</time>
      </trkpt>
      <trkpt lat="49.39671" lon="1.40486">
        <ele>92</ele>
        <time>2017-06-13T16:50:54Z</time>
      </trkpt>
      <trkpt lat="49.39674" lon="1.40481">
        <ele>92</ele>
        <time>2017-06-13T16:50:54Z</time>
      </trkpt>
      <trkpt lat="49.39677" lon="1.40473">
        <ele>92</ele>
        <time>2017-06-13T16:50:54Z</time>
      </trkpt>
      <trkpt lat="49.39677" lon="1.4047">
        <ele>92</ele>
        <time>2017-06-13T16:51:14Z</time>
      </trkpt>
      <trkpt lat="49.39675" lon="1.40466">
        <ele>92</ele>
        <time>2017-06-13T16:51:14Z</time>
      </trkpt>
      <trkpt lat="49.39675" lon="1.40462">
        <ele>92</ele>
        <time>2017-06-13T16:51:14Z</time>
      </trkpt>
      <trkpt lat="49.39676" lon="1.40456">
        <ele>105</ele>
        <time>2017-06-13T16:51:14Z</time>
      </trkpt>
      <trkpt lat="49.39677" lon="1.4045">
        <ele>105</ele>
        <time>2017-06-13T16:51:14Z</time>
      </trkpt>
      <trkpt lat="49.39678" lon="1.40445">
        <ele>105</ele>
        <time>2017-06-13T16:51:29Z</time>
      </trkpt>
      <trkpt lat="49.39679" lon="1.40439">
        <ele>105</ele>
        <time>2017-06-13T16:51:29Z</time>
      </trkpt>
      <trkpt lat="49.3968" lon="1.40433">
        <ele>105</ele>
        <time>2017-06-13T16:51:29Z</time>
      </trkpt>
      <trkpt lat="49.39687" lon="1.40431">
        <ele>105</ele>
        <time>2017-06-13T16:51:29Z</time>
      </trkpt>
      <trkpt lat="49.39691" lon="1.40431">
        <ele>105</ele>
        <time>2017-06-13T16:51:45Z</time>
      </trkpt>
      <trkpt lat="49.39695" lon="1.40427">
        <ele>105</ele>
        <time>2017-06-13T16:51:45Z</time>
      </trkpt>
      <trkpt lat="49.39697" lon="1.40421">
        <ele>105</ele>
        <time>2017-06-13T16:51:45Z</time>
      </trkpt>
      <trkpt lat="49.39698" lon="1.40415">
        <ele>105</ele>
        <time>2017-06-13T16:51:45Z</time>
      </trkpt>
      <trkpt lat="49.39697" lon="1.40411">
        <ele>105</ele>
        <time>2017-06-13T16:52:01Z</time>
      </trkpt>
      <trkpt lat="49.39696" lon="1.40405">
        <ele>105</ele>
        <time>2017-06-13T16:52:01Z</time>
      </trkpt>
      <trkpt lat="49.39696" lon="1.40399">
        <ele>105</ele>
        <time>2017-06-13T16:52:01Z</time>
      </trkpt>
      <trkpt lat="49.39697" lon="1.40396">
        <ele>105</ele>
        <time>2017-06-13T16:52:01Z</time>
      </trkpt>
      <trkpt lat="49.39698" lon="1.4039">
        <ele>105</ele>
        <time>2017-06-13T16:52:21Z</time>
      </trkpt>
      <trkpt lat="49.39699" lon="1.40384">
        <ele>105</ele>
        <time>2017-06-13T16:52:21Z</time>
      </trkpt>
      <trkpt lat="49.397" lon="1.4038">
        <ele>105</ele>
        <time>2017-06-13T16:52:21Z</time>
      </trkpt>
      <trkpt lat="49.39702" lon="1.40378">
        <ele>105</ele>
        <time>2017-06-13T16:52:21Z</time>
      </trkpt>
      <trkpt lat="49.39704" lon="1.40373">
        <ele>116</ele>
        <time>2017-06-13T16:52:21Z</time>
      </trkpt>
      <trkpt lat="49.39705" lon="1.4037">
        <ele>116</ele>
        <time>2017-06-13T16:52:36Z</time>
      </trkpt>
      <trkpt lat="49.39706" lon="1.40364">
        <ele>116</ele>
        <time>2017-06-13T16:52:36Z</time>
      </trkpt>
      <trkpt lat="49.39708" lon="1.40359">
        <ele>116</ele>
        <time>2017-06-13T16:52:36Z</time>
      </trkpt>
      <trkpt lat="49.39708" lon="1.40353">
        <ele>103</ele>
        <time>2017-06-13T16:52:36Z</time>
      </trkpt>
      <trkpt lat="49.39707" lon="1.40347">
        <ele>116</ele>
        <time>2017-06-13T16:52:53Z</time>
      </trkpt>
      <trkpt lat="49.39707" lon="1.40343">
        <ele>116</ele>
        <time>2017-06-13T16:52:53Z</time>
      </trkpt>
      <trkpt lat="49.39709" lon="1.40338">
        <ele>103</ele>
        <time>2017-06-13T16:52:53Z</time>
      </trkpt>
      <trkpt lat="49.3971" lon="1.40329">
        <ele>103</ele>
        <time>2017-06-13T16:52:53Z</time>
      </trkpt>
      <trkpt lat="49.39711" lon="1.40326">
        <ele>103</ele>
        <time>2017-06-13T16:53:08Z</time>
      </trkpt>
      <trkpt lat="49.39713" lon="1.40321">
        <ele>103</ele>
        <time>2017-06-13T16:53:08Z</time>
      </trkpt>
      <trkpt lat="49.39716" lon="1.40315">
        <ele>103</ele>
        <time>2017-06-13T16:53:08Z</time>
      </trkpt>
      <trkpt lat="49.39717" lon="1.4031">
        <ele>103</ele>
        <time>2017-06-13T16:53:08Z</time>
      </trkpt>
      <trkpt lat="49.39718" lon="1.40304">
        <ele>103</ele>
        <time>2017-06-13T16:53:24Z</time>
      </trkpt>
      <trkpt lat="49.39717" lon="1.40297">
        <ele>103</ele>
        <time>2017-06-13T16:53:24Z</time>
      </trkpt>
      <trkpt lat="49.39715" lon="1.40295">
        <ele>103</ele>
        <time>2017-06-13T16:53:24Z</time>
      </trkpt>
      <trkpt lat="49.39715" lon="1.40287">
        <ele>109</ele>
        <time>2017-06-13T16:53:24Z</time>
      </trkpt>
      <trkpt lat="49.3972" lon="1.40285">
        <ele>109</ele>
        <time>2017-06-13T16:53:41Z</time>
      </trkpt>
      <trkpt lat="49.39722" lon="1.4028">
        <ele>109</ele>
        <time>2017-06-13T16:53:41Z</time>
      </trkpt>
      <trkpt lat="49.39724" lon="1.40276">
        <ele>109</ele>
        <time>2017-06-13T16:53:41Z</time>
      </trkpt>
      <trkpt lat="49.39724" lon="1.40271">
        <ele>109</ele>
        <time>2017-06-13T16:53:41Z</time>
      </trkpt>
      <trkpt lat="49.39723" lon="1.40266">
        <ele>109</ele>
        <time>2017-06-13T16:53:57Z</time>
      </trkpt>
      <trkpt lat="49.39725" lon="1.40258">
        <ele>109</ele>
        <time>2017-06-13T16:53:57Z</time>
      </trkpt>
      <trkpt lat="49.39726" lon="1.40253">
        <ele>109</ele>
        <time>2017-06-13T16:53:57Z</time>
      </trkpt>
      <trkpt lat="49.39726" lon="1.40245">
        <ele>109</ele>
        <time>2017-06-13T16:53:57Z</time>
      </trkpt>
      <trkpt lat="49.39727" lon="1.4024">
        <ele>109</ele>
        <time>2017-06-13T16:54:13Z</time>
      </trkpt>
      <trkpt lat="49.39729" lon="1.40235">
        <ele>109</ele>
        <time>2017-06-13T16:54:13Z</time>
      </trkpt>
      <trkpt lat="49.3973" lon="1.40228">
        <ele>109</ele>
        <time>2017-06-13T16:54:13Z</time>
      </trkpt>
      <trkpt lat="49.3973" lon="1.40224">
        <ele>109</ele>
        <time>2017-06-13T16:54:13Z</time>
      </trkpt>
      <trkpt lat="49.39731" lon="1.40218">
        <ele>109</ele>
        <time>2017-06-13T16:54:30Z</time>
      </trkpt>
      <trkpt lat="49.39732" lon="1.40212">
        <ele>109</ele>
        <time>2017-06-13T16:54:30Z</time>
      </trkpt>
      <trkpt lat="49.39731" lon="1.40207">
        <ele>112</ele>
        <time>2017-06-13T16:54:30Z</time>
      </trkpt>
      <trkpt lat="49.39732" lon="1.40199">
        <ele>112</ele>
        <time>2017-06-13T16:54:30Z</time>
      </trkpt>
      <trkpt lat="49.39733" lon="1.40196">
        <ele>112</ele>
        <time>2017-06-13T16:54:44Z</time>
      </trkpt>
      <trkpt lat="49.39735" lon="1.40189">
        <ele>112</ele>
        <time>2017-06-13T16:54:44Z</time>
      </trkpt>
      <trkpt lat="49.39735" lon="1.40183">
        <ele>112</ele>
        <time>2017-06-13T16:54:44Z</time>
      </trkpt>
      <trkpt lat="49.39734" lon="1.40176">
        <ele>112</ele>
        <time>2017-06-13T16:54:44Z</time>
      </trkpt>
      <trkpt lat="49.39732" lon="1.4017">
        <ele>112</ele>
        <time>2017-06-13T16:55:01Z</time>
      </trkpt>
      <trkpt lat="49.39732" lon="1.40161">
        <ele>112</ele>
        <time>2017-06-13T16:55:01Z</time>
      </trkpt>
      <trkpt lat="49.3973" lon="1.4015">
        <ele>112</ele>
        <time>2017-06-13T16:55:01Z</time>
      </trkpt>
      <trkpt lat="49.39728" lon="1.40145">
        <ele>112</ele>
        <time>2017-06-13T16:55:01Z</time>
      </trkpt>
      <trkpt lat="49.39727" lon="1.40138">
        <ele>112</ele>
        <time>2017-06-13T16:55:17Z</time>
      </trkpt>
      <trkpt lat="49.39726" lon="1.40135">
        <ele>112</ele>
        <time>2017-06-13T16:55:17Z</time>
      </trkpt>
      <trkpt lat="49.39723" lon="1.40129">
        <ele>112</ele>
        <time>2017-06-13T16:55:17Z</time>
      </trkpt>
      <trkpt lat="49.39721" lon="1.40126">
        <ele>112</ele>
        <time>2017-06-13T16:55:17Z</time>
      </trkpt>
      <trkpt lat="49.39719" lon="1.40121">
        <ele>115</ele>
        <time>2017-06-13T16:55:33Z</time>
      </trkpt>
      <trkpt lat="49.39716" lon="1.40116">
        <ele>115</ele>
        <time>2017-06-13T16:55:33Z</time>
      </trkpt>
      <trkpt lat="49.39714" lon="1.40112">
        <ele>115</ele>
        <time>2017-06-13T16:55:33Z</time>
      </trkpt>
      <trkpt lat="49.3971" lon="1.40106">
        <ele>115</ele>
        <time>2017-06-13T16:55:33Z</time>
      </trkpt>
      <trkpt lat="49.39708" lon="1.40103">
        <ele>115</ele>
        <time>2017-06-13T16:55:49Z</time>
      </trkpt>
      <trkpt lat="49.39707" lon="1.40097">
        <ele>115</ele>
        <time>2017-06-13T16:55:49Z</time>
      </trkpt>
      <trkpt lat="49.39705" lon="1.40089">
        <ele>115</ele>
        <time>2017-06-13T16:55:49Z</time>
      </trkpt>
      <trkpt lat="49.39702" lon="1.40083">
        <ele>115</ele>
        <time>2017-06-13T16:55:49Z</time>
      </trkpt>
      <trkpt lat="49.397" lon="1.40078">
        <ele>115</ele>
        <time>2017-06-13T16:56:06Z</time>
      </trkpt>
      <trkpt lat="49.39697" lon="1.40073">
        <ele>115</ele>
        <time>2017-06-13T16:56:06Z</time>
      </trkpt>
      <trkpt lat="49.39694" lon="1.40067">
        <ele>115</ele>
        <time>2017-06-13T16:56:06Z</time>
      </trkpt>
      <trkpt lat="49.39691" lon="1.40062">
        <ele>115</ele>
        <time>2017-06-13T16:56:06Z</time>
      </trkpt>
      <trkpt lat="49.39689" lon="1.40058">
        <ele>115</ele>
        <time>2017-06-13T16:56:21Z</time>
      </trkpt>
      <trkpt lat="49.39686" lon="1.40052">
        <ele>115</ele>
        <time>2017-06-13T16:56:21Z</time>
      </trkpt>
      <trkpt lat="49.39684" lon="1.40048">
        <ele>115</ele>
        <time>2017-06-13T16:56:21Z</time>
      </trkpt>
      <trkpt lat="49.39681" lon="1.40041">
        <ele>115</ele>
        <time>2017-06-13T16:56:21Z</time>
      </trkpt>
      <trkpt lat="49.39679" lon="1.40038">
        <ele>115</ele>
        <time>2017-06-13T16:56:37Z</time>
      </trkpt>
      <trkpt lat="49.39676" lon="1.40032">
        <ele>115</ele>
        <time>2017-06-13T16:56:37Z</time>
      </trkpt>
      <trkpt lat="49.39673" lon="1.40028">
        <ele>115</ele>
        <time>2017-06-13T16:56:37Z</time>
      </trkpt>
      <trkpt lat="49.3967" lon="1.40023">
        <ele>115</ele>
        <time>2017-06-13T16:56:37Z</time>
      </trkpt>
      <trkpt lat="49.39667" lon="1.40017">
        <ele>115</ele>
        <time>2017-06-13T16:56:53Z</time>
      </trkpt>
      <trkpt lat="49.39664" lon="1.40012">
        <ele>115</ele>
        <time>2017-06-13T16:56:53Z</time>
      </trkpt>
      <trkpt lat="49.39663" lon="1.40008">
        <ele>115</ele>
        <time>2017-06-13T16:56:53Z</time>
      </trkpt>
      <trkpt lat="49.3966" lon="1.40002">
        <ele>115</ele>
        <time>2017-06-13T16:56:53Z</time>
      </trkpt>
      <trkpt lat="49.39657" lon="1.39995">
        <ele>115</ele>
        <time>2017-06-13T16:57:10Z</time>
      </trkpt>
      <trkpt lat="49.39656" lon="1.39991">
        <ele>115</ele>
        <time>2017-06-13T16:57:10Z</time>
      </trkpt>
      <trkpt lat="49.39654" lon="1.39986">
        <ele>115</ele>
        <time>2017-06-13T16:57:10Z</time>
      </trkpt>
      <trkpt lat="49.39651" lon="1.39979">
        <ele>115</ele>
        <time>2017-06-13T16:57:10Z</time>
      </trkpt>
      <trkpt lat="49.39649" lon="1.39975">
        <ele>115</ele>
        <time>2017-06-13T16:57:25Z</time>
      </trkpt>
      <trkpt lat="49.39647" lon="1.39969">
        <ele>115</ele>
        <time>2017-06-13T16:57:25Z</time>
      </trkpt>
      <trkpt lat="49.39648" lon="1.3996">
        <ele>115</ele>
        <time>2017-06-13T16:57:25Z</time>
      </trkpt>
      <trkpt lat="49.39647" lon="1.39956">
        <ele>116</ele>
        <time>2017-06-13T16:57:25Z</time>
      </trkpt>
      <trkpt lat="49.39645" lon="1.39951">
        <ele>116</ele>
        <time>2017-06-13T16:57:41Z</time>
      </trkpt>
      <trkpt lat="49.39643" lon="1.39945">
        <ele>116</ele>
        <time>2017-06-13T16:57:41Z</time>
      </trkpt>
      <trkpt lat="49.3964" lon="1.39939">
        <ele>116</ele>
        <time>2017-06-13T16:57:41Z</time>
      </trkpt>
      <trkpt lat="49.39637" lon="1.39936">
        <ele>116</ele>
        <time>2017-06-13T16:57:41Z</time>
      </trkpt>
      <trkpt lat="49.39635" lon="1.3993">
        <ele>116</ele>
        <time>2017-06-13T16:57:56Z</time>
      </trkpt>
      <trkpt lat="49.39632" lon="1.39921">
        <ele>116</ele>
        <time>2017-06-13T16:57:56Z</time>
      </trkpt>
      <trkpt lat="49.39632" lon="1.39915">
        <ele>116</ele>
        <time>2017-06-13T16:57:57Z</time>
      </trkpt>
      <trkpt lat="49.39631" lon="1.39912">
        <ele>116</ele>
        <time>2017-06-13T16:57:57Z</time>
      </trkpt>
      <trkpt lat="49.3963" lon="1.39902">
        <ele>116</ele>
        <time>2017-06-13T16:58:13Z</time>
      </trkpt>
      <trkpt lat="49.39627" lon="1.39895">
        <ele>116</ele>
        <time>2017-06-13T16:58:13Z</time>
      </trkpt>
      <trkpt lat="49.39628" lon="1.39888">
        <ele>116</ele>
        <time>2017-06-13T16:58:13Z</time>
      </trkpt>
      <trkpt lat="49.39628" lon="1.3988">
        <ele>116</ele>
        <time>2017-06-13T16:58:13Z</time>
      </trkpt>
      <trkpt lat="49.39626" lon="1.39875">
        <ele>119</ele>
        <time>2017-06-13T16:58:28Z</time>
      </trkpt>
      <trkpt lat="49.39624" lon="1.39871">
        <ele>120</ele>
        <time>2017-06-13T16:58:28Z</time>
      </trkpt>
      <trkpt lat="49.39623" lon="1.39861">
        <ele>120</ele>
        <time>2017-06-13T16:58:28Z</time>
      </trkpt>
      <trkpt lat="49.39619" lon="1.39852">
        <ele>120</ele>
        <time>2017-06-13T16:58:28Z</time>
      </trkpt>
      <trkpt lat="49.39615" lon="1.39846">
        <ele>120</ele>
        <time>2017-06-13T16:58:45Z</time>
      </trkpt>
      <trkpt lat="49.39612" lon="1.39839">
        <ele>120</ele>
        <time>2017-06-13T16:58:45Z</time>
      </trkpt>
      <trkpt lat="49.39612" lon="1.39834">
        <ele>120</ele>
        <time>2017-06-13T16:58:45Z</time>
      </trkpt>
      <trkpt lat="49.39614" lon="1.3983">
        <ele>120</ele>
        <time>2017-06-13T16:58:45Z</time>
      </trkpt>
      <trkpt lat="49.39615" lon="1.39825">
        <ele>120</ele>
        <time>2017-06-13T16:59:01Z</time>
      </trkpt>
      <trkpt lat="49.39614" lon="1.39817">
        <ele>120</ele>
        <time>2017-06-13T16:59:01Z</time>
      </trkpt>
      <trkpt lat="49.39615" lon="1.39807">
        <ele>120</ele>
        <time>2017-06-13T16:59:01Z</time>
      </trkpt>
      <trkpt lat="49.39615" lon="1.39802">
        <ele>120</ele>
        <time>2017-06-13T16:59:01Z</time>
      </trkpt>
      <trkpt lat="49.39615" lon="1.39799">
        <ele>120</ele>
        <time>2017-06-13T16:59:17Z</time>
      </trkpt>
      <trkpt lat="49.39615" lon="1.39794">
        <ele>120</ele>
        <time>2017-06-13T16:59:17Z</time>
      </trkpt>
      <trkpt lat="49.39616" lon="1.39788">
        <ele>119</ele>
        <time>2017-06-13T16:59:17Z</time>
      </trkpt>
      <trkpt lat="49.39616" lon="1.39779">
        <ele>119</ele>
        <time>2017-06-13T16:59:17Z</time>
      </trkpt>
      <trkpt lat="49.39615" lon="1.39771">
        <ele>119</ele>
        <time>2017-06-13T16:59:33Z</time>
      </trkpt>
      <trkpt lat="49.39615" lon="1.39762">
        <ele>119</ele>
        <time>2017-06-13T16:59:33Z</time>
      </trkpt>
      <trkpt lat="49.39616" lon="1.39757">
        <ele>119</ele>
        <time>2017-06-13T16:59:33Z</time>
      </trkpt>
      <trkpt lat="49.39616" lon="1.3975">
        <ele>119</ele>
        <time>2017-06-13T16:59:33Z</time>
      </trkpt>
      <trkpt lat="49.39615" lon="1.39745">
        <ele>119</ele>
        <time>2017-06-13T16:59:48Z</time>
      </trkpt>
      <trkpt lat="49.39615" lon="1.3974">
        <ele>119</ele>
        <time>2017-06-13T16:59:48Z</time>
      </trkpt>
      <trkpt lat="49.39616" lon="1.39738">
        <ele>119</ele>
        <time>2017-06-13T16:59:48Z</time>
      </trkpt>
      <trkpt lat="49.39614" lon="1.3973">
        <ele>119</ele>
        <time>2017-06-13T16:59:48Z</time>
      </trkpt>
      <trkpt lat="49.39614" lon="1.39723">
        <ele>119</ele>
        <time>2017-06-13T17:00:05Z</time>
      </trkpt>
      <trkpt lat="49.39614" lon="1.39716">
        <ele>119</ele>
        <time>2017-06-13T17:00:05Z</time>
      </trkpt>
      <trkpt lat="49.39613" lon="1.39711">
        <ele>119</ele>
        <time>2017-06-13T17:00:05Z</time>
      </trkpt>
      <trkpt lat="49.39612" lon="1.39705">
        <ele>122</ele>
        <time>2017-06-13T17:00:05Z</time>
      </trkpt>
      <trkpt lat="49.3961" lon="1.39695">
        <ele>122</ele>
        <time>2017-06-13T17:00:20Z</time>
      </trkpt>
      <trkpt lat="49.3961" lon="1.3969">
        <ele>122</ele>
        <time>2017-06-13T17:00:20Z</time>
      </trkpt>
      <trkpt lat="49.39608" lon="1.39683">
        <ele>122</ele>
        <time>2017-06-13T17:00:20Z</time>
      </trkpt>
      <trkpt lat="49.39608" lon="1.39677">
        <ele>122</ele>
        <time>2017-06-13T17:00:20Z</time>
      </trkpt>
      <trkpt lat="49.39607" lon="1.39673">
        <ele>122</ele>
        <time>2017-06-13T17:00:37Z</time>
      </trkpt>
      <trkpt lat="49.39605" lon="1.39666">
        <ele>122</ele>
        <time>2017-06-13T17:00:37Z</time>
      </trkpt>
      <trkpt lat="49.39604" lon="1.39659">
        <ele>122</ele>
        <time>2017-06-13T17:00:37Z</time>
      </trkpt>
      <trkpt lat="49.39603" lon="1.39653">
        <ele>122</ele>
        <time>2017-06-13T17:00:37Z</time>
      </trkpt>
      <trkpt lat="49.39604" lon="1.39648">
        <ele>122</ele>
        <time>2017-06-13T17:00:54Z</time>
      </trkpt>
      <trkpt lat="49.39604" lon="1.3964">
        <ele>122</ele>
        <time>2017-06-13T17:00:54Z</time>
      </trkpt>
      <trkpt lat="49.39605" lon="1.39633">
        <ele>122</ele>
        <time>2017-06-13T17:00:54Z</time>
      </trkpt>
      <trkpt lat="49.39604" lon="1.39626">
        <ele>122</ele>
        <time>2017-06-13T17:00:54Z</time>
      </trkpt>
      <trkpt lat="49.39604" lon="1.39621">
        <ele>122</ele>
        <time>2017-06-13T17:01:10Z</time>
      </trkpt>
      <trkpt lat="49.39604" lon="1.39614">
        <ele>122</ele>
        <time>2017-06-13T17:01:10Z</time>
      </trkpt>
      <trkpt lat="49.39606" lon="1.39608">
        <ele>122</ele>
        <time>2017-06-13T17:01:10Z</time>
      </trkpt>
      <trkpt lat="49.39607" lon="1.39601">
        <ele>122</ele>
        <time>2017-06-13T17:01:10Z</time>
      </trkpt>
      <trkpt lat="49.39608" lon="1.39597">
        <ele>122</ele>
        <time>2017-06-13T17:01:24Z</time>
      </trkpt>
      <trkpt lat="49.39608" lon="1.39588">
        <ele>122</ele>
        <time>2017-06-13T17:01:24Z</time>
      </trkpt>
      <trkpt lat="49.39609" lon="1.39582">
        <ele>122</ele>
        <time>2017-06-13T17:01:24Z</time>
      </trkpt>
      <trkpt lat="49.39608" lon="1.39574">
        <ele>122</ele>
        <time>2017-06-13T17:01:24Z</time>
      </trkpt>
      <trkpt lat="49.39608" lon="1.39566">
        <ele>122</ele>
        <time>2017-06-13T17:01:40Z</time>
      </trkpt>
      <trkpt lat="49.39607" lon="1.39562">
        <ele>122</ele>
        <time>2017-06-13T17:01:41Z</time>
      </trkpt>
      <trkpt lat="49.39607" lon="1.39553">
        <ele>122</ele>
        <time>2017-06-13T17:01:41Z</time>
      </trkpt>
      <trkpt lat="49.39607" lon="1.39548">
        <ele>122</ele>
        <time>2017-06-13T17:01:41Z</time>
      </trkpt>
      <trkpt lat="49.39607" lon="1.3954">
        <ele>123</ele>
        <time>2017-06-13T17:01:57Z</time>
      </trkpt>
      <trkpt lat="49.39606" lon="1.39532">
        <ele>123</ele>
        <time>2017-06-13T17:01:57Z</time>
      </trkpt>
      <trkpt lat="49.39605" lon="1.39527">
        <ele>123</ele>
        <time>2017-06-13T17:01:57Z</time>
      </trkpt>
      <trkpt lat="49.39604" lon="1.3952">
        <ele>123</ele>
        <time>2017-06-13T17:01:57Z</time>
      </trkpt>
      <trkpt lat="49.39602" lon="1.39511">
        <ele>123</ele>
        <time>2017-06-13T17:02:13Z</time>
      </trkpt>
      <trkpt lat="49.39602" lon="1.39507">
        <ele>123</ele>
        <time>2017-06-13T17:02:13Z</time>
      </trkpt>
      <trkpt lat="49.39602" lon="1.39501">
        <ele>123</ele>
        <time>2017-06-13T17:02:13Z</time>
      </trkpt>
      <trkpt lat="49.39601" lon="1.39492">
        <ele>123</ele>
        <time>2017-06-13T17:02:13Z</time>
      </trkpt>
      <trkpt lat="49.39599" lon="1.39488">
        <ele>123</ele>
        <time>2017-06-13T17:02:49Z</time>
      </trkpt>
      <trkpt lat="49.396" lon="1.39487">
        <ele>123</ele>
        <time>2017-06-13T17:02:49Z</time>
      </trkpt>
      <trkpt lat="49.396" lon="1.39477">
        <ele>123</ele>
        <time>2017-06-13T17:02:49Z</time>
      </trkpt>
      <trkpt lat="49.396" lon="1.39473">
        <ele>123</ele>
        <time>2017-06-13T17:02:49Z</time>
      </trkpt>
      <trkpt lat="49.39598" lon="1.39465">
        <ele>123</ele>
        <time>2017-06-13T17:02:49Z</time>
      </trkpt>
      <trkpt lat="49.39594" lon="1.39458">
        <ele>121</ele>
        <time>2017-06-13T17:03:04Z</time>
      </trkpt>
      <trkpt lat="49.39593" lon="1.39453">
        <ele>121</ele>
        <time>2017-06-13T17:03:04Z</time>
      </trkpt>
      <trkpt lat="49.39591" lon="1.39447">
        <ele>121</ele>
        <time>2017-06-13T17:03:04Z</time>
      </trkpt>
      <trkpt lat="49.39589" lon="1.39443">
        <ele>121</ele>
        <time>2017-06-13T17:03:04Z</time>
      </trkpt>
      <trkpt lat="49.39585" lon="1.39436">
        <ele>121</ele>
        <time>2017-06-13T17:03:21Z</time>
      </trkpt>
      <trkpt lat="49.39582" lon="1.39431">
        <ele>121</ele>
        <time>2017-06-13T17:03:21Z</time>
      </trkpt>
      <trkpt lat="49.39581" lon="1.39428">
        <ele>121</ele>
        <time>2017-06-13T17:03:21Z</time>
      </trkpt>
      <trkpt lat="49.39578" lon="1.39423">
        <ele>121</ele>
        <time>2017-06-13T17:03:21Z</time>
      </trkpt>
      <trkpt lat="49.39574" lon="1.39418">
        <ele>121</ele>
        <time>2017-06-13T17:03:36Z</time>
      </trkpt>
      <trkpt lat="49.39571" lon="1.39414">
        <ele>121</ele>
        <time>2017-06-13T17:03:36Z</time>
      </trkpt>
      <trkpt lat="49.39569" lon="1.39409">
        <ele>121</ele>
        <time>2017-06-13T17:03:36Z</time>
      </trkpt>
      <trkpt lat="49.39567" lon="1.39404">
        <ele>121</ele>
        <time>2017-06-13T17:03:36Z</time>
      </trkpt>
      <trkpt lat="49.39565" lon="1.394">
        <ele>121</ele>
        <time>2017-06-13T17:03:53Z</time>
      </trkpt>
      <trkpt lat="49.39563" lon="1.39395">
        <ele>121</ele>
        <time>2017-06-13T17:03:53Z</time>
      </trkpt>
      <trkpt lat="49.3956" lon="1.39387">
        <ele>121</ele>
        <time>2017-06-13T17:03:53Z</time>
      </trkpt>
      <trkpt lat="49.39557" lon="1.39381">
        <ele>121</ele>
        <time>2017-06-13T17:03:53Z</time>
      </trkpt>
      <trkpt lat="49.39555" lon="1.39376">
        <ele>121</ele>
        <time>2017-06-13T17:04:09Z</time>
      </trkpt>
      <trkpt lat="49.39552" lon="1.39369">
        <ele>121</ele>
        <time>2017-06-13T17:04:09Z</time>
      </trkpt>
      <trkpt lat="49.39551" lon="1.39366">
        <ele>121</ele>
        <time>2017-06-13T17:04:09Z</time>
      </trkpt>
      <trkpt lat="49.39548" lon="1.39357">
        <ele>121</ele>
        <time>2017-06-13T17:04:09Z</time>
      </trkpt>
      <trkpt lat="49.39546" lon="1.39351">
        <ele>121</ele>
        <time>2017-06-13T17:04:25Z</time>
      </trkpt>
      <trkpt lat="49.39544" lon="1.39346">
        <ele>121</ele>
        <time>2017-06-13T17:04:25Z</time>
      </trkpt>
      <trkpt lat="49.39541" lon="1.39337">
        <ele>120</ele>
        <time>2017-06-13T17:04:25Z</time>
      </trkpt>
      <trkpt lat="49.39538" lon="1.39328">
        <ele>120</ele>
        <time>2017-06-13T17:04:25Z</time>
      </trkpt>
      <trkpt lat="49.39536" lon="1.3932">
        <ele>120</ele>
        <time>2017-06-13T17:04:42Z</time>
      </trkpt>
      <trkpt lat="49.39535" lon="1.39316">
        <ele>120</ele>
        <time>2017-06-13T17:04:42Z</time>
      </trkpt>
      <trkpt lat="49.39532" lon="1.39307">
        <ele>120</ele>
        <time>2017-06-13T17:04:42Z</time>
      </trkpt>
      <trkpt lat="49.39529" lon="1.39299">
        <ele>120</ele>
        <time>2017-06-13T17:04:42Z</time>
      </trkpt>
      <trkpt lat="49.39528" lon="1.39295">
        <ele>120</ele>
        <time>2017-06-13T17:04:57Z</time>
      </trkpt>
      <trkpt lat="49.39527" lon="1.39289">
        <ele>120</ele>
        <time>2017-06-13T17:04:57Z</time>
      </trkpt>
      <trkpt lat="49.39525" lon="1.39283">
        <ele>120</ele>
        <time>2017-06-13T17:04:57Z</time>
      </trkpt>
      <trkpt lat="49.39523" lon="1.39277">
        <ele>120</ele>
        <time>2017-06-13T17:04:57Z</time>
      </trkpt>
      <trkpt lat="49.39522" lon="1.39272">
        <ele>120</ele>
        <time>2017-06-13T17:05:13Z</time>
      </trkpt>
      <trkpt lat="49.3952" lon="1.39266">
        <ele>120</ele>
        <time>2017-06-13T17:05:13Z</time>
      </trkpt>
      <trkpt lat="49.3952" lon="1.39263">
        <ele>120</ele>
        <time>2017-06-13T17:05:13Z</time>
      </trkpt>
      <trkpt lat="49.39518" lon="1.39257">
        <ele>120</ele>
        <time>2017-06-13T17:05:13Z</time>
      </trkpt>
      <trkpt lat="49.39516" lon="1.39249">
        <ele>120</ele>
        <time>2017-06-13T17:05:28Z</time>
      </trkpt>
      <trkpt lat="49.39513" lon="1.39242">
        <ele>120</ele>
        <time>2017-06-13T17:05:28Z</time>
      </trkpt>
      <trkpt lat="49.39512" lon="1.39238">
        <ele>120</ele>
        <time>2017-06-13T17:05:28Z</time>
      </trkpt>
      <trkpt lat="49.3951" lon="1.39233">
        <ele>120</ele>
        <time>2017-06-13T17:05:28Z</time>
      </trkpt>
      <trkpt lat="49.39508" lon="1.39226">
        <ele>120</ele>
        <time>2017-06-13T17:05:45Z</time>
      </trkpt>
      <trkpt lat="49.39506" lon="1.39217">
        <ele>120</ele>
        <time>2017-06-13T17:05:45Z</time>
      </trkpt>
      <trkpt lat="49.39506" lon="1.39212">
        <ele>120</ele>
        <time>2017-06-13T17:05:45Z</time>
      </trkpt>
      <trkpt lat="49.39505" lon="1.39206">
        <ele>120</ele>
        <time>2017-06-13T17:05:45Z</time>
      </trkpt>
      <trkpt lat="49.39506" lon="1.39199">
        <ele>120</ele>
        <time>2017-06-13T17:06:01Z</time>
      </trkpt>
      <trkpt lat="49.39506" lon="1.39192">
        <ele>120</ele>
        <time>2017-06-13T17:06:01Z</time>
      </trkpt>
      <trkpt lat="49.39506" lon="1.39184">
        <ele>120</ele>
        <time>2017-06-13T17:06:01Z</time>
      </trkpt>
      <trkpt lat="49.39507" lon="1.39178">
        <ele>120</ele>
        <time>2017-06-13T17:06:01Z</time>
      </trkpt>
      <trkpt lat="49.39508" lon="1.39172">
        <ele>120</ele>
        <time>2017-06-13T17:06:16Z</time>
      </trkpt>
      <trkpt lat="49.39511" lon="1.39165">
        <ele>120</ele>
        <time>2017-06-13T17:06:16Z</time>
      </trkpt>
      <trkpt lat="49.39513" lon="1.39158">
        <ele>120</ele>
        <time>2017-06-13T17:06:16Z</time>
      </trkpt>
      <trkpt lat="49.39514" lon="1.39151">
        <ele>120</ele>
        <time>2017-06-13T17:06:16Z</time>
      </trkpt>
      <trkpt lat="49.39516" lon="1.39142">
        <ele>120</ele>
        <time>2017-06-13T17:06:32Z</time>
      </trkpt>
      <trkpt lat="49.39517" lon="1.39137">
        <ele>120</ele>
        <time>2017-06-13T17:06:32Z</time>
      </trkpt>
      <trkpt lat="49.39518" lon="1.39135">
        <ele>120</ele>
        <time>2017-06-13T17:06:32Z</time>
      </trkpt>
      <trkpt lat="49.3952" lon="1.39128">
        <ele>120</ele>
        <time>2017-06-13T17:06:32Z</time>
      </trkpt>
      <trkpt lat="49.3952" lon="1.39121">
        <ele>123</ele>
        <time>2017-06-13T17:06:48Z</time>
      </trkpt>
      <trkpt lat="49.3952" lon="1.39116">
        <ele>123</ele>
        <time>2017-06-13T17:06:48Z</time>
      </trkpt>
      <trkpt lat="49.3952" lon="1.39107">
        <ele>123</ele>
        <time>2017-06-13T17:06:48Z</time>
      </trkpt>
      <trkpt lat="49.39522" lon="1.39102">
        <ele>123</ele>
        <time>2017-06-13T17:06:48Z</time>
      </trkpt>
      <trkpt lat="49.39523" lon="1.39094">
        <ele>123</ele>
        <time>2017-06-13T17:07:05Z</time>
      </trkpt>
      <trkpt lat="49.39524" lon="1.39085">
        <ele>123</ele>
        <time>2017-06-13T17:07:05Z</time>
      </trkpt>
      <trkpt lat="49.39526" lon="1.39078">
        <ele>123</ele>
        <time>2017-06-13T17:07:05Z</time>
      </trkpt>
      <trkpt lat="49.39526" lon="1.39072">
        <ele>123</ele>
        <time>2017-06-13T17:07:05Z</time>
      </trkpt>
      <trkpt lat="49.39526" lon="1.39066">
        <ele>123</ele>
        <time>2017-06-13T17:07:21Z</time>
      </trkpt>
      <trkpt lat="49.39523" lon="1.39061">
        <ele>123</ele>
        <time>2017-06-13T17:07:21Z</time>
      </trkpt>
      <trkpt lat="49.39517" lon="1.39058">
        <ele>123</ele>
        <time>2017-06-13T17:07:21Z</time>
      </trkpt>
      <trkpt lat="49.39514" lon="1.39057">
        <ele>123</ele>
        <time>2017-06-13T17:07:21Z</time>
      </trkpt>
      <trkpt lat="49.39511" lon="1.39053">
        <ele>123</ele>
        <time>2017-06-13T17:08:28Z</time>
      </trkpt>
      <trkpt lat="49.39511" lon="1.39053">
        <ele>123</ele>
        <time>2017-06-13T17:08:28Z</time>
      </trkpt>
      <trkpt lat="49.39512" lon="1.39054">
        <ele>123</ele>
        <time>2017-06-13T17:08:28Z</time>
      </trkpt>
      <trkpt lat="49.39516" lon="1.39051">
        <ele>123</ele>
        <time>2017-06-13T17:08:28Z</time>
      </trkpt>
      <trkpt lat="49.39523" lon="1.39049">
        <ele>123</ele>
        <time>2017-06-13T17:08:28Z</time>
      </trkpt>
      <trkpt lat="49.39524" lon="1.3906">
        <ele>123</ele>
        <time>2017-06-13T17:10:40Z</time>
      </trkpt>
      <trkpt lat="49.39527" lon="1.39064">
        <ele>123</ele>
        <time>2017-06-13T17:10:40Z</time>
      </trkpt>
      <trkpt lat="49.39532" lon="1.39066">
        <ele>123</ele>
        <time>2017-06-13T17:10:40Z</time>
      </trkpt>
      <trkpt lat="49.39535" lon="1.39069">
        <ele>123</ele>
        <time>2017-06-13T17:10:40Z</time>
      </trkpt>
      <trkpt lat="49.39539" lon="1.39071">
        <ele>123</ele>
        <time>2017-06-13T17:10:40Z</time>
      </trkpt>
      <trkpt lat="49.39543" lon="1.39073">
        <ele>130</ele>
        <time>2017-06-13T17:10:57Z</time>
      </trkpt>
      <trkpt lat="49.39547" lon="1.39076">
        <ele>130</ele>
        <time>2017-06-13T17:10:57Z</time>
      </trkpt>
      <trkpt lat="49.39551" lon="1.39079">
        <ele>130</ele>
        <time>2017-06-13T17:10:57Z</time>
      </trkpt>
      <trkpt lat="49.39555" lon="1.39082">
        <ele>130</ele>
        <time>2017-06-13T17:10:57Z</time>
      </trkpt>
      <trkpt lat="49.39566" lon="1.39081">
        <ele>130</ele>
        <time>2017-06-13T17:11:18Z</time>
      </trkpt>
      <trkpt lat="49.39569" lon="1.3908">
        <ele>130</ele>
        <time>2017-06-13T17:11:18Z</time>
      </trkpt>
      <trkpt lat="49.39568" lon="1.39085">
        <ele>130</ele>
        <time>2017-06-13T17:11:18Z</time>
      </trkpt>
      <trkpt lat="49.39569" lon="1.39088">
        <ele>130</ele>
        <time>2017-06-13T17:11:18Z</time>
      </trkpt>
      <trkpt lat="49.39574" lon="1.39089">
        <ele>130</ele>
        <time>2017-06-13T17:11:18Z</time>
      </trkpt>
      <trkpt lat="49.39578" lon="1.39089">
        <ele>130</ele>
        <time>2017-06-13T17:11:33Z</time>
      </trkpt>
      <trkpt lat="49.39584" lon="1.39086">
        <ele>130</ele>
        <time>2017-06-13T17:11:33Z</time>
      </trkpt>
      <trkpt lat="49.39586" lon="1.39088">
        <ele>130</ele>
        <time>2017-06-13T17:11:33Z</time>
      </trkpt>
      <trkpt lat="49.39591" lon="1.39091">
        <ele>130</ele>
        <time>2017-06-13T17:11:33Z</time>
      </trkpt>
      <trkpt lat="49.39596" lon="1.39094">
        <ele>130</ele>
        <time>2017-06-13T17:11:50Z</time>
      </trkpt>
      <trkpt lat="49.39601" lon="1.39094">
        <ele>130</ele>
        <time>2017-06-13T17:11:50Z</time>
      </trkpt>
      <trkpt lat="49.39607" lon="1.39097">
        <ele>130</ele>
        <time>2017-06-13T17:11:50Z</time>
      </trkpt>
      <trkpt lat="49.39613" lon="1.39103">
        <ele>130</ele>
        <time>2017-06-13T17:11:50Z</time>
      </trkpt>
      <trkpt lat="49.39615" lon="1.39104">
        <ele>130</ele>
        <time>2017-06-13T17:12:05Z</time>
      </trkpt>
      <trkpt lat="49.39619" lon="1.39108">
        <ele>130</ele>
        <time>2017-06-13T17:12:05Z</time>
      </trkpt>
      <trkpt lat="49.39622" lon="1.39111">
        <ele>130</ele>
        <time>2017-06-13T17:12:05Z</time>
      </trkpt>
      <trkpt lat="49.39626" lon="1.39114">
        <ele>134</ele>
        <time>2017-06-13T17:12:05Z</time>
      </trkpt>
      <trkpt lat="49.39631" lon="1.39116">
        <ele>134</ele>
        <time>2017-06-13T17:12:21Z</time>
      </trkpt>
      <trkpt lat="49.39634" lon="1.39118">
        <ele>134</ele>
        <time>2017-06-13T17:12:21Z</time>
      </trkpt>
      <trkpt lat="49.39638" lon="1.39121">
        <ele>134</ele>
        <time>2017-06-13T17:12:21Z</time>
      </trkpt>
      <trkpt lat="49.39643" lon="1.39125">
        <ele>134</ele>
        <time>2017-06-13T17:12:21Z</time>
      </trkpt>
      <trkpt lat="49.39646" lon="1.39127">
        <ele>133</ele>
        <time>2017-06-13T17:12:37Z</time>
      </trkpt>
      <trkpt lat="49.39649" lon="1.3913">
        <ele>133</ele>
        <time>2017-06-13T17:12:37Z</time>
      </trkpt>
      <trkpt lat="49.39653" lon="1.39134">
        <ele>133</ele>
        <time>2017-06-13T17:12:37Z</time>
      </trkpt>
      <trkpt lat="49.39657" lon="1.39137">
        <ele>133</ele>
        <time>2017-06-13T17:12:37Z</time>
      </trkpt>
      <trkpt lat="49.39661" lon="1.39143">
        <ele>133</ele>
        <time>2017-06-13T17:12:52Z</time>
      </trkpt>
      <trkpt lat="49.39663" lon="1.39146">
        <ele>133</ele>
        <time>2017-06-13T17:12:52Z</time>
      </trkpt>
      <trkpt lat="49.39667" lon="1.39152">
        <ele>133</ele>
        <time>2017-06-13T17:12:52Z</time>
      </trkpt>
      <trkpt lat="49.3967" lon="1.39155">
        <ele>133</ele>
        <time>2017-06-13T17:12:52Z</time>
      </trkpt>
      <trkpt lat="49.39673" lon="1.3916">
        <ele>133</ele>
        <time>2017-06-13T17:13:10Z</time>
      </trkpt>
      <trkpt lat="49.39676" lon="1.39164">
        <ele>133</ele>
        <time>2017-06-13T17:13:10Z</time>
      </trkpt>
      <trkpt lat="49.3968" lon="1.39168">
        <ele>133</ele>
        <time>2017-06-13T17:13:10Z</time>
      </trkpt>
      <trkpt lat="49.39685" lon="1.39173">
        <ele>133</ele>
        <time>2017-06-13T17:13:10Z</time>
      </trkpt>
      <trkpt lat="49.39687" lon="1.39175">
        <ele>133</ele>
        <time>2017-06-13T17:13:24Z</time>
      </trkpt>
      <trkpt lat="49.39692" lon="1.39179">
        <ele>133</ele>
        <time>2017-06-13T17:13:24Z</time>
      </trkpt>
      <trkpt lat="49.39696" lon="1.39182">
        <ele>133</ele>
        <time>2017-06-13T17:13:24Z</time>
      </trkpt>
      <trkpt lat="49.39699" lon="1.39184">
        <ele>133</ele>
        <time>2017-06-13T17:13:24Z</time>
      </trkpt>
      <trkpt lat="49.39705" lon="1.39186">
        <ele>133</ele>
        <time>2017-06-13T17:13:40Z</time>
      </trkpt>
      <trkpt lat="49.39709" lon="1.39186">
        <ele>136</ele>
        <time>2017-06-13T17:13:40Z</time>
      </trkpt>
      <trkpt lat="49.39713" lon="1.39186">
        <ele>136</ele>
        <time>2017-06-13T17:13:40Z</time>
      </trkpt>
      <trkpt lat="49.39717" lon="1.39187">
        <ele>136</ele>
        <time>2017-06-13T17:13:40Z</time>
      </trkpt>
      <trkpt lat="49.3972" lon="1.39186">
        <ele>136</ele>
        <time>2017-06-13T17:13:57Z</time>
      </trkpt>
      <trkpt lat="49.39725" lon="1.39187">
        <ele>136</ele>
        <time>2017-06-13T17:13:57Z</time>
      </trkpt>
      <trkpt lat="49.39733" lon="1.39191">
        <ele>136</ele>
        <time>2017-06-13T17:13:57Z</time>
      </trkpt>
      <trkpt lat="49.3974" lon="1.39196">
        <ele>136</ele>
        <time>2017-06-13T17:13:57Z</time>
      </trkpt>
      <trkpt lat="49.39744" lon="1.39196">
        <ele>136</ele>
        <time>2017-06-13T17:14:12Z</time>
      </trkpt>
      <trkpt lat="49.39748" lon="1.39197">
        <ele>136</ele>
        <time>2017-06-13T17:14:12Z</time>
      </trkpt>
      <trkpt lat="49.39752" lon="1.39197">
        <ele>136</ele>
        <time>2017-06-13T17:14:12Z</time>
      </trkpt>
      <trkpt lat="49.39757" lon="1.39197">
        <ele>136</ele>
        <time>2017-06-13T17:14:12Z</time>
      </trkpt>
      <trkpt lat="49.39761" lon="1.39198">
        <ele>136</ele>
        <time>2017-06-13T17:14:28Z</time>
      </trkpt>
      <trkpt lat="49.39765" lon="1.39198">
        <ele>136</ele>
        <time>2017-06-13T17:14:28Z</time>
      </trkpt>
      <trkpt lat="49.39769" lon="1.39198">
        <ele>136</ele>
        <time>2017-06-13T17:14:28Z</time>
      </trkpt>
      <trkpt lat="49.39774" lon="1.39199">
        <ele>136</ele>
        <time>2017-06-13T17:14:28Z</time>
      </trkpt>
      <trkpt lat="49.39778" lon="1.39199">
        <ele>136</ele>
        <time>2017-06-13T17:14:44Z</time>
      </trkpt>
      <trkpt lat="49.39782" lon="1.39199">
        <ele>136</ele>
        <time>2017-06-13T17:14:44Z</time>
      </trkpt>
      <trkpt lat="49.39788" lon="1.39199">
        <ele>136</ele>
        <time>2017-06-13T17:14:44Z</time>
      </trkpt>
      <trkpt lat="49.39791" lon="1.39202">
        <ele>136</ele>
        <time>2017-06-13T17:14:44Z</time>
      </trkpt>
      <trkpt lat="49.39799" lon="1.3921">
        <ele>136</ele>
        <time>2017-06-13T17:15:01Z</time>
      </trkpt>
      <trkpt lat="49.39803" lon="1.39211">
        <ele>136</ele>
        <time>2017-06-13T17:15:01Z</time>
      </trkpt>
      <trkpt lat="49.39807" lon="1.39211">
        <ele>136</ele>
        <time>2017-06-13T17:15:01Z</time>
      </trkpt>
      <trkpt lat="49.39812" lon="1.39212">
        <ele>136</ele>
        <time>2017-06-13T17:15:01Z</time>
      </trkpt>
      <trkpt lat="49.39816" lon="1.39212">
        <ele>136</ele>
        <time>2017-06-13T17:15:17Z</time>
      </trkpt>
      <trkpt lat="49.3982" lon="1.39212">
        <ele>136</ele>
        <time>2017-06-13T17:15:17Z</time>
      </trkpt>
      <trkpt lat="49.39825" lon="1.39212">
        <ele>136</ele>
        <time>2017-06-13T17:15:18Z</time>
      </trkpt>
      <trkpt lat="49.3983" lon="1.39212">
        <ele>136</ele>
        <time>2017-06-13T17:15:18Z</time>
      </trkpt>
      <trkpt lat="49.39833" lon="1.39211">
        <ele>136</ele>
        <time>2017-06-13T17:15:33Z</time>
      </trkpt>
      <trkpt lat="49.39838" lon="1.39212">
        <ele>136</ele>
        <time>2017-06-13T17:15:33Z</time>
      </trkpt>
      <trkpt lat="49.39842" lon="1.39212">
        <ele>136</ele>
        <time>2017-06-13T17:15:33Z</time>
      </trkpt>
      <trkpt lat="49.39847" lon="1.39212">
        <ele>136</ele>
        <time>2017-06-13T17:15:33Z</time>
      </trkpt>
      <trkpt lat="49.39851" lon="1.39212">
        <ele>136</ele>
        <time>2017-06-13T17:15:49Z</time>
      </trkpt>
      <trkpt lat="49.39855" lon="1.39212">
        <ele>136</ele>
        <time>2017-06-13T17:15:49Z</time>
      </trkpt>
      <trkpt lat="49.39859" lon="1.39213">
        <ele>136</ele>
        <time>2017-06-13T17:15:49Z</time>
      </trkpt>
      <trkpt lat="49.39865" lon="1.39214">
        <ele>136</ele>
        <time>2017-06-13T17:15:49Z</time>
      </trkpt>
      <trkpt lat="49.39867" lon="1.39214">
        <ele>136</ele>
        <time>2017-06-13T17:16:04Z</time>
      </trkpt>
      <trkpt lat="49.39874" lon="1.39215">
        <ele>136</ele>
        <time>2017-06-13T17:16:04Z</time>
      </trkpt>
      <trkpt lat="49.39877" lon="1.39215">
        <ele>134</ele>
        <time>2017-06-13T17:16:04Z</time>
      </trkpt>
      <trkpt lat="49.39882" lon="1.39216">
        <ele>134</ele>
        <time>2017-06-13T17:16:04Z</time>
      </trkpt>
      <trkpt lat="49.39897" lon="1.39228">
        <ele>134</ele>
        <time>2017-06-13T17:16:22Z</time>
      </trkpt>
      <trkpt lat="49.39902" lon="1.3923">
        <ele>134</ele>
        <time>2017-06-13T17:16:22Z</time>
      </trkpt>
      <trkpt lat="49.39906" lon="1.39232">
        <ele>134</ele>
        <time>2017-06-13T17:16:22Z</time>
      </trkpt>
      <trkpt lat="49.39913" lon="1.39234">
        <ele>134</ele>
        <time>2017-06-13T17:16:22Z</time>
      </trkpt>
      <trkpt lat="49.39916" lon="1.39235">
        <ele>134</ele>
        <time>2017-06-13T17:16:37Z</time>
      </trkpt>
      <trkpt lat="49.39921" lon="1.39235">
        <ele>134</ele>
        <time>2017-06-13T17:16:37Z</time>
      </trkpt>
      <trkpt lat="49.39925" lon="1.39235">
        <ele>134</ele>
        <time>2017-06-13T17:16:37Z</time>
      </trkpt>
      <trkpt lat="49.3993" lon="1.39235">
        <ele>134</ele>
        <time>2017-06-13T17:16:37Z</time>
      </trkpt>
      <trkpt lat="49.39934" lon="1.39235">
        <ele>134</ele>
        <time>2017-06-13T17:16:53Z</time>
      </trkpt>
      <trkpt lat="49.39939" lon="1.39235">
        <ele>134</ele>
        <time>2017-06-13T17:16:53Z</time>
      </trkpt>
      <trkpt lat="49.39942" lon="1.39235">
        <ele>134</ele>
        <time>2017-06-13T17:16:53Z</time>
      </trkpt>
      <trkpt lat="49.39947" lon="1.39234">
        <ele>134</ele>
        <time>2017-06-13T17:16:53Z</time>
      </trkpt>
      <trkpt lat="49.39951" lon="1.39234">
        <ele>134</ele>
        <time>2017-06-13T17:17:08Z</time>
      </trkpt>
      <trkpt lat="49.39956" lon="1.39235">
        <ele>134</ele>
        <time>2017-06-13T17:17:08Z</time>
      </trkpt>
      <trkpt lat="49.39961" lon="1.39234">
        <ele>134</ele>
        <time>2017-06-13T17:17:08Z</time>
      </trkpt>
      <trkpt lat="49.39964" lon="1.39235">
        <ele>134</ele>
        <time>2017-06-13T17:17:08Z</time>
      </trkpt>
      <trkpt lat="49.39968" lon="1.39235">
        <ele>134</ele>
        <time>2017-06-13T17:17:26Z</time>
      </trkpt>
      <trkpt lat="49.39973" lon="1.39233">
        <ele>134</ele>
        <time>2017-06-13T17:17:26Z</time>
      </trkpt>
      <trkpt lat="49.39977" lon="1.3923">
        <ele>134</ele>
        <time>2017-06-13T17:17:26Z</time>
      </trkpt>
      <trkpt lat="49.39981" lon="1.39226">
        <ele>134</ele>
        <time>2017-06-13T17:17:26Z</time>
      </trkpt>
      <trkpt lat="49.39984" lon="1.39223">
        <ele>134</ele>
        <time>2017-06-13T17:17:40Z</time>
      </trkpt>
      <trkpt lat="49.39989" lon="1.39218">
        <ele>134</ele>
        <time>2017-06-13T17:17:40Z</time>
      </trkpt>
      <trkpt lat="49.39992" lon="1.39214">
        <ele>134</ele>
        <time>2017-06-13T17:17:40Z</time>
      </trkpt>
      <trkpt lat="49.39994" lon="1.39209">
        <ele>134</ele>
        <time>2017-06-13T17:17:40Z</time>
      </trkpt>
      <trkpt lat="49.39996" lon="1.39204">
        <ele>135</ele>
        <time>2017-06-13T17:17:57Z</time>
      </trkpt>
      <trkpt lat="49.39999" lon="1.39199">
        <ele>135</ele>
        <time>2017-06-13T17:17:57Z</time>
      </trkpt>
      <trkpt lat="49.40002" lon="1.39194">
        <ele>135</ele>
        <time>2017-06-13T17:17:57Z</time>
      </trkpt>
      <trkpt lat="49.40004" lon="1.39189">
        <ele>135</ele>
        <time>2017-06-13T17:17:57Z</time>
      </trkpt>
      <trkpt lat="49.40007" lon="1.39184">
        <ele>135</ele>
        <time>2017-06-13T17:18:13Z</time>
      </trkpt>
      <trkpt lat="49.4001" lon="1.39179">
        <ele>135</ele>
        <time>2017-06-13T17:18:13Z</time>
      </trkpt>
      <trkpt lat="49.40014" lon="1.39173">
        <ele>135</ele>
        <time>2017-06-13T17:18:13Z</time>
      </trkpt>
      <trkpt lat="49.40016" lon="1.39169">
        <ele>135</ele>
        <time>2017-06-13T17:18:13Z</time>
      </trkpt>
      <trkpt lat="49.4002" lon="1.39163">
        <ele>135</ele>
        <time>2017-06-13T17:18:28Z</time>
      </trkpt>
      <trkpt lat="49.40022" lon="1.39159">
        <ele>135</ele>
        <time>2017-06-13T17:18:28Z</time>
      </trkpt>
      <trkpt lat="49.40026" lon="1.39153">
        <ele>135</ele>
        <time>2017-06-13T17:18:28Z</time>
      </trkpt>
      <trkpt lat="49.40028" lon="1.39149">
        <ele>135</ele>
        <time>2017-06-13T17:18:28Z</time>
      </trkpt>
      <trkpt lat="49.40031" lon="1.39145">
        <ele>135</ele>
        <time>2017-06-13T17:18:46Z</time>
      </trkpt>
      <trkpt lat="49.40034" lon="1.3914">
        <ele>135</ele>
        <time>2017-06-13T17:18:46Z</time>
      </trkpt>
      <trkpt lat="49.40037" lon="1.39136">
        <ele>135</ele>
        <time>2017-06-13T17:18:46Z</time>
      </trkpt>
      <trkpt lat="49.40041" lon="1.3913">
        <ele>135</ele>
        <time>2017-06-13T17:18:46Z</time>
      </trkpt>
      <trkpt lat="49.40043" lon="1.39126">
        <ele>137</ele>
        <time>2017-06-13T17:19:01Z</time>
      </trkpt>
      <trkpt lat="49.40046" lon="1.39122">
        <ele>133</ele>
        <time>2017-06-13T17:19:01Z</time>
      </trkpt>
      <trkpt lat="49.4005" lon="1.39116">
        <ele>133</ele>
        <time>2017-06-13T17:19:01Z</time>
      </trkpt>
      <trkpt lat="49.40052" lon="1.39112">
        <ele>133</ele>
        <time>2017-06-13T17:19:01Z</time>
      </trkpt>
      <trkpt lat="49.40055" lon="1.39107">
        <ele>133</ele>
        <time>2017-06-13T17:19:17Z</time>
      </trkpt>
      <trkpt lat="49.40058" lon="1.39102">
        <ele>133</ele>
        <time>2017-06-13T17:19:17Z</time>
      </trkpt>
      <trkpt lat="49.40061" lon="1.39097">
        <ele>133</ele>
        <time>2017-06-13T17:19:17Z</time>
      </trkpt>
      <trkpt lat="49.40064" lon="1.39092">
        <ele>133</ele>
        <time>2017-06-13T17:19:17Z</time>
      </trkpt>
      <trkpt lat="49.40067" lon="1.39085">
        <ele>133</ele>
        <time>2017-06-13T17:19:33Z</time>
      </trkpt>
      <trkpt lat="49.40069" lon="1.39081">
        <ele>133</ele>
        <time>2017-06-13T17:19:33Z</time>
      </trkpt>
      <trkpt lat="49.40073" lon="1.39075">
        <ele>133</ele>
        <time>2017-06-13T17:19:33Z</time>
      </trkpt>
      <trkpt lat="49.40076" lon="1.39069">
        <ele>133</ele>
        <time>2017-06-13T17:19:33Z</time>
      </trkpt>
      <trkpt lat="49.40079" lon="1.39065">
        <ele>133</ele>
        <time>2017-06-13T17:19:49Z</time>
      </trkpt>
      <trkpt lat="49.40083" lon="1.39059">
        <ele>133</ele>
        <time>2017-06-13T17:19:49Z</time>
      </trkpt>
      <trkpt lat="49.40086" lon="1.39054">
        <ele>133</ele>
        <time>2017-06-13T17:19:49Z</time>
      </trkpt>
      <trkpt lat="49.40094" lon="1.39047">
        <ele>133</ele>
        <time>2017-06-13T17:19:49Z</time>
      </trkpt>
      <trkpt lat="49.40109" lon="1.39042">
        <ele>130</ele>
        <time>2017-06-13T17:20:05Z</time>
      </trkpt>
      <trkpt lat="49.40116" lon="1.39037">
        <ele>130</ele>
        <time>2017-06-13T17:20:05Z</time>
      </trkpt>
      <trkpt lat="49.40119" lon="1.39032">
        <ele>130</ele>
        <time>2017-06-13T17:20:05Z</time>
      </trkpt>
      <trkpt lat="49.40122" lon="1.39027">
        <ele>130</ele>
        <time>2017-06-13T17:20:05Z</time>
      </trkpt>
      <trkpt lat="49.40125" lon="1.39022">
        <ele>130</ele>
        <time>2017-06-13T17:20:20Z</time>
      </trkpt>
      <trkpt lat="49.40128" lon="1.39017">
        <ele>135</ele>
        <time>2017-06-13T17:20:20Z</time>
      </trkpt>
      <trkpt lat="49.40131" lon="1.39011">
        <ele>135</ele>
        <time>2017-06-13T17:20:20Z</time>
      </trkpt>
      <trkpt lat="49.40134" lon="1.39005">
        <ele>135</ele>
        <time>2017-06-13T17:20:20Z</time>
      </trkpt>
      <trkpt lat="49.40136" lon="1.39">
        <ele>135</ele>
        <time>2017-06-13T17:20:36Z</time>
      </trkpt>
      <trkpt lat="49.4014" lon="1.38996">
        <ele>135</ele>
        <time>2017-06-13T17:20:37Z</time>
      </trkpt>
      <trkpt lat="49.40146" lon="1.38997">
        <ele>135</ele>
        <time>2017-06-13T17:20:37Z</time>
      </trkpt>
      <trkpt lat="49.40153" lon="1.38994">
        <ele>135</ele>
        <time>2017-06-13T17:20:37Z</time>
      </trkpt>
      <trkpt lat="49.40157" lon="1.38989">
        <ele>135</ele>
        <time>2017-06-13T17:20:52Z</time>
      </trkpt>
      <trkpt lat="49.4016" lon="1.38986">
        <ele>135</ele>
        <time>2017-06-13T17:20:52Z</time>
      </trkpt>
      <trkpt lat="49.40164" lon="1.3898">
        <ele>135</ele>
        <time>2017-06-13T17:20:52Z</time>
      </trkpt>
      <trkpt lat="49.40167" lon="1.38975">
        <ele>135</ele>
        <time>2017-06-13T17:20:52Z</time>
      </trkpt>
      <trkpt lat="49.4017" lon="1.38969">
        <ele>135</ele>
        <time>2017-06-13T17:21:09Z</time>
      </trkpt>
      <trkpt lat="49.40173" lon="1.38964">
        <ele>135</ele>
        <time>2017-06-13T17:21:09Z</time>
      </trkpt>
      <trkpt lat="49.40176" lon="1.38959">
        <ele>135</ele>
        <time>2017-06-13T17:21:09Z</time>
      </trkpt>
      <trkpt lat="49.40178" lon="1.38953">
        <ele>128</ele>
        <time>2017-06-13T17:21:09Z</time>
      </trkpt>
      <trkpt lat="49.40181" lon="1.38948">
        <ele>128</ele>
        <time>2017-06-13T17:21:25Z</time>
      </trkpt>
      <trkpt lat="49.40184" lon="1.38944">
        <ele>128</ele>
        <time>2017-06-13T17:21:25Z</time>
      </trkpt>
      <trkpt lat="49.40187" lon="1.38938">
        <ele>128</ele>
        <time>2017-06-13T17:21:25Z</time>
      </trkpt>
      <trkpt lat="49.40188" lon="1.38931">
        <ele>128</ele>
        <time>2017-06-13T17:21:25Z</time>
      </trkpt>
      <trkpt lat="49.40191" lon="1.38923">
        <ele>128</ele>
        <time>2017-06-13T17:21:41Z</time>
      </trkpt>
      <trkpt lat="49.40192" lon="1.38918">
        <ele>128</ele>
        <time>2017-06-13T17:21:41Z</time>
      </trkpt>
      <trkpt lat="49.40195" lon="1.38913">
        <ele>128</ele>
        <time>2017-06-13T17:21:41Z</time>
      </trkpt>
      <trkpt lat="49.40199" lon="1.38908">
        <ele>128</ele>
        <time>2017-06-13T17:21:41Z</time>
      </trkpt>
      <trkpt lat="49.40203" lon="1.38905">
        <ele>128</ele>
        <time>2017-06-13T17:21:57Z</time>
      </trkpt>
      <trkpt lat="49.40207" lon="1.389">
        <ele>128</ele>
        <time>2017-06-13T17:21:57Z</time>
      </trkpt>
      <trkpt lat="49.4021" lon="1.38895">
        <ele>131</ele>
        <time>2017-06-13T17:21:57Z</time>
      </trkpt>
      <trkpt lat="49.40213" lon="1.38888">
        <ele>131</ele>
        <time>2017-06-13T17:21:57Z</time>
      </trkpt>
      <trkpt lat="49.40215" lon="1.38884">
        <ele>131</ele>
        <time>2017-06-13T17:22:14Z</time>
      </trkpt>
      <trkpt lat="49.40218" lon="1.38878">
        <ele>131</ele>
        <time>2017-06-13T17:22:14Z</time>
      </trkpt>
      <trkpt lat="49.4022" lon="1.38872">
        <ele>123</ele>
        <time>2017-06-13T17:22:14Z</time>
      </trkpt>
      <trkpt lat="49.40223" lon="1.38865">
        <ele>123</ele>
        <time>2017-06-13T17:22:14Z</time>
      </trkpt>
      <trkpt lat="49.40226" lon="1.3886">
        <ele>123</ele>
        <time>2017-06-13T17:22:28Z</time>
      </trkpt>
      <trkpt lat="49.4023" lon="1.38855">
        <ele>123</ele>
        <time>2017-06-13T17:22:28Z</time>
      </trkpt>
      <trkpt lat="49.40233" lon="1.3885">
        <ele>123</ele>
        <time>2017-06-13T17:22:28Z</time>
      </trkpt>
      <trkpt lat="49.40236" lon="1.38845">
        <ele>123</ele>
        <time>2017-06-13T17:22:28Z</time>
      </trkpt>
      <trkpt lat="49.40239" lon="1.3884">
        <ele>123</ele>
        <time>2017-06-13T17:22:44Z</time>
      </trkpt>
      <trkpt lat="49.40242" lon="1.38835">
        <ele>123</ele>
        <time>2017-06-13T17:22:44Z</time>
      </trkpt>
      <trkpt lat="49.40245" lon="1.38829">
        <ele>123</ele>
        <time>2017-06-13T17:22:44Z</time>
      </trkpt>
      <trkpt lat="49.40249" lon="1.38824">
        <ele>123</ele>
        <time>2017-06-13T17:22:44Z</time>
      </trkpt>
      <trkpt lat="49.40252" lon="1.38818">
        <ele>123</ele>
        <time>2017-06-13T17:23:00Z</time>
      </trkpt>
      <trkpt lat="49.40255" lon="1.38815">
        <ele>123</ele>
        <time>2017-06-13T17:23:00Z</time>
      </trkpt>
      <trkpt lat="49.40261" lon="1.38816">
        <ele>123</ele>
        <time>2017-06-13T17:23:00Z</time>
      </trkpt>
      <trkpt lat="49.40271" lon="1.38822">
        <ele>123</ele>
        <time>2017-06-13T17:23:00Z</time>
      </trkpt>
      <trkpt lat="49.40277" lon="1.38819">
        <ele>123</ele>
        <time>2017-06-13T17:23:18Z</time>
      </trkpt>
      <trkpt lat="49.40282" lon="1.38813">
        <ele>123</ele>
        <time>2017-06-13T17:23:18Z</time>
      </trkpt>
      <trkpt lat="49.40284" lon="1.38809">
        <ele>123</ele>
        <time>2017-06-13T17:23:18Z</time>
      </trkpt>
      <trkpt lat="49.40287" lon="1.38802">
        <ele>123</ele>
        <time>2017-06-13T17:23:18Z</time>
      </trkpt>
      <trkpt lat="49.40289" lon="1.38798">
        <ele>123</ele>
        <time>2017-06-13T17:23:33Z</time>
      </trkpt>
      <trkpt lat="49.40292" lon="1.38793">
        <ele>125</ele>
        <time>2017-06-13T17:23:33Z</time>
      </trkpt>
      <trkpt lat="49.40295" lon="1.38788">
        <ele>116</ele>
        <time>2017-06-13T17:23:33Z</time>
      </trkpt>
      <trkpt lat="49.40298" lon="1.38783">
        <ele>116</ele>
        <time>2017-06-13T17:23:33Z</time>
      </trkpt>
      <trkpt lat="49.40302" lon="1.38776">
        <ele>116</ele>
        <time>2017-06-13T17:23:48Z</time>
      </trkpt>
      <trkpt lat="49.40305" lon="1.3877">
        <ele>116</ele>
        <time>2017-06-13T17:23:48Z</time>
      </trkpt>
      <trkpt lat="49.40307" lon="1.38766">
        <ele>116</ele>
        <time>2017-06-13T17:23:48Z</time>
      </trkpt>
      <trkpt lat="49.4031" lon="1.3876">
        <ele>116</ele>
        <time>2017-06-13T17:23:48Z</time>
      </trkpt>
      <trkpt lat="49.40314" lon="1.38754">
        <ele>116</ele>
        <time>2017-06-13T17:24:05Z</time>
      </trkpt>
      <trkpt lat="49.40316" lon="1.3875">
        <ele>116</ele>
        <time>2017-06-13T17:24:05Z</time>
      </trkpt>
      <trkpt lat="49.4032" lon="1.38745">
        <ele>116</ele>
        <time>2017-06-13T17:24:05Z</time>
      </trkpt>
      <trkpt lat="49.40335" lon="1.38747">
        <ele>116</ele>
        <time>2017-06-13T17:24:05Z</time>
      </trkpt>
      <trkpt lat="49.40344" lon="1.38746">
        <ele>116</ele>
        <time>2017-06-13T17:24:21Z</time>
      </trkpt>
      <trkpt lat="49.40349" lon="1.38741">
        <ele>116</ele>
        <time>2017-06-13T17:24:21Z</time>
      </trkpt>
      <trkpt lat="49.40354" lon="1.38736">
        <ele>116</ele>
        <time>2017-06-13T17:24:21Z</time>
      </trkpt>
      <trkpt lat="49.4036" lon="1.38731">
        <ele>116</ele>
        <time>2017-06-13T17:24:21Z</time>
      </trkpt>
      <trkpt lat="49.40365" lon="1.38725">
        <ele>116</ele>
        <time>2017-06-13T17:24:36Z</time>
      </trkpt>
      <trkpt lat="49.40368" lon="1.38724">
        <ele>116</ele>
        <time>2017-06-13T17:24:36Z</time>
      </trkpt>
      <trkpt lat="49.40371" lon="1.3872">
        <ele>116</ele>
        <time>2017-06-13T17:24:36Z</time>
      </trkpt>
      <trkpt lat="49.40373" lon="1.38715">
        <ele>116</ele>
        <time>2017-06-13T17:24:36Z</time>
      </trkpt>
      <trkpt lat="49.40376" lon="1.38708">
        <ele>111</ele>
        <time>2017-06-13T17:24:53Z</time>
      </trkpt>
      <trkpt lat="49.40378" lon="1.38704">
        <ele>111</ele>
        <time>2017-06-13T17:24:53Z</time>
      </trkpt>
      <trkpt lat="49.40381" lon="1.38696">
        <ele>111</ele>
        <time>2017-06-13T17:24:53Z</time>
      </trkpt>
      <trkpt lat="49.40383" lon="1.38694">
        <ele>111</ele>
        <time>2017-06-13T17:24:53Z</time>
      </trkpt>
      <trkpt lat="49.40386" lon="1.38692">
        <ele>111</ele>
        <time>2017-06-13T17:25:09Z</time>
      </trkpt>
      <trkpt lat="49.40388" lon="1.3869">
        <ele>111</ele>
        <time>2017-06-13T17:25:09Z</time>
      </trkpt>
      <trkpt lat="49.40391" lon="1.38685">
        <ele>111</ele>
        <time>2017-06-13T17:25:09Z</time>
      </trkpt>
      <trkpt lat="49.40393" lon="1.38674">
        <ele>111</ele>
        <time>2017-06-13T17:25:10Z</time>
      </trkpt>
      <trkpt lat="49.40395" lon="1.38666">
        <ele>111</ele>
        <time>2017-06-13T17:25:25Z</time>
      </trkpt>
      <trkpt lat="49.404" lon="1.38659">
        <ele>111</ele>
        <time>2017-06-13T17:25:25Z</time>
      </trkpt>
      <trkpt lat="49.40403" lon="1.38653">
        <ele>111</ele>
        <time>2017-06-13T17:25:25Z</time>
      </trkpt>
      <trkpt lat="49.40405" lon="1.38648">
        <ele>111</ele>
        <time>2017-06-13T17:25:25Z</time>
      </trkpt>
      <trkpt lat="49.40407" lon="1.38639">
        <ele>111</ele>
        <time>2017-06-13T17:25:42Z</time>
      </trkpt>
      <trkpt lat="49.40409" lon="1.38633">
        <ele>111</ele>
        <time>2017-06-13T17:25:42Z</time>
      </trkpt>
      <trkpt lat="49.4041" lon="1.38631">
        <ele>111</ele>
        <time>2017-06-13T17:25:42Z</time>
      </trkpt>
      <trkpt lat="49.40417" lon="1.38622">
        <ele>106</ele>
        <time>2017-06-13T17:25:42Z</time>
      </trkpt>
      <trkpt lat="49.40419" lon="1.38618">
        <ele>106</ele>
        <time>2017-06-13T17:25:57Z</time>
      </trkpt>
      <trkpt lat="49.40421" lon="1.38613">
        <ele>106</ele>
        <time>2017-06-13T17:25:57Z</time>
      </trkpt>
      <trkpt lat="49.40423" lon="1.38607">
        <ele>106</ele>
        <time>2017-06-13T17:25:57Z</time>
      </trkpt>
      <trkpt lat="49.40426" lon="1.386">
        <ele>106</ele>
        <time>2017-06-13T17:25:57Z</time>
      </trkpt>
      <trkpt lat="49.40427" lon="1.38595">
        <ele>106</ele>
        <time>2017-06-13T17:26:12Z</time>
      </trkpt>
      <trkpt lat="49.40429" lon="1.38589">
        <ele>106</ele>
        <time>2017-06-13T17:26:12Z</time>
      </trkpt>
      <trkpt lat="49.4043" lon="1.38582">
        <ele>106</ele>
        <time>2017-06-13T17:26:12Z</time>
      </trkpt>
      <trkpt lat="49.40431" lon="1.38578">
        <ele>106</ele>
        <time>2017-06-13T17:26:12Z</time>
      </trkpt>
      <trkpt lat="49.40434" lon="1.3857">
        <ele>106</ele>
        <time>2017-06-13T17:26:30Z</time>
      </trkpt>
      <trkpt lat="49.40434" lon="1.38561">
        <ele>106</ele>
        <time>2017-06-13T17:26:30Z</time>
      </trkpt>
      <trkpt lat="49.40435" lon="1.38556">
        <ele>106</ele>
        <time>2017-06-13T17:26:30Z</time>
      </trkpt>
      <trkpt lat="49.40436" lon="1.38548">
        <ele>106</ele>
        <time>2017-06-13T17:26:30Z</time>
      </trkpt>
      <trkpt lat="49.40437" lon="1.38543">
        <ele>106</ele>
        <time>2017-06-13T17:26:45Z</time>
      </trkpt>
      <trkpt lat="49.40439" lon="1.38535">
        <ele>97</ele>
        <time>2017-06-13T17:26:45Z</time>
      </trkpt>
      <trkpt lat="49.4044" lon="1.3853">
        <ele>97</ele>
        <time>2017-06-13T17:26:45Z</time>
      </trkpt>
      <trkpt lat="49.40445" lon="1.38519">
        <ele>97</ele>
        <time>2017-06-13T17:26:45Z</time>
      </trkpt>
      <trkpt lat="49.40449" lon="1.38514">
        <ele>97</ele>
        <time>2017-06-13T17:27:01Z</time>
      </trkpt>
      <trkpt lat="49.4045" lon="1.38509">
        <ele>97</ele>
        <time>2017-06-13T17:27:01Z</time>
      </trkpt>
      <trkpt lat="49.40451" lon="1.38502">
        <ele>97</ele>
        <time>2017-06-13T17:27:01Z</time>
      </trkpt>
      <trkpt lat="49.40452" lon="1.38496">
        <ele>97</ele>
        <time>2017-06-13T17:27:01Z</time>
      </trkpt>
      <trkpt lat="49.40453" lon="1.38489">
        <ele>97</ele>
        <time>2017-06-13T17:27:17Z</time>
      </trkpt>
      <trkpt lat="49.40455" lon="1.38481">
        <ele>97</ele>
        <time>2017-06-13T17:27:17Z</time>
      </trkpt>
      <trkpt lat="49.40459" lon="1.38477">
        <ele>99</ele>
        <time>2017-06-13T17:27:17Z</time>
      </trkpt>
      <trkpt lat="49.40465" lon="1.38472">
        <ele>99</ele>
        <time>2017-06-13T17:27:17Z</time>
      </trkpt>
      <trkpt lat="49.4047" lon="1.38467">
        <ele>99</ele>
        <time>2017-06-13T17:27:33Z</time>
      </trkpt>
      <trkpt lat="49.40472" lon="1.38458">
        <ele>92</ele>
        <time>2017-06-13T17:27:33Z</time>
      </trkpt>
      <trkpt lat="49.40473" lon="1.3845">
        <ele>92</ele>
        <time>2017-06-13T17:27:33Z</time>
      </trkpt>
      <trkpt lat="49.40474" lon="1.38445">
        <ele>92</ele>
        <time>2017-06-13T17:27:33Z</time>
      </trkpt>
      <trkpt lat="49.40476" lon="1.38437">
        <ele>92</ele>
        <time>2017-06-13T17:27:49Z</time>
      </trkpt>
      <trkpt lat="49.40477" lon="1.38432">
        <ele>92</ele>
        <time>2017-06-13T17:27:49Z</time>
      </trkpt>
      <trkpt lat="49.4048" lon="1.38426">
        <ele>92</ele>
        <time>2017-06-13T17:27:49Z</time>
      </trkpt>
      <trkpt lat="49.40483" lon="1.38422">
        <ele>92</ele>
        <time>2017-06-13T17:27:49Z</time>
      </trkpt>
      <trkpt lat="49.40484" lon="1.38412">
        <ele>92</ele>
        <time>2017-06-13T17:28:04Z</time>
      </trkpt>
      <trkpt lat="49.40485" lon="1.38405">
        <ele>92</ele>
        <time>2017-06-13T17:28:04Z</time>
      </trkpt>
      <trkpt lat="49.40486" lon="1.38398">
        <ele>92</ele>
        <time>2017-06-13T17:28:04Z</time>
      </trkpt>
      <trkpt lat="49.40488" lon="1.38397">
        <ele>92</ele>
        <time>2017-06-13T17:28:04Z</time>
      </trkpt>
      <trkpt lat="49.40488" lon="1.38386">
        <ele>92</ele>
        <time>2017-06-13T17:28:20Z</time>
      </trkpt>
      <trkpt lat="49.40489" lon="1.3838">
        <ele>92</ele>
        <time>2017-06-13T17:28:20Z</time>
      </trkpt>
      <trkpt lat="49.4049" lon="1.38373">
        <ele>87</ele>
        <time>2017-06-13T17:28:20Z</time>
      </trkpt>
      <trkpt lat="49.40491" lon="1.38366">
        <ele>87</ele>
        <time>2017-06-13T17:28:20Z</time>
      </trkpt>
      <trkpt lat="49.40492" lon="1.3836">
        <ele>87</ele>
        <time>2017-06-13T17:28:37Z</time>
      </trkpt>
      <trkpt lat="49.40493" lon="1.38355">
        <ele>87</ele>
        <time>2017-06-13T17:28:37Z</time>
      </trkpt>
      <trkpt lat="49.40496" lon="1.38348">
        <ele>87</ele>
        <time>2017-06-13T17:28:37Z</time>
      </trkpt>
      <trkpt lat="49.40497" lon="1.3834">
        <ele>87</ele>
        <time>2017-06-13T17:28:37Z</time>
      </trkpt>
      <trkpt lat="49.405" lon="1.38335">
        <ele>87</ele>
        <time>2017-06-13T17:28:54Z</time>
      </trkpt>
      <trkpt lat="49.40502" lon="1.38327">
        <ele>87</ele>
        <time>2017-06-13T17:28:54Z</time>
      </trkpt>
      <trkpt lat="49.40503" lon="1.38318">
        <ele>87</ele>
        <time>2017-06-13T17:28:54Z</time>
      </trkpt>
      <trkpt lat="49.40504" lon="1.38311">
        <ele>87</ele>
        <time>2017-06-13T17:28:54Z</time>
      </trkpt>
      <trkpt lat="49.40505" lon="1.38306">
        <ele>87</ele>
        <time>2017-06-13T17:29:09Z</time>
      </trkpt>
      <trkpt lat="49.40506" lon="1.38299">
        <ele>87</ele>
        <time>2017-06-13T17:29:09Z</time>
      </trkpt>
      <trkpt lat="49.40507" lon="1.38293">
        <ele>87</ele>
        <time>2017-06-13T17:29:09Z</time>
      </trkpt>
      <trkpt lat="49.40508" lon="1.38286">
        <ele>83</ele>
        <time>2017-06-13T17:29:09Z</time>
      </trkpt>
      <trkpt lat="49.40509" lon="1.38279">
        <ele>83</ele>
        <time>2017-06-13T17:29:24Z</time>
      </trkpt>
      <trkpt lat="49.4051" lon="1.38274">
        <ele>83</ele>
        <time>2017-06-13T17:29:24Z</time>
      </trkpt>
      <trkpt lat="49.40516" lon="1.38263">
        <ele>83</ele>
        <time>2017-06-13T17:29:24Z</time>
      </trkpt>
      <trkpt lat="49.40518" lon="1.38258">
        <ele>83</ele>
        <time>2017-06-13T17:29:24Z</time>
      </trkpt>
      <trkpt lat="49.4052" lon="1.38251">
        <ele>83</ele>
        <time>2017-06-13T17:29:40Z</time>
      </trkpt>
      <trkpt lat="49.40522" lon="1.38246">
        <ele>83</ele>
        <time>2017-06-13T17:29:40Z</time>
      </trkpt>
      <trkpt lat="49.40525" lon="1.38244">
        <ele>83</ele>
        <time>2017-06-13T17:29:40Z</time>
      </trkpt>
      <trkpt lat="49.40527" lon="1.38237">
        <ele>83</ele>
        <time>2017-06-13T17:29:41Z</time>
      </trkpt>
      <trkpt lat="49.40529" lon="1.38229">
        <ele>83</ele>
        <time>2017-06-13T17:29:56Z</time>
      </trkpt>
      <trkpt lat="49.40531" lon="1.38223">
        <ele>83</ele>
        <time>2017-06-13T17:29:56Z</time>
      </trkpt>
      <trkpt lat="49.40531" lon="1.38221">
        <ele>83</ele>
        <time>2017-06-13T17:29:56Z</time>
      </trkpt>
      <trkpt lat="49.40534" lon="1.38209">
        <ele>83</ele>
        <time>2017-06-13T17:29:56Z</time>
      </trkpt>
      <trkpt lat="49.40535" lon="1.38203">
        <ele>77</ele>
        <time>2017-06-13T17:30:13Z</time>
      </trkpt>
      <trkpt lat="49.40536" lon="1.38196">
        <ele>77</ele>
        <time>2017-06-13T17:30:13Z</time>
      </trkpt>
      <trkpt lat="49.40539" lon="1.38183">
        <ele>77</ele>
        <time>2017-06-13T17:30:13Z</time>
      </trkpt>
      <trkpt lat="49.40541" lon="1.38177">
        <ele>77</ele>
        <time>2017-06-13T17:30:13Z</time>
      </trkpt>
      <trkpt lat="49.40544" lon="1.38168">
        <ele>79</ele>
        <time>2017-06-13T17:30:29Z</time>
      </trkpt>
      <trkpt lat="49.40546" lon="1.38161">
        <ele>79</ele>
        <time>2017-06-13T17:30:29Z</time>
      </trkpt>
      <trkpt lat="49.40548" lon="1.38156">
        <ele>79</ele>
        <time>2017-06-13T17:30:29Z</time>
      </trkpt>
      <trkpt lat="49.4055" lon="1.3815">
        <ele>79</ele>
        <time>2017-06-13T17:30:29Z</time>
      </trkpt>
      <trkpt lat="49.40551" lon="1.38144">
        <ele>79</ele>
        <time>2017-06-13T17:30:45Z</time>
      </trkpt>
      <trkpt lat="49.40552" lon="1.38137">
        <ele>79</ele>
        <time>2017-06-13T17:30:45Z</time>
      </trkpt>
      <trkpt lat="49.40554" lon="1.38131">
        <ele>79</ele>
        <time>2017-06-13T17:30:45Z</time>
      </trkpt>
      <trkpt lat="49.40556" lon="1.38122">
        <ele>70</ele>
        <time>2017-06-13T17:30:45Z</time>
      </trkpt>
      <trkpt lat="49.40557" lon="1.38118">
        <ele>70</ele>
        <time>2017-06-13T17:31:01Z</time>
      </trkpt>
      <trkpt lat="49.40559" lon="1.38109">
        <ele>70</ele>
        <time>2017-06-13T17:31:01Z</time>
      </trkpt>
      <trkpt lat="49.4056" lon="1.38104">
        <ele>70</ele>
        <time>2017-06-13T17:31:01Z</time>
      </trkpt>
      <trkpt lat="49.4056" lon="1.38097">
        <ele>70</ele>
        <time>2017-06-13T17:31:01Z</time>
      </trkpt>
      <trkpt lat="49.40561" lon="1.3809">
        <ele>70</ele>
        <time>2017-06-13T17:31:17Z</time>
      </trkpt>
      <trkpt lat="49.40561" lon="1.38083">
        <ele>70</ele>
        <time>2017-06-13T17:31:17Z</time>
      </trkpt>
      <trkpt lat="49.40567" lon="1.38075">
        <ele>70</ele>
        <time>2017-06-13T17:31:17Z</time>
      </trkpt>
      <trkpt lat="49.4057" lon="1.38065">
        <ele>70</ele>
        <time>2017-06-13T17:31:17Z</time>
      </trkpt>
      <trkpt lat="49.40573" lon="1.38061">
        <ele>70</ele>
        <time>2017-06-13T17:31:33Z</time>
      </trkpt>
      <trkpt lat="49.40576" lon="1.38054">
        <ele>70</ele>
        <time>2017-06-13T17:31:33Z</time>
      </trkpt>
      <trkpt lat="49.40575" lon="1.38047">
        <ele>70</ele>
        <time>2017-06-13T17:31:33Z</time>
      </trkpt>
      <trkpt lat="49.40577" lon="1.38043">
        <ele>70</ele>
        <time>2017-06-13T17:31:33Z</time>
      </trkpt>
      <trkpt lat="49.40584" lon="1.38038">
        <ele>59</ele>
        <time>2017-06-13T17:31:48Z</time>
      </trkpt>
      <trkpt lat="49.4059" lon="1.38033">
        <ele>59</ele>
        <time>2017-06-13T17:31:48Z</time>
      </trkpt>
      <trkpt lat="49.4059" lon="1.38023">
        <ele>59</ele>
        <time>2017-06-13T17:31:48Z</time>
      </trkpt>
      <trkpt lat="49.40587" lon="1.38014">
        <ele>59</ele>
        <time>2017-06-13T17:31:48Z</time>
      </trkpt>
      <trkpt lat="49.40586" lon="1.38016">
        <ele>59</ele>
        <time>2017-06-13T17:32:05Z</time>
      </trkpt>
      <trkpt lat="49.40586" lon="1.38013">
        <ele>59</ele>
        <time>2017-06-13T17:32:05Z</time>
      </trkpt>
      <trkpt lat="49.40585" lon="1.38006">
        <ele>59</ele>
        <time>2017-06-13T17:32:05Z</time>
      </trkpt>
      <trkpt lat="49.40585" lon="1.38001">
        <ele>59</ele>
        <time>2017-06-13T17:32:05Z</time>
      </trkpt>
      <trkpt lat="49.40585" lon="1.37994">
        <ele>59</ele>
        <time>2017-06-13T17:32:21Z</time>
      </trkpt>
      <trkpt lat="49.4059" lon="1.37987">
        <ele>59</ele>
        <time>2017-06-13T17:32:21Z</time>
      </trkpt>
      <trkpt lat="49.40596" lon="1.3798">
        <ele>59</ele>
        <time>2017-06-13T17:32:21Z</time>
      </trkpt>
      <trkpt lat="49.40602" lon="1.37974">
        <ele>59</ele>
        <time>2017-06-13T17:32:21Z</time>
      </trkpt>
      <trkpt lat="49.40606" lon="1.37971">
        <ele>59</ele>
        <time>2017-06-13T17:32:37Z</time>
      </trkpt>
      <trkpt lat="49.4061" lon="1.37968">
        <ele>59</ele>
        <time>2017-06-13T17:32:37Z</time>
      </trkpt>
      <trkpt lat="49.40614" lon="1.37966">
        <ele>59</ele>
        <time>2017-06-13T17:32:37Z</time>
      </trkpt>
      <trkpt lat="49.40618" lon="1.37963">
        <ele>59</ele>
        <time>2017-06-13T17:32:38Z</time>
      </trkpt>
      <trkpt lat="49.40623" lon="1.37962">
        <ele>59</ele>
        <time>2017-06-13T17:32:53Z</time>
      </trkpt>
      <trkpt lat="49.40625" lon="1.3796">
        <ele>59</ele>
        <time>2017-06-13T17:32:53Z</time>
      </trkpt>
      <trkpt lat="49.40629" lon="1.37957">
        <ele>46</ele>
        <time>2017-06-13T17:32:53Z</time>
      </trkpt>
      <trkpt lat="49.40633" lon="1.37952">
        <ele>46</ele>
        <time>2017-06-13T17:32:53Z</time>
      </trkpt>
      <trkpt lat="49.40637" lon="1.37949">
        <ele>46</ele>
        <time>2017-06-13T17:33:09Z</time>
      </trkpt>
      <trkpt lat="49.4064" lon="1.37948">
        <ele>46</ele>
        <time>2017-06-13T17:33:09Z</time>
      </trkpt>
      <trkpt lat="49.40642" lon="1.37944">
        <ele>46</ele>
        <time>2017-06-13T17:33:09Z</time>
      </trkpt>
      <trkpt lat="49.40646" lon="1.37939">
        <ele>46</ele>
        <time>2017-06-13T17:33:09Z</time>
      </trkpt>
    </trkseg>
  </trk>
</gpx>